     2              OBSERVATION DATA    GPS                 RINEX VERSION / TYPE
teqc 2000Feb29 Duncan Agnew 20000517 23:38:47UTC            PGM / RUN BY / DATE
                                                            COMMENT
L2: 1 -> 1; 5 -> 5; 60 -> 9                                 COMMENT
L2: 1 -> 1; 5 -> 5; 60 -> 9                                 COMMENT
L2: 1 -> 1; 5 -> 5; 60 -> 9                                 COMMENT
L2: 1 -> 1; 5 -> 5; 60 -> 9                                 COMMENT
L2: 1 -> 1; 5 -> 5; 60 -> 9                                 COMMENT
Original Marker Name: 1108                                  COMMENT
Campaign Name: Post Hector                                  COMMENT
4-Character Station Name: 1108                              COMMENT
6-Character Antenna Code: TRMCMP                            COMMENT
Vertical Measurement Point: BPA                             COMMENT
Vertical Offset to Rinex Ref. Point: 0.0000                 COMMENT
Radial Measurement Point: RRP                               COMMENT
Radial Offset to Rinex Ref. Point: 0.0000                   COMMENT
Antenna Height from Field Measurement: 1.8900 m             COMMENT
Additional Antenna Identification Info.:                    COMMENT
Model 22020.00+GP                                           COMMENT
Original XYZ: -2399260.4465 -4771791.7229 3476142.6155      COMMENT
New XYZ position is based on association with SCEC monument COMMENT
E1D0G6B4+0011. Position of that monument is believed to be  COMMENT
valid to within 1 m horizontally; vertical accuracy         COMMENT
should be no worse than 3-times this value.                 COMMENT
                                                            COMMENT
Revised Rinex header created by UCSD GPS archive for        COMMENT
GSAC on 16-Jun-2000 (2000:168) 00:00:40 GMT                 COMMENT
For assistance contact dagnew@ucsd.edu                      COMMENT
or anderson@python.ucsd.edu                                 COMMENT
                                                            COMMENT
HPGN CA 11-08 1990                                          MARKER NAME
1108                                                        MARKER NUMBER
-Unknown- CALIF DEPT TRANSPORTATION                         OBSERVER / AGENCY
1528 TRIMBLE 4000 SSI NP 7.29; SP 3.07                      REC # / TYPE / VERS
79243 TR GEOD L1/L2 GP                                      ANT # / TYPE
 -2399263.2576 -4771787.3791  3476135.2840                  APPROX POSITION XYZ
        1.8900        0.0000        0.0000                  ANTENNA: DELTA H/E/N
     1     1     0                                          WAVELENGTH FACT L1/2
     7    C1    L1    L2    P1    P2    S1    S2            # / TYPES OF OBSERV
     0                                                      INTERVAL
  2000     5     4    18    58   45.000000                  TIME OF FIRST OBS
  2000     5     5     0    31   15.000000                  TIME OF LAST OBS
                                                            END OF HEADER
 00  5  4 18 58 45.0000000  0  7G 4G 5G 6G 9G10G24G30
  23560684.3444    4745012.27856   3697410.63056                  23560692.6804
        14.0004         12.0004
  20334421.0784     482041.79358    377345.88157                  20334429.4264
        32.0004         28.0004
  23647215.8834   -1850281.88156   -167135.97556                  23647229.8204
        12.7504         12.0004
  24330804.1954    4524363.06755   3525462.54655                  24330822.2234
        10.7504          9.7504
  21699012.1174   -2067689.22357  -1602703.00956                  21699022.8094
        25.0004         24.0004
  20957032.5784    2770026.92358   2158461.91057                  20957040.6094
        30.5004         27.5004
  21640879.3914   -2201577.05258  -1706764.15756                  21640888.7814
        29.0004         25.5004
 00  5  4 18 59  0.0000000  0  7G 4G 5G 6G 9G10G24G30
  23572441.2814    4806792.72546   3745551.19546                  23572449.6884
        14.5004         12.5004
  20337032.4304     495764.71848    388039.05547                  20337040.7774
        32.2504         28.0004
  23643346.4304   -1870612.46946   -182977.93346                  23643360.6024
        12.2504         12.0004
  24341945.1884    4582914.96145   3571087.19345                  24341964.0944
        10.0004         10.0004
  21695414.4534   -2086596.19947  -1617435.64446                  21695425.0634
        25.2504         24.2504
  20964642.3984    2810016.39048   2189622.52747                  20964650.6414
        30.7504         27.7504
  21636837.2814   -2222818.85748  -1723316.19246                  21636846.7074
        29.5004         25.5004
 00  5  4 18 59 15.0000000  0  7G 4G 5G 6G 9G10G24G30
  23584208.0474    4868629.13146   3793735.38446                  23584218.0004
        13.7504         12.0004
  20339678.0234     509667.19048    398872.14047                  20339686.4414
        32.0004         28.0004
  23639486.9144   -1890893.56146   -198781.33646                  23639501.2384
        12.7504         12.0004
  24353096.2114    4641508.09445   3616743.94845                  24353115.7854
        10.0004         10.0004
  21691846.7344   -2105343.54647  -1632043.89646                  21691857.3094
        25.2504         24.0004
  20972274.8914    2850125.63048   2220876.47647                  20972283.0044
        30.5004         27.7504
  21632822.0944   -2243918.76248  -1739757.65247                  21632831.4494
        29.7504         25.7504
 00  5  4 18 59 30.0000000  0  7G 4G 5G 6G 9G10G24G30
  23595986.1094    4930523.02046   3841964.36245                  23595994.5984
        14.2504         11.7504
  20342358.1254     523751.08848    409846.59547                  20342366.3794
        32.2504         28.0004
  23635637.5474   -1911123.24246   -214544.66146                  23635651.9414
        13.0004         12.2504
  24364254.2034    4700143.70045   3662433.82945                  24364273.0864
        10.0004          9.5004
  21688309.7274   -2123929.15947  -1646526.12146                  21688320.4064
        25.2504         24.5004
  20979930.6954    2890356.19448   2252224.96547                  20979938.7734
        30.5004         28.0004
  21628834.2114   -2264874.54048  -1756086.80547                  21628843.4264
        29.7504         25.7504
 00  5  4 18 59 45.0000000  0  7G 4G 5G 6G 9G10G24G30
  23607774.2814    4992470.57946   3890235.18646                  23607782.0314
        14.2504         12.0004
  20345072.0704     538012.87848    420959.66247                  20345080.4534
        32.0004         28.0004
  23631796.8204   -1931305.10246   -230270.72446                  23631811.2854
        13.2504         12.5004
  24375419.9774    4758817.96545   3708153.83345                  24375439.4924
        10.5004         10.0004
  21684803.4694   -2142356.23147  -1660884.81046                  21684813.9144
        25.5004         24.2504
  20987608.5864    2930704.10348   2283664.89247                  20987616.5004
        30.7504         27.7504
  21624873.2344   -2285689.64148  -1772306.34347                  21624882.2854
        30.0004         25.7504
 00  5  4 19  0  0.0000000  0  7G 4G 5G 6G 9G10G24G30
  23619573.9384    5054475.76946   3938550.88246                  23619582.1334
        13.5004         12.0004
  20347820.7734     552456.78748    432214.64247                  20347828.9344
        32.2504         27.7504
  23627966.4924   -1951434.86946   -245956.19146                  23627979.9614
        13.2504         12.2504
  24386593.3674    4817534.73045   3753906.96145                  24386612.4494
         9.7504          9.7504
  21681327.7194   -2160620.22547  -1675116.42346                  21681338.1644
        25.2504         24.0004
  20995309.6484    2971173.35648   2315199.36747                  20995317.5514
        30.7504         27.7504
  21620939.8204   -2306359.62848  -1788412.80647                  21620948.7424
        29.7504         25.7504
 00  5  4 19  0 15.0000000  0  7G 4G 5G 6G 9G10G24G30
  23631383.2504    5116535.16046   3986908.81246                  23631391.2344
        14.2504         12.2504
  20350603.2664     567079.67848    443609.09247                  20350611.5784
        32.0004         28.0004
  23624145.4454   -1971515.96246   -261603.75046                  23624159.9574
        13.5004         12.5004
  24397772.8054    4876290.37345   3799690.37545                  24397792.1684
         9.5004         10.2504
  21677882.6254   -2178723.95547  -1689223.16346                  21677893.0354
        26.0004         24.2504
  21003033.0864    3011760.44248   2346825.66547                  21003041.2344
        30.5004         27.7504
  21617033.4454   -2326887.29048  -1804408.36147                  21617042.5434
        29.7504         26.0004
 00  5  4 19  0 30.0000000  0  7G 4G 5G 6G 9G10G24G30
  23643202.7584    5178645.58146   4035306.53046                  23643211.6334
        14.0004         12.0004
  20353419.5004     581878.83248    455140.88847                  20353427.8594
        32.2504         28.0004
  23620332.2114   -1991551.14846   -277215.53346                  23620346.8164
        13.0004         12.7504
  24408961.6094    4935081.73945   3845501.63345                  24408980.7974
        10.0004         10.0004
  21674467.6564   -2196670.11547  -1703207.10946                  21674477.9734
        25.7504         24.2504
  21010778.3524    3052462.20948   2378541.32347                  21010786.3834
        30.7504         27.7504
  21613153.7974   -2347275.22448  -1820295.03947                  21613162.7774
        30.0004         26.0004
 00  5  4 19  0 45.0000000  0  7G 4G 5G 6G 9G10G24G30
  23655031.7734    5240806.16146   4083743.31046                  23655040.1454
        14.7504         12.0004
  20356269.2504     596853.65248    466809.56447                  20356277.6214
        32.0004         28.0004
  23616528.3284   -2011540.98546   -292791.97146                  23616542.6884
        13.2504         12.5004
  24420156.6024    4993907.82445   3891339.93045                  24420176.4224
        10.0004          9.5004
  21671082.3594   -2214458.94647  -1717068.47146                  21671092.6524
        25.5004         24.2504
  21018545.3054    3093277.82948   2410345.69847                  21018553.5944
        30.5004         27.7504
  21609300.7504   -2367523.63448  -1836072.99947                  21609309.8714
        29.7504         26.0004
 00  5  4 19  1  0.0000000  0  7G 4G 5G 6G 9G10G24G30
  23666869.5084    5303015.68246   4132218.25045                  23666877.7274
        14.2504         11.7504
  20359151.8524     612003.21548    478614.40847                  20359160.2234
        32.2504         28.0004
  23612732.8984   -2031486.48746   -308333.87846                  23612747.6214
        13.0004         12.2504
  24431356.7424    5052767.38545   3937204.32445                  24431376.3754
         9.7504          9.7504
  21667726.9384   -2232091.05247  -1730807.70846                  21667737.2894
        25.7504         24.2504
  21026333.6094    3134205.95848   2442237.74347                  21026341.5124
        30.7504         28.0004
  21605473.9384   -2387633.11748  -1851742.69747                  21605483.1524
        30.0004         26.0004
 00  5  4 19  1 15.0000000  0  7G 4G 5G 6G 9G10G24G30
  23678717.4224    5365277.40746   4180733.85545                  23678725.2074
        13.7504         11.7504
  20362068.9064     627330.96448    490558.09747                  20362077.1484
        32.2504         28.0004
  23608946.0864   -2051384.18746
        13.2504
  24442565.2194    5111663.40945   3983097.12345                  24442584.8634
        10.2504          9.5004
  21664402.2194   -2249562.87847  -1744422.05646                  21664412.6764
        26.0004         24.5004
  21034143.9534    3175249.87148   2474220.00947                  21034152.0434
        30.7504         27.7504
  21601674.2344   -2407600.09548  -1867301.36247                  21601683.4734
        29.7504         26.0004
 00  5  4 19  1 30.0000000  0  7G 4G 5G 6G 9G10G24G30
  23690575.8204    5427591.26746   4229290.06846                  23690584.5664
        13.7504         12.0004
  20365019.3834     642837.18548    502640.85047                  20365027.6844
        32.2504         28.2504
  23605169.0554   -2071233.90846
        12.7504
  24453778.8444    5170595.79845   4029018.27045                  24453798.1724
         9.7504         10.2504
  21661108.2504   -2266873.77447  -1757910.99946                  21661118.6484
        25.5004         24.2504
  21041976.5004    3216409.37648   2506292.34847                  21041984.5554
        30.7504         27.7504
  21597901.7814   -2427424.21448  -1882748.70047                  21597910.7734
        30.0004         26.2504
 00  5  4 19  1 45.0000000  0  7G 4G 5G 6G 9G10G24G30
  23702443.0394    5489953.97346   4277884.37345                  23702451.3754
        14.5004         11.7504
  20368003.6254     658518.98148    514860.42247                  20368011.8794
        32.2504         28.0004
  23601400.0704   -2091038.58746
        13.2504
  24464999.8914    5229561.22545   4074965.15645                  24465019.0084
         9.7504          9.7504
  21657843.6954   -2284026.40247  -1771276.61746                  21657854.0594
        26.0004         24.2504
  21049830.1564    3257681.18948   2538452.20047                  21049838.1414
        30.7504         27.7504
  21594156.0164   -2447108.04148  -1898086.72847                  21594165.1484
        29.7504         26.0004
 00  5  4 19  2  0.0000000  0  7G 4G 5G 6G 9G10G24G30
  23714319.2734    5552366.51246   4326517.52145                  23714326.6724
        13.5004         11.5004
  20371021.4064     674377.49248    527217.68547                  20371029.5664
        32.5004         28.0004
  23597640.3834   -2110797.09946     -8206.14156                  23597655.0354
        13.2504         13.0004
  24476227.7974    5288560.44145   4120938.34945                  24476247.6884
        10.0004          9.5004
  21654610.3054   -2301019.39947  -1784517.84946                  21654620.6684
        25.7504         24.5004
  21057705.5864    3299066.26148   2570700.30647                  21057713.6054
        30.7504         27.7504
  21590437.5554   -2466650.13848  -1913314.30147                  21590446.6884
        30.0004         26.2504
 00  5  4 19  2 15.0000000  0  7G 4G 5G 6G 9G10G24G30
  23726205.6724    5614827.59546   4375188.44045                  23726213.7974
        13.5004         11.2504
  20374072.5704     690411.83948    539711.96747                  20374080.8714
        32.5004         28.2504
  23593888.9064   -2130510.39246    -23567.08746                  23593903.4884
        13.2504         13.0004
  24487461.2194    5347592.13445   4166936.88045                  24487479.3164
        10.0004          9.5004
  21651406.7114   -2317853.40947  -1797635.20046                  21651416.8874
        26.0004         24.2504
  21065602.2034    3340563.29148   2603035.64747                  21065610.2464
        30.5004         27.7504
  21586745.3754   -2486051.24748  -1928432.02547                  21586754.5434
        30.0004         26.0004
 00  5  4 19  2 30.0000000  0  7G 4G 5G 6G 9G10G24G30
  23738100.3754    5677337.38446   4423897.32245                  23738108.4184
        13.5004         11.2504
  20377157.4304     706622.49848    552343.63547                  20377165.7774
        32.5004         28.5004
  23590146.0554   -2150178.04946    -38892.47546                  23590160.4964
        13.2504         12.2504
  24498700.5784    5406656.40545   4212960.80245                  24498719.1914
         9.5004          9.2504
  21648233.6564   -2334527.62847  -1810628.03846                  21648243.6684
        25.5004         24.5004
  21073520.1954    3382172.36848   2635458.30547                  21073528.4494
        30.5004         27.5004
  21583080.3754   -2505310.57448  -1943439.27147                  21583089.5434
        30.2504         26.0004
 00  5  4 19  2 45.0000000  0  7G 4G 5G 6G 9G10G24G30
  23750005.0164    5739894.80346   4472643.34645                  23750013.1644
        14.0004         10.7504
  20380275.6484     723008.62548    565112.03247                  20380283.9384
        32.5004         28.2504
  23586411.9924   -2169800.92746    -54182.98346                  23586425.8954
        13.5004         13.2504
  24509946.3834    5465752.02745   4259009.13045                  24509966.5204
        10.5004         10.0004
  21645090.8054   -2351042.63247  -1823496.80846                  21645101.1214
        26.0004         24.5004
  21081459.1644    3423892.41548   2667967.42647                  21081467.1604
        30.7504         27.7504
  21579442.3674   -2524428.76548  -1958336.53947                  21579451.5004
        29.7504         26.0004
 00  5  4 19  3  0.0000000  0  7G 4G 5G 6G 9G10G24G30
  23761918.5554    5802501.12346   4521427.48445                  23761926.8204
        13.2504         10.7504
  20383427.5394     739571.68748    578018.29647                  20383435.7814
        32.2504         28.2504
  23582687.1334   -2189377.57946    -69437.44546                  23582700.7194
        13.2504         12.7504
  24521199.1254    5524880.13945   4305082.77145                  24521218.1844
        10.7504          9.5004
  21641978.9144   -2367396.57347  -1836240.07846                  21641989.5704
        25.7504         24.7504
  21089419.6254    3465724.53648   2700563.88347                  21089427.7274
        30.7504         27.7504
  21575831.6724   -2543404.00548  -1973122.41647                  21575840.5594
        30.2504         26.0004
 00  5  4 19  3 15.0000000  0  7G 4G 5G 6G 9G10G24G30
  23773840.7974    5865151.65646   4570246.04645                  23773849.0274
        13.0004         10.7504
  20386612.2814     756307.29448    591059.01347                  20386620.3244
        32.0004         28.2504
  23578969.0784   -2208912.32746    -84659.27246                  23578982.5594
        13.2504         13.0004
  24532455.2894    5584036.05845   4351178.10945                  24532475.0864
         9.7504          9.5004
  21638896.6334   -2383593.60947  -1848861.09446                  21638907.0554
        26.0004         24.7504
  21097400.3284    3507664.07048   2733244.03747                  21097408.2894
        30.7504         27.7504
  21572247.0944   -2562240.46648  -1987800.16047                  21572256.0864
        30.0004         26.2504
 00  5  4 19  3 30.0000000  0  7G 4G 5G 6G 9G10G24G30
  23785771.9844    5927850.29246   4619102.09645                  23785780.4964
        13.7504         11.0004
  20389830.5314     773219.66348    604237.46547                  20389838.5864
        32.0004         28.2504
  23575260.9384   -2228400.94646    -99845.16246                  23575274.8054
        13.2504         13.0004
  24543719.1564    5643223.52145   4397298.01845                  24543738.2734
        10.0004          9.7504
  21635845.1414   -2399629.15647  -1861356.26346                  21635855.4804
        26.2504         25.0004
  21105402.4844    3549714.95148   2766010.95647                  21105410.4344
        31.0004         27.7504
  21568689.8834   -2580933.76248  -2002366.34247                  21568699.0864
        30.0004         26.0004
 00  5  4 19  3 45.0000000  0  7G 4G 5G 6G 9G10G24G30
  23797711.7194    5990594.43146   4667993.63145                  23797720.6644
        13.0004         11.2504
  20393082.2344     790306.53048    617551.88847                  20393090.4184
        32.2504         28.5004
  23571560.3834   -2247845.85846   -114996.96646                  23571574.7074
        13.2504         13.0004
  24554986.9224    5702439.78945   4443440.36345                  24555006.9654
         9.2504          9.5004
  21632824.0394   -2415505.34247  -1873727.25646                  21632834.4024
        26.5004         25.0004
  21113425.1024    3591874.57848   2798862.61547                  21113433.1684
        30.7504         27.7504
  21565159.6954   -2599485.70248  -2016822.37547                  21565168.7584
        30.0004         26.0004
 00  5  4 19  4  0.0000000  0  7G 4G 5G 6G 9G10G24G30
  23809660.3834    6053385.46246   4716921.66245                  23809669.0944
        13.5004         11.0004
  20396367.3284     807569.52948    631003.56047                  20396375.4304
        31.5004         28.2504
  23567869.1024   -2267245.50446   -130113.52646                  23567883.2034
        13.0004         13.0004
  24566262.4694    5761686.10245   4489606.12045                  24566282.3484
         9.7504          9.0004
  21629833.5784   -2431220.34647  -1885972.66146                  21629843.7424
        26.5004         25.0004
  21121468.6484    3634144.09648   2831799.90047                  21121476.6454
        30.5004         27.5004
  21561656.3674   -2617894.64248  -2031166.98647                  21561665.3364
        30.0004         26.0004
 00  5  4 19  4 15.0000000  0  7G 4G 5G 6G 9G10G24G30
  23821616.9144    6116219.01546   4765882.84645                  23821624.5234
        13.7504         10.7504
  20399685.1174     825004.57148    644589.28947                  20399693.2074
        31.7504         28.2504
  23564185.0474   -2286603.92046   -145197.95146                  23564199.3954
        13.2504         12.7504
  24577540.5394    5820958.04245   4535791.88645                  24577560.6054
        10.0004         10.0004
  21626872.9694   -2446777.92947  -1898095.39146                  21626883.2034
        26.2504         25.2504
  21129532.5394    3676519.27848   2864819.52347                  21129540.5124
        30.7504         27.5004
  21558179.7274   -2636164.17448  -2045402.96147                  21558188.7894
        30.0004         26.0004
 00  5  4 19  4 30.0000000  0  7G 4G 5G 6G 9G10G24G30
  23833582.5234    6179098.79846   4814880.07945                  23833590.7194
        13.0004         11.2504
  20403036.1644     842615.49648    658312.07347                  20403044.3364
        31.2504         28.5004
  23560510.0164   -2305917.22546   -160247.21646                  23560524.5634
        12.5004         13.2504
  24588825.8984    5880259.26045   4582000.43545                  24588845.3914
        10.0004          9.5004
  21623943.1804   -2462173.89947  -1910092.20146                  21623953.4964
        26.7504         25.5004
  21137616.9844    3719003.64048   2897924.22547                  21137625.0634
        30.7504         27.5004
  21554730.4534   -2654290.19448  -2059527.11047                  21554739.5394
        29.7504         26.0004
 00  5  4 19  4 45.0000000  0  7G 4G 5G 6G 9G10G24G30
  23845558.0474    6242025.67946   4863913.98845                  23845566.5354
        13.7504         11.0004
  20406421.2504     860403.70648    672172.99447                  20406429.4804
        31.5004         28.5004
  23556843.4384   -2325184.18646   -175260.38346                  23556857.7734
        13.2504         13.2504
  24600116.6484    5939590.54445   4628232.38445                  24600137.3404
        10.0004          9.0004
  21621044.3914   -2477406.77347  -1921961.91446                  21621054.6134
        27.0004         25.2504
  21145722.4614    3761598.15948   2931114.75847                  21145730.5514
        30.2504         27.2504
  21551308.7504   -2672271.22448  -2073538.28447                  21551317.7544
        30.0004         26.2504
 00  5  4 19  5  0.0000000  0  7G 4G 5G 6G 9G10G24G30
  23857539.9224    6304996.18346   4912981.87045                  23857548.7624
        13.0004         11.2504
  20409839.3914     878365.94448    686169.52647                  20409847.7384
        30.5004         28.5004
  23553185.3134   -2344408.13546   -190240.01846                  23553199.8244
        13.2504         13.0004
  24611412.1334    5998948.21445   4674484.96745                  24611432.3054
         9.2504          9.2504
  21618176.2734   -2492479.49347  -1933706.84146                  21618186.3324
        27.0004         25.2504
  21153848.2034    3804299.21448   2964388.30547                  21153856.3404
        30.2504         27.5004
  21547914.2424   -2690110.18648  -2087438.75747                  21547923.2934
        30.0004         26.0004
 00  5  4 19  5 15.0000000  0  7G 4G 5G 6G 9G10G24G30
  23869531.0784    6368008.05746   4962082.01845                  23869538.2774
        13.0004         10.2504
  20413290.1094     896500.23948    700300.12547                  20413298.3524
        31.2504         28.5004
  23549534.7344   -2363591.03446   -205187.67346                  23549548.8364
        13.0004         13.2504
  24622711.1094    6058329.92245   4720756.25845                  24622730.4264
         9.7504          9.5004
  21615338.1174   -2507393.67947  -1945328.22546                  21615348.3164
        26.7504         25.2504
  21161993.8054    3847104.58248   2997743.14047                  21162002.0234
        30.2504         27.5004
  21544546.1564   -2707808.96048  -2101229.98747                  21544555.1024
        30.2504         26.2504
 00  5  4 19  5 30.0000000  0  7G 4G 5G 6G 9G10G24G30
  23881530.2194    6431061.79546   5011214.77745                  23881538.3914
        13.7504         11.0004
  20416773.9304     914807.31548    714565.36147                  20416782.1724
        31.7504         28.5004
  23545892.4144   -2382732.21246   -220102.81746                  23545907.1484
        14.0004         13.2504
  24634016.5394    6117736.09445   4767046.60845                  24634035.7384
         9.7504          8.7504
  21612530.3444   -2522148.44147  -1956825.39346                  21612540.5554
        27.0004         25.2504
  21170159.3204    3890014.71748   3031179.61147                  21170167.4574
        30.5004         27.5004
  21541204.9924   -2725366.53448  -2114911.20047                  21541213.9844
        30.2504         26.2504
 00  5  4 19  5 45.0000000  0  7G 4G 5G 6G 9G10G24G30
  23893538.1094    6494162.69446   5060384.27145                  23893546.2704
        14.2504         11.2504
  20420291.6884     933292.69248    728969.53247                  20420299.8954
        31.5004         28.5004
  23542258.9384   -2401826.19146   -234981.16446                  23542272.8524
        13.5004         13.5004
  24645327.3134    6177171.92145   4813360.03445                  24645346.9104
         9.5004          9.5004
  21609753.8284   -2536737.97547  -1968193.80846                  21609764.2974
        26.7504         25.5004
  21178345.8594    3933034.66548   3064701.64647                  21178354.0084
        30.5004         27.7504
  21537891.8834   -2742777.14448  -2128477.88647                  21537900.5944
        30.2504         26.5004
 00  5  4 19  6  0.0000000  0  7G 4G 5G 6G 9G10G24G30
  23905552.3754    6557302.17946   5109583.86645                  23905561.0984
        12.2504         10.5004
  20423841.7664     951947.99348    743506.10847                  20423849.7624
        31.2504         28.5004
  23538632.7344   -2420881.21846   -249829.16746                  23538645.7464
        14.5004         13.7504
  24656640.5164    6236628.64645   4859689.79045                  24656659.6094
         9.0004          9.5004
  21607007.7034   -2551170.35547  -1979439.76446                  21607018.0204
        27.0004         25.5004
  21186551.2974    3976155.91948   3098302.62047                  21186559.3404
        30.5004         27.5004
  21534605.1804   -2760048.85248  -2141936.34547                  21534614.1844
        30.5004         26.5004
 00  5  4 19  6 15.0000000  0  7G 4G 5G 6G 9G10G24G30
  23917575.2664    6620482.18046   5158814.98945                  23917584.5744
        13.0004         11.5004
  20427424.2504     970775.50748    758176.88247                  20427432.2934
        31.7504         28.5004
  23535014.3594   -2439895.09446   -264645.12846                  23535027.9574
        14.0004         13.5004
  24667960.8054    6296108.15245   4906037.26345                  24667979.1844
        10.0004          8.5004
  21604291.2424   -2565442.98347  -1990561.24346                  21604301.3014
        26.7504         25.5004
  21194776.7424    4019380.39748   3131984.03747                  21194784.8094
        30.5004         27.5004
  21531345.5004   -2777179.06248  -2155284.54447                  21531354.4804
        30.7504         26.5004
 00  5  4 19  6 30.0000000  0  7G 4G 5G 6G 9G10G24G30
  23929606.2814    6683704.64946   5208079.23045                  23929614.4774
        13.2504         11.2504
  20431040.4454     989777.32948    772983.47447                  20431048.5594
        32.5004         28.5004
  23531404.3594   -2458865.73946   -279427.36846                  23531418.2854
        14.0004         13.0004
  24679283.9924    6355612.26945   4952403.95445                  24679305.2114
         9.5004          9.0004
  21601606.3054   -2579553.44747  -2001556.35946                  21601616.3404
        27.0004         25.5004
  21203022.2344    4062709.95248   3165747.32447                  21203030.3484
        30.5004         27.5004
  21528112.9144   -2794165.48248  -2168520.69747                  21528121.8834
        30.5004         26.7504
 00  5  4 19  6 45.0000000  0  7G 4G 5G 6G 9G10G24G30
  23941645.8524    6746972.58646   5257378.89445                  23941653.5434
        13.2504         11.5004
  20434690.1024    1008956.80448    787928.50347                  20434698.2854
        32.0004         28.2504
  23527803.1094   -2477789.73746   -294173.26246                  23527816.4384
        14.0004         13.0004
  24690612.4924    6415143.88645   4998792.05845                  24690631.4574
         9.5004          8.5004
  21598952.5784   -2593498.17447  -2012422.32646                  21598962.6844
        26.7504         25.5004
  21211288.0394    4106147.57548   3199594.82547                  21211296.1524
        30.2504         27.5004
  21524908.6484   -2811004.41348  -2181641.92947                  21524917.4654
        31.2504         26.7504
 00  5  4 19  7  0.0000000  0  8G 4G 5G 6G17G 9G10G24G30
  23953693.1804    6810281.73946   5306710.68645                  23953700.4494
        13.5004         10.2504
  20438372.9144    1028309.93348    803008.84447                  20438381.0044
        32.2504         28.5004
  23524210.0474   -2496671.18446   -308886.02746                  23524223.3054
        14.2504         13.2504
  25223251.7894     -23141.66944
         7.2504
  24701944.1174    6474698.58745   5045198.15745                  24701965.1724
         9.0004          9.0004
  21596329.7664   -2607280.98347  -2023162.12247                  21596339.6954
        27.2504         25.7504
  21219573.4224    4149688.92548   3233523.15447                  21219581.6524
        30.0004         27.2504
  21521731.7504   -2827699.67348  -2194651.20547                  21521740.4264
        31.5004         27.0004
 00  5  4 19  7 15.0000000  0  8G 4G 5G 6G17G 9G10G24G30
  23965748.3054    6873631.31646   5356073.99445                  23965756.4304
        12.2504         10.5004
  20442088.6644    1047836.29048    818224.16247                  20442096.5784
        31.7504         28.5004
  23520624.9064   -2515510.55646   -323565.96546                  23520638.3284
        13.7504         13.0004
  25217258.4384     -54638.41945
         8.2504
  24713282.6884    6534275.57045   5091621.56245                  24713301.5354
         9.7504          8.7504
  21593737.8444   -2620901.99247  -2033775.84846                  21593747.7854
        27.2504         25.5004
  21227878.7584    4193333.25748   3267531.71947                  21227886.8484
        30.0004         27.2504
  21518582.1564   -2844251.45748  -2207548.68747                  21518591.0434
        31.2504         27.0004
 00  5  4 19  7 30.0000000  0  8G 4G 5G 6G17G 9G10G24G30
  23977811.1484    6937021.13546   5405468.59845                  23977819.9184
        12.2504         10.2504
  20445837.4064    1067535.89948    833574.48747                  20445845.5204
        32.0004         28.5004
  23517047.7664   -2534307.83746   -338213.13846                  23517061.1054
        13.5004         13.7504
  25211278.0394     -86062.71944
         6.7504
  24724624.1954    6593874.52745   5138062.14245                  24724645.2734
         9.2504          8.7504
  21591176.5234   -2634360.89447  -2044263.25847                  21591186.3014
        27.2504         25.7504
  21236203.7974    4237080.27648   3301620.30547                  21236211.9574
        30.2504         27.5004
  21515459.6024   -2860659.64848  -2220334.27747                  21515468.3244
        31.2504         27.2504
 00  5  4 19  7 45.0000000  0  8G 4G 5G 6G17G 9G10G24G30
  23989881.2114    7000451.36346   5454894.72245                  23989889.5234
        12.7504         11.0004
  20449619.1804    1087409.03748    849060.02947                  20449627.3524
        32.2504         28.2504
  23513478.7424   -2553062.68046   -352827.24746                  23513492.5044
        13.2504         13.2504
  25205312.4924    -117413.92145
         8.2504
  24735969.4224    6653495.40545   5184519.82745                  24735988.7624
         9.2504          9.2504
  21588646.4304   -2647657.13847  -2054623.91546                  21588656.4774
        27.5004         25.5004
  21244547.9064    4280930.04748   3335788.95747                  21244556.1024
        30.2504         27.2504
  21512364.8054   -2876923.26648  -2233007.21247                  21512373.4924
        31.7504         27.0004
 00  5  4 19  8  0.0000000  0  8G 4G 5G 6G17G 9G10G24G30
  24001958.4064    7063915.88846   5504347.58445                  24001967.1524
        12.7504         11.0004
  20453432.6804    1107450.08648    864676.40947                  20453440.8984
        32.2504         28.2504
  23509916.7194   -2571780.81146   -367412.72946                  23509931.3954
        13.5004         13.5004
  25199359.8674    -148697.70745
         8.0004
  24747318.5554    6713132.04145   5230989.72145                  24747337.3914
        10.5004          9.0004
  21586146.1564   -2660796.14247  -2064862.04847                  21586156.0044
        27.5004         26.0004
  21252910.9304    4324876.55048   3370032.98247                  21252919.0204
        30.2504         27.2504
  21509296.1724   -2893047.99748  -2245571.93047                  21509304.9184
        31.5004         27.2504
 00  5  4 19  8 15.0000000  0  8G 4G 5G 6G17G 9G10G24G30
  24014043.0474    7127421.08646   5553832.10845                  24014051.2424
        12.2504         10.2504
  20457279.6024    1127665.43648    880428.60947                  20457287.8444
        31.7504         28.7504
  23506363.3284   -2590455.73046   -381964.55946                  23506377.7814
        13.2504         13.2504
  25193419.6884    -179907.36744    -16205.87255                  25193442.3714
         7.0004          7.5004
  24758671.1334    6772790.81445   5277476.92645                  24758692.3754
         9.0004          9.2504
  21583677.0084   -2673771.12747  -2074972.37647                  21583686.7624
        27.5004         26.0004
  21261293.0944    4368925.92348   3404357.17147                  21261301.1484
        30.5004         27.5004
  21506255.6094   -2909027.04348  -2258023.12147                  21506264.5434
        31.7504         27.5004
 00  5  4 19  8 30.0000000  0  8G 4G 5G 6G17G 9G10G24G30
  24026135.3444    7190967.05845   5603348.43745                  24026143.9264
        11.5004         10.0004
  20461159.7424    1148055.59548    896317.01947                  20461167.9494
        31.7504         28.5004
  23502817.8444   -2609086.97846   -396482.34046                  23502832.2154
        13.2504         13.5004
  25187494.9064    -211042.44645    -40466.78945                  25187516.3014
         7.5004          8.2504
  24770027.5864    6832471.66945   5323981.26445                  24770048.2074
         8.2504          9.0004
  21581239.1724   -2686581.45647  -2084954.40247                  21581249.0434
        27.2504         26.0004
  21269695.0394    4413078.40648   3438761.70247                  21269703.0944
        30.2504         27.2504
  21503242.6414   -2924859.71348  -2270360.25647                  21503251.5164
        31.7504         27.2504
 00  5  4 19  8 45.0000000  0  8G 4G 5G 6G17G 9G10G24G30
  24038235.4144    7254549.66545   5652893.29745                  24038243.6214
        11.5004         10.0004
  20465072.4454    1168616.45048    912338.44347                  20465080.7584
        31.7504         28.7504
  23499279.9144   -2627678.58646   -410969.24946                  23499293.8754
        13.5004         13.5004
  25181583.1254    -242107.00045    -64672.74345                  25181600.8954
         7.5004          7.2504
  24781387.3134    6892170.26945   5370499.50245                  24781408.0394
         8.5004          9.2504
  21578832.2584   -2699230.76047  -2094810.95347                  21578842.1644
        27.2504         26.0004
  21278115.7034    4457329.61448   3473243.16347                  21278123.9454
        29.7504         27.5004
  21500256.9454   -2940549.76148  -2282586.25347                  21500265.9614
        31.7504         27.5004
 00  5  4 19  9  0.0000000  0  8G 4G 5G 6G17G 9G10G24G30
  24050341.5084    7318168.74046   5702466.56945                  24050349.3284
        12.0004         10.5004
  20469017.6644    1189348.22748    928493.05447                  20469025.8594
        31.2504         28.7504
  23495749.4694   -2646230.33446   -425425.08946                  23495763.5704
        14.0004         13.7504
  25175685.0164    -273100.48244    -88823.39145                  25175706.8444
         6.5004          8.0004
  24792752.2194    6951886.57745   5417031.47745                  24792771.0434
         9.7504          8.7504
  21576455.9694   -2711718.53147  -2104541.63647                  21576465.8634
        27.7504         26.2504
  21286555.1564    4501679.49748   3507801.51047                  21286563.4344
        29.5004         27.0004
  21497298.4534   -2956096.66448  -2294700.71447                  21497307.3524
        31.5004         27.5004
 00  5  4 19  9 15.0000000  0  8G 4G 5G 6G17G 9G10G24G30
  24062455.2344    7381827.51345   5752070.80145                  24062463.9924
        11.5004         10.0004
  20472995.9144    1210254.30148    944783.47747                  20473004.2274
        32.0004         28.7504
  23492227.2034   -2664738.84246   -439847.24446                  23492240.5314
        14.2504         14.0004
  25169801.8134    -304019.42545   -112915.94045                  25169822.7974
         7.7504          7.7504
  24804118.3524    7011623.45844   5463579.55645                  24804141.9844
         7.0004          8.0004
  21574110.6804   -2724041.20147  -2114143.67047                  21574120.5274
        27.2504         26.2504
  21295014.0864    4546131.15048   3542439.15947                  21295022.4454
        30.2504         27.0004
  21494367.8984   -2971496.91448  -2306700.89547                  21494376.6804
        31.7504         27.5004
 00  5  4 19  9 30.0000000  0  8G 4G 5G 6G17G 9G10G24G30
  24074576.1334    7445528.08745   5801707.57045                  24074584.5634
        11.0004          9.7504
  20477007.9924    1231337.17948    961211.67047                  20477016.2704
        31.5004         28.7504
  23488713.8914   -2683201.64346   -454233.77246                  23488728.2734
        14.7504         14.0004
  25163932.9384    -334861.21345   -136948.30845                  25163955.6094
         7.5004          8.5004
  24815491.2344    7071382.99545   5510145.20645                  24815512.4654
         8.5004          8.7504
  21571797.7664   -2736196.07647  -2123614.95247                  21571807.4964
        27.7504         26.2504
  21303492.6024    4590686.67148   3577157.74347                  21303500.8324
        29.7504         27.0004
  21491465.8834   -2986747.71248  -2318584.62247                  21491474.6994
        31.5004         27.5004
 00  5  4 19  9 45.0000000  0  7G 4G 5G 6G 9G10G24G30
  24086705.2584    7509263.55345   5851371.52945                  24086714.6484
        11.5004         10.7504
  20481052.1094    1252590.12748    977772.38847                  20481060.5164
        32.0004         28.7504
  23485208.3444   -2701625.48446   -468589.94046                  23485221.4024
        15.0004         14.2504
  24826866.8444    7131158.12845   5556723.04445                  24826890.7344
         9.2504          9.2504
  21569515.3984   -2748189.68047  -2132960.56947                  21569525.3164
        27.5004         26.2504
  21311989.6254    4635339.04148   3611951.79747                  21311997.8794
        29.7504         27.0004
  21488590.8364   -3001855.59948  -2330356.98847                  21488599.6414
        31.5004         27.5004
 00  5  4 19 10  0.0000000  0  8G 4G 5G 6G17G 9G10G24G30
  24098840.1024    7573035.97345   5901064.28845                  24098849.0234
        11.5004          9.7504
  20485129.4454    1274015.50648    994467.46247                  20485137.6994
        32.0004         28.7504
  23481709.6094   -2720008.07846   -482913.98046                  23481723.2074
        15.0004         13.5004
  25152234.0944     -10223.28853
         5.2504
  24838244.5944    7190950.82645   5603314.62045                  24838264.8014
         8.0004          8.5004
  21567264.3054   -2760019.44147  -2142178.51347                  21567274.1524
        27.5004         26.0004
  21320505.5864    4680090.26448   3646822.87747                  21320513.9694
        29.7504         26.7504
  21485743.5634   -3016817.96648  -2342015.96847                  21485752.4494
        31.7504         27.7504
 00  5  4 19 10 15.0000000  0  8G 4G 5G 6G17G 9G10G24G30
  24110983.3594    7636846.02946   5950786.39445                  24110991.4384
        12.2504         10.2504
  20489239.3914    1295614.26248   1011297.64347                  20489247.7854
        32.0004         28.7504
  23478220.0164   -2738348.38446   -497205.05546                  23478233.2854
        15.7504         14.2504
  25146408.5314     -40848.02444
         6.5004
  24849626.3204    7250761.74145   5649920.34445                  24849648.2544
         7.7504          9.0004
  21565044.4064   -2771684.09247  -2151267.80647                  21565054.3714
        27.7504         26.0004
  21329040.5004    4724941.02148   3681771.51847                  21329048.6844
        30.0004         27.0004
  21482924.4144   -3031633.41248  -2353560.45647                  21482933.2544
        32.0004         27.7504
 00  5  4 19 10 30.0000000  0  8G 4G 5G 6G17G 9G10G24G30
  24123132.4924    7700693.47345   6000537.63745                  24123140.3714
        11.5004         10.0004
  20493382.3524    1317386.23548   1028262.79347                  20493390.7704
        32.0004         28.7504
  23474737.6804   -2756646.49346   -511463.26246                  23474750.7734
        15.2504         14.0004
  25140592.4534     -71398.68444
         6.2504
  24861013.0554    7310590.43145   5696539.88845                  24861033.8754
         8.7504          8.5004
  21562856.2114   -2783183.38547  -2160228.24347                  21562866.3164
        27.2504         26.2504
  21337594.1334    4769891.03448   3716797.49847                  21337602.3164
        30.2504         26.7504
  21480133.0314   -3046301.71248  -2364990.29347                  21480141.8954
        32.0004         27.7504
 00  5  4 19 10 45.0000000  0  8G 4G 5G 6G17G 9G10G24G30
  24135289.4774    7764578.16045   6050317.89545                  24135298.1174
        11.2504         10.2504
  20497558.4924    1339331.33648   1045362.84747                  20497566.8634
        32.5004         28.7504
  23471263.7194   -2774902.43546   -525688.60346                  23471276.3674
        15.0004         13.7504
  25134794.7344    -101875.31245
         7.5004
  24872400.2894    7370436.51045   5743173.05045                  24872423.8524
         7.5004          8.7504
  21560699.4384   -2794517.10247  -2169059.66647                  21560709.4614
        27.7504         26.2504
  21346166.6024    4814939.88748   3751900.50147                  21346174.5274
        30.0004         26.7504
  21477369.7584   -3060822.79148  -2376305.40747                  21477378.8444
        31.5004         27.7504
 00  5  4 19 11  0.0000000  0  8G 4G 5G 6G17G 9G10G24G30
  24147453.1174    7828502.99645   6100129.40945                  24147462.3094
        11.2504         10.0004
  20501768.1254    1361452.83148   1062600.35347                  20501776.4024
        32.0004         28.5004
  23467798.4144   -2793112.95746   -539878.54146                  23467811.9774
        14.7504         14.5004
  25129010.1334    -132274.67844
         6.5004
  24883792.7584    7430302.92445   5789822.02445                  24883814.4454
         8.7504          8.2504
  21558574.9614   -2805681.71347  -2177759.31447                  21558584.7734
        27.7504         26.5004
  21354758.5944    4860090.62148   3787082.89047                  21354766.8834
        30.0004         26.7504
  21474635.2504   -3075193.21648  -2387503.13547                  21474644.2074
        31.7504         27.7504
 00  5  4 19 11 15.0000000  0  8G 4G 5G 6G17G 9G10G24G30
  24159625.9304    7892463.47146   6149968.69445                  24159634.5944
        12.0004         10.0004
  20506010.5944    1383746.48748   1079972.00847                  20506018.9534
        32.2504         28.7504
  23464340.6804   -2811282.22946   -554036.35546                  23464354.2544
        14.5004         14.2504
  25123234.0394    -162600.62441    -15746.77655                  25123255.0124
         3.2504          6.7504
  24895188.6174    7490185.25645   5836483.38445                  24895211.4884
         9.0004          9.0004
  21556481.6564   -2816681.09948  -2186330.21447                  21556491.3404
        28.2504         26.5004
  21363368.9924    4905338.67248   3822341.10947                  21363377.0704
        29.7504         26.7504
  21471928.2814   -3089416.83848  -2398586.46147                  21471937.3674
        31.5004         28.0004
 00  5  4 19 11 30.0000000  0  8G 4G 5G 6G17G 9G10G24G30
  24171803.1254    7956460.25045   6199836.27845                  24171811.8364
        11.7504         10.5004
  20510285.6414    1406213.18548   1097478.50547                  20510294.1054
        32.5004         28.7504
  23460891.2584   -2829409.44446   -568161.40146                  23460904.7154
        14.2504         14.0004
  25117481.9534                     -10074.54954
         7.2504
  24906585.0784    7550083.68644   5883157.30945                  24906604.3834
         7.2504          7.5004
  21554420.1644   -2827514.32648  -2194771.64647                  21554430.0124
        28.0004         26.2504
  21371997.9844    4950684.54448   3857675.55147                  21372006.0394
        30.0004         27.0004
  21469249.7814   -3103492.68448  -2409554.64447                  21469258.7734
        31.5004         28.0004
 00  5  4 19 11 45.0000000  0  8G 4G 5G 6G17G 9G10G24G30
  24183988.9064    8020492.34445   6249731.41745                  24183997.9224
        11.2504         10.0004
  20514593.8914    1428852.08948   1115119.18547                  20514602.2734
        32.0004         28.7504
  23457449.0704   -2847495.44846   -582254.32346                  23457463.1134
        14.0004         13.7504
  25111737.4144                     -40252.83543
         5.5004
  24917988.6414    7609997.18945   5929843.00745                  24918010.4574
         8.7504          8.0004
  21552390.2194   -2838181.91448  -2203084.00447                  21552400.0434
        28.0004         26.5004
  21380645.4774    4996127.17648   3893085.39447                  21380653.6254
        30.0004         26.7504
  21466599.4304   -3117421.13948  -2420407.97247                  21466608.3984
        31.5004         28.0004
 00  5  4 19 12  0.0000000  0  8G 4G 5G 6G17G 9G10G24G30
  24196179.8754    8084558.54745   6299653.07445                  24196188.3524
        11.2504          9.5004
  20518934.4304    1451662.31048   1132893.36447                  20518942.8014
        32.5004         28.7504
  23454015.3364   -2865540.99146   -596315.72446                  23454028.5124
        14.2504         14.0004
  25106009.2504                     -70358.37344
         6.2504
  24929391.8674    7669924.53445   5976539.45845                  24929413.4964
         8.5004          8.0004
  21550391.6334   -2848684.40047  -2211267.71347                  21550401.3404
        27.7504         26.5004
  21389311.1564    5041665.43048   3928569.74847                  21389319.2234
        30.0004         27.0004
  21463976.8524   -3131202.93048  -2431147.01847                  21463985.9024
        31.5004         28.0004
 00  5  4 19 12 15.0000000  0  8G 4G 5G 6G17G 9G10G24G30
  24208377.2584    8148658.44245   6349601.03745                  24208385.8284
        11.2504         10.0004
  20523307.7734    1474643.66448   1150800.88747                  20523316.2504
        32.2504         28.5004
  23450589.1174   -2883546.31546   -610345.79146                  23450603.5004
        14.5004         14.0004
  25100294.0394                    -100391.20344
         6.2504
  24940797.6644    7729865.24245   6023246.36145                  24940820.6174
         7.7504          8.7504
  21548424.4304   -2859021.71547  -2219322.71847                  21548434.2424
        27.7504         26.5004
  21397995.0004    5087298.87048   3964128.26747                  21398003.1024
        30.0004         27.0004
  21461382.1024   -3144837.86648  -2441771.63347                  21461391.1764
        31.7504         28.0004
 00  5  4 19 12 30.0000000  0  8G 4G 5G 6G17G 9G10G24G30
  24220583.1564    8212795.33146   6399577.80345                  24220591.1414
        12.2504         10.2504
  20527714.2194    1497799.53048   1168844.39147                  20527722.7664
        32.5004         28.7504
  23447171.0084   -2901508.04746   -624341.87546                  23447184.9454
        14.5004         13.7504
  25094592.8364                    -130347.93142
         4.7504
  24952208.1724    7789822.40345   6069966.01045                  24952230.1764
         8.0004          8.2504
  21546489.4304   -2869190.31247  -2227246.25047                  21546499.1724
        27.7504         26.7504
  21406697.3674    5133030.48648   3999763.28847                  21406705.5394
        30.5004         27.0004
  21458815.9694   -3158322.33648  -2452278.99947                  21458824.9964
        32.0004         28.0004
 00  5  4 19 12 45.0000000  0  8G 4G 5G 6G17G 9G10G24G30
  24232794.7034    8276966.47746   6449581.26845                  24232802.3954
        12.2504         10.0004
  20532153.2814    1521127.45148   1187021.97047                  20532161.7934
        32.2504         28.7504
  23443760.7894   -2919428.53346   -638305.83546                  23443774.5984
        15.0004         14.2504
  25088907.4304    -160230.64045    -13963.71455                  25088929.4574
         8.0004          7.5004
  24963620.3834    7849793.21445   6116696.37945                  24963643.7234
         7.5004          8.5004
  21544586.0084   -2879192.24747  -2235039.91747                  21544595.7854
        27.5004         26.5004
  21415418.0234    5178857.72748   4035472.82747                  21415426.0084
        30.5004         27.2504
  21456278.2664   -3171658.44248  -2462670.76047                  21456287.3284
        31.7504         28.2504
 00  5  4 19 13  0.0000000  0  8G 4G 5G 6G17G 9G10G24G30
  24245011.9694    8341170.58245   6499610.43345                  24245020.8204
        11.0004          9.5004
  20536625.0634    1544626.25048   1205332.69547                  20536633.4104
        32.5004         28.7504
  23440358.4614   -2937308.90246   -652238.51746                  23440372.2584
        15.2504         14.2504
  25083234.5944    -190040.61945    -37192.14445                  25083257.1954
         7.5004          7.5004
  24975035.1644    7909776.15545   6163436.14345                  24975055.3244
         9.5004          8.0004
  21542714.1724   -2889028.46147  -2242704.45347                  21542724.0554
        27.7504         26.5004
  21424156.5784    5224779.04548   4071255.66847                  21424164.7974
        30.5004         26.7504
  21453768.7114   -3184847.08748  -2472947.61247                  21453777.8204
        31.5004         28.0004
 00  5  4 19 13 15.0000000  0  8G 4G 5G 6G17G 9G10G24G30
  24257235.2664    8405406.72145   6549664.53445                  24257243.2854
        11.0004          9.7504
  20541129.1414    1568295.25548   1223776.05247                  20541137.5354
        31.7504         28.7504
  23436962.8524   -2955149.83746   -666140.48846                  23436976.0164
        15.7504         14.5004
  25077574.9774    -219778.14944    -60364.15745                  25077596.1844
         7.2504          8.0004
  24986450.4534    7969770.34345   6210184.71745                  24986471.5784
         7.5004          7.7504
  21540873.7734   -2898699.33048  -2250240.14747                  21540883.4924
        28.0004         26.5004
  21432912.8204    5270793.62148   4107111.17947                  21432921.0864
        30.2504         27.0004
  21451286.8134   -3197888.68348  -2483109.88447                  21451295.8984
        31.5004         28.0004
 00  5  4 19 13 30.0000000  0  8G 4G 5G 6G17G 9G10G24G30
  24269466.4844    8469677.67145   6599745.73745                  24269476.4734
        11.7504          9.5004
  20545666.1804    1592137.44848   1242354.35647                  20545674.6564
        32.5004         29.0004
  23433576.7504   -2972948.34646   -680009.39646                  23433589.5164
        16.0004         14.2504
  25071930.7194    -249440.23745    -83477.36445                  25071949.2854
         7.5004          6.5004
  24997870.1334    8029778.37445   6256944.05945                  24997891.9494
         8.0004          8.2504
  21539065.5634   -2908201.63447  -2257644.49147                  21539075.2344
        27.5004         26.5004
  21441687.2894    5316903.98548   4143041.33047                  21441695.4384
        30.0004         26.7504
  21448833.7344   -3210780.04148  -2493155.08447                  21448842.9614
        31.5004         28.0004
 00  5  4 19 13 45.0000000  0  8G 4G 5G 6G17G 9G10G24G30
  24281703.0554    8533984.81745   6649855.19445                  24281711.0274
        11.0004          9.5004
  20550236.3674    1616154.42848   1261068.85947                  20550244.7854
        32.2504         29.0004
  23430197.5634   -2990702.72646   -693843.91246                  23430210.0474
        16.0004         14.7504
  25066301.3284    -279025.10045   -106530.41145                  25066321.3244
         7.5004          7.7504
  25009293.2974    8089801.55145   6303715.19145                  25009315.8524
         7.7504          8.2504
  21537289.6174   -2917533.42347  -2264915.96547                  21537299.2894
        27.5004         26.5004
  21450480.3754    5363111.64048   4179047.29147                  21450488.5944
        29.7504         27.0004
  21446409.2664   -3223519.21748  -2503081.70547                  21446418.4344
        31.2504         28.2504
 00  5  4 19 14  0.0000000  0  8G 4G 5G 6G17G 9G10G24G30
  24293947.4224    8598325.23045   6699990.54845                  24293957.1414
        11.5004          9.5004
  20554839.4534    1640343.52648   1279917.47847                  20554847.8014
        32.0004         28.7504
  23426827.0084   -3008415.56146   -707646.06346                  23426839.7384
        16.0004         14.5004
  25060683.5234    -308535.25743   -129525.30845                  25060704.9064
         5.7504          6.7504
  25020717.0784    8149836.82445   6350495.72645                  25020737.9804
         8.7504          8.0004
  21535545.9614   -2926697.12947  -2272056.47047                  21535555.6684
        27.7504         26.5004
  21459291.4144    5409413.55748   4215126.70047                  21459299.5744
        30.2504         26.5004
  21444013.8134   -3236108.62148  -2512891.61647                  21444023.0984
        31.7504         28.2504
 00  5  4 19 14 15.0000000  0  8G 4G 5G 6G17G 9G10G24G30
  24306197.2734    8662698.84145   6750151.80845                  24306206.5474
        11.2504          9.2504
  20559475.4304    1664704.86248   1298900.31147                  20559483.8714
        32.2504         29.0004
  23423464.3984   -3026086.66546   -721415.68246                  23423477.0704
        16.0004         14.5004
  25055084.5474    -337970.59945   -152461.74845                  25055105.3914
         9.2504          7.0004
  25032143.6484    8209884.20245   6397285.78545                  25032164.2934
         7.7504          7.2504
  21533834.0704   -2935692.32947  -2279065.67347                  21533843.7894
        27.5004         26.7504
  21468120.0944    5455809.58048   4251279.44247                  21468128.1954
        30.2504         26.7504
  21441646.7114   -3248547.77048  -2522584.45247                  21441655.8094
        31.2504         28.0004
 00  5  4 19 14 30.0000000  0  8G 4G 5G 6G17G 9G10G24G30
  24318452.2274    8727100.72345   6800335.05345                  24318461.8164
        11.0004          9.5004
  20564143.0164    1689233.64148   1318013.62047                  20564151.5394
        32.0004         29.0004
  23420108.3134   -3043720.90346   -735156.58646                  23420121.5474
        15.2504         14.5004
  25049495.1174    -367335.72644   -175343.62045                  25049519.0204
         7.0004          8.0004
  25043572.4224    8269938.47044   6444081.12645                  25043596.9804
         6.7504          7.5004
  21532153.4384   -2944523.61647  -2285947.14347                  21532163.2274
        27.7504         26.7504
  21476966.0864    5502294.71148   4287501.61847                  21476974.1884
        30.5004         26.7504
  21439307.2034   -3260841.29748  -2532163.80447                  21439316.4184
        31.7504         28.0004
 00  5  4 19 14 45.0000000  0  8G 4G 5G 6G17G 9G10G24G30
  24330714.3834    8791538.36945   6850546.17445                  24330722.4264
        11.5004          9.0004
  20568843.8834    1713937.57048   1337263.40747                  20568852.3594
        32.5004         29.0004
  23416761.2664   -3061310.57546   -748862.76146                  23416774.0784
        15.5004         14.2504
  25043923.4774    -396622.81245   -198164.56245                  25043944.4964
         9.5004          8.2504
  25055003.4064    8330006.80745   6490887.42445                  25055021.7274
         8.7504          7.7504
  21530505.8054   -2953183.10247  -2292694.74747                  21530515.5474
        27.7504         26.5004
  21485830.2274    5548876.29648   4323798.95147                  21485838.3284
        30.5004         26.7504
  21436997.2274   -3272981.16948  -2541623.43747                  21437006.3364
        31.5004         28.0004
 00  5  4 19 15  0.0010000  0  8G 4G 5G 6G17G 9G10G24G30
  24342982.9034    8856010.20745   6900783.94545                  24342990.5834
        11.0004         10.0004
  20573577.6534    1738812.60448   1356646.52347                  20573586.1654
        31.5004         29.0004
  23413420.9354   -3078862.37546   -762539.44146                  23413434.5094
        14.7504         14.0004
  25038362.8494    -425839.40345   -220930.67545                  25038380.6884
         9.2504          6.7504
  25066436.9664    8390087.51145   6537703.46145                  25066460.1424
         8.5004          8.0004
  21528889.4034   -2961676.71347  -2299313.09847                  21528899.1924
        27.7504         26.7504
  21494712.3104    5595551.60848   4360169.31847                  21494720.1884
        30.5004         26.7504
  21434714.9584   -3284973.56848  -2550968.15447                  21434724.0674
        31.5004         28.2504
 00  5  4 19 15 15.0010000  0  8G 4G 5G 6G17G 9G10G24G30
  24355256.2784    8920507.28345   6951041.39045                  24355264.1924
        11.2504          9.2504
  20578343.1614    1763855.42148   1376160.37847                  20578351.8374
        32.2504         29.0004
  23410088.7164   -3096374.03846   -776184.81046                  23410102.9354
        14.7504         14.2504
  25032816.9584    -454981.50045   -243638.72645                  25032838.6344
         7.7504          7.2504
  25077868.1854    8450172.02345   6584522.37545                  25077891.3494
         7.5004          8.7504
  21527304.9664   -2970002.95147  -2305801.02447                  21527314.6144
        27.7504         26.7504
  21503610.8334    5642314.06948   4396607.59547                  21503618.6534
        30.7504         27.0004
  21432461.3254   -3296816.61348  -2560196.48947                  21432470.3994
        31.7504         28.0004
 00  5  4 19 15 30.0010000  0  8G 4G 5G 6G17G 9G10G24G30
  24367536.3024    8985033.77845   7001321.72945                  24367545.8214
        11.2504          9.2504
  20583140.8104    1789067.65748   1395806.24847                  20583149.3684
        31.2504         29.0004
  23406763.6384   -3113846.63246   -789799.75846                  23406777.8564
        14.2504         14.2504
  25027284.7244    -484050.80845   -266290.02545                  25027306.1064
         7.5004          7.2504
  25089304.9504    8510264.12345   6631347.21345                  25089330.1534
         8.0004          7.5004
  21525752.2554   -2978162.15448  -2312158.79947                  21525761.9384
        28.0004         26.7504
  21512526.6384    5689166.46348   4433115.95147                  21512534.6344
        30.7504         27.0004
  21430236.0994   -3308510.95648  -2569308.94847                  21430245.2434
        32.0004         28.2504
 00  5  4 19 15 45.0010000  0  8G 4G 5G 6G17G 9G10G24G30
  24379820.5284    9049588.77546   7051624.27745                  24379829.5214
        12.0004          9.2504
  20587970.8104    1814448.52248   1415583.52147                  20587979.0404
        32.2504         29.0004
  23403445.9894   -3131280.91746   -803384.85846                  23403460.0564
        14.2504         14.0004
  25021767.5214    -513048.07745   -288885.16645                  25021789.8764
         9.2504          8.0004
  25100740.5754    8570362.57844   6678177.05045                  25100762.5794
         7.2504          8.0004
  21524231.1304   -2986154.91147  -2318386.87147                  21524240.7434
        27.7504         26.5004
  21521459.3494    5736107.91448   4469693.69847                  21521467.3804
        30.7504         27.0004
  21428038.7164   -3320056.96948  -2578305.83547                  21428047.7904
        31.7504         28.2504
 00  5  4 19 16  0.0010000  0  8G 4G 5G 6G17G 9G10G24G30
  24392110.0604    9114172.90846   7101949.57945                  24392118.2904
        12.2504          9.5004
  20592832.9274    1839998.90248   1435492.87447                  20592841.4034
        32.2504         28.7504
  23400135.7864   -3148675.93646   -816939.35246                  23400149.2314
        15.0004         14.5004
  25016262.5524    -541972.22045   -311423.38145                  25016284.4744
         8.2504          8.7504
  25112180.2474    8630468.16045   6725012.39245                  25112199.3994
         8.7504          8.0004
  21522742.1144   -2993979.98747  -2324484.28647                  21522751.6924
        27.7504         26.7504
  21530408.8644    5783138.93748   4506341.24047                  21530416.7784
        30.5004         26.7504
  21425870.0994   -3331453.45648  -2587186.20347                  21425879.2434
        31.7504         28.0004
 00  5  4 19 16 15.0010000  0  8G 4G 5G 6G17G 9G10G24G30
  24404404.3414    9178783.51545   7152295.50745                  24404413.2864
        11.0004          9.5004
  20597726.7474    1865716.28948   1455532.36847                  20597735.2474
        31.2504         28.7504
  23396832.8414   -3166034.17346   -830465.18646                  23396846.6264
        14.7504         14.7504
  25010771.7474    -570825.64245   -333906.46245                  25010789.1424
         7.5004          7.7504
  25123616.7164    8690577.94445   6771851.04545                  25123638.7084
         8.0004          8.0004
  21521284.4664   -3001639.61548  -2330452.77847                  21521294.1494
        28.2504         26.7504
  21539375.1224    5830256.89548   4543056.53047                  21539383.2004
        30.2504         26.7504
  21423729.5674   -3342702.71548  -2595951.84747                  21423738.5484
        32.0004         28.2504
 00  5  4 19 16 30.0010000  0  8G 4G 5G 6G17G 9G10G24G30
  24416705.4894    9243423.05145   7202663.91745                  24416714.0834
        11.2504          9.7504
  20602652.8254    1891603.11648   1475703.89447                  20602661.2314
        32.2504         29.0004
  23393537.1384   -3183353.08046   -843960.37346                  23393550.7354
        15.7504         15.0004
  25005295.8174    -599605.70645   -356332.35445                  25005317.4354
         9.0004          8.7504
  25135057.8804    8750694.32144   6818694.78345                  25135080.3064
         7.2504          7.2504
  21519859.0284   -3009131.17248  -2336290.30647                  21519868.6184
        28.0004         26.7504
  21548358.3724    5877463.86448   4579841.17547                  21548366.4624
        30.0004         26.5004
  21421617.3254   -3353801.95648  -2604600.59747                  21421626.2474
        32.0004         28.2504
 00  5  4 19 16 45.0010000  0  8G 4G 5G 6G17G 9G10G24G30
  24429010.5214    9308090.68445   7253054.26745                  24429020.6854
         9.2504          9.2504
  20607611.1534    1917658.93748   1496007.10347                  20607619.6654
        31.7504         29.0004
  23390248.9274   -3200633.12546   -857425.28246                  23390262.2434
        15.7504         15.0004
  24999832.9974    -628312.65445   -378701.28545                  24999856.1614
         7.5004          7.7504
  25146498.1224    8810816.39045   6865542.98445                  25146521.6614
         8.2504          7.7504
  21518465.4194   -3016454.71348  -2341996.91347                  21518475.0214
        28.2504         26.5004
  21557358.4584    5924759.29748   4616694.75047                  21557366.5134
        30.2504         26.5004
  21419533.6774   -3364751.36948  -2613132.59347                  21419542.5404
        32.0004         28.2504
 00  5  4 19 17  0.0010000  0  8G 4G 5G 6G17G 9G10G24G30
  24441321.4744    9372786.43345   7303466.48245                  24441329.1184
         9.5004          9.2504
  20612601.5604    1943883.93248   1516442.13347                  20612610.0954
        31.7504         29.0004
  23386967.8564   -3217873.97446   -870859.63446                  23386980.2714
        16.2504         15.0004
  24994383.5834    -656946.21445   -401013.05245                  24994405.0364
         9.0004          8.5004
  25157940.4584    8870944.06645   6912395.53945                  25157961.3024
         7.7504          8.0004
  21517103.7084   -3023609.85348  -2347572.29847                  21517113.1104
        28.2504         26.7504
  21566375.2394    5972143.02748   4653617.13047                  21566383.3884
        30.0004         26.5004
  21417478.9274   -3375550.50548  -2621547.49747                  21417487.7904
        32.2504         28.2504
 00  5  4 19 17 15.0010000  0  8G 4G 5G 6G17G 9G10G24G30
  24453638.1384    9437507.69045   7353898.59945                  24453645.7944
        10.0004          8.7504
  20617623.9274    1970275.76548   1537007.16847                  20617632.3924
        32.0004         29.0004
  23383694.1774   -3235077.97146   -884265.27746                  23383706.5324
        16.2504         14.7504
  24988948.4354    -685508.73845   -423269.46045                  24988969.5484
         9.0004          8.7504
  25169383.5134    8931074.57545   6959250.33145                  25169405.0484
         8.7504          7.7504
  21515773.5834   -3030598.65648  -2353018.06947                  21515783.0794
        28.0004         26.7504
  21575408.2244    6019612.28448   4690606.15347                  21575416.2784
        30.0004         26.5004
  21415451.9274   -3386201.52448  -2629846.98447                  21415460.6264
        32.2504         28.2504
 00  5  4 19 17 30.0010000  0  8G 4G 5G 6G17G 9G10G24G30
  24465959.8564    9502255.54145   7404351.49545                  24465967.1964
        11.0004          8.7504
  20622678.0754    1996835.67348   1557703.16947                  20622686.4704
        32.0004         29.0004
  23380427.6064   -3252243.78746   -897641.17446                  23380439.8454
        16.7504         15.2504
  24983526.5834    -713998.77345   -445469.29345                  24983547.8724
         8.0004          8.2504
  25180825.9034    8991208.97945   7006108.14545                  25180849.9464
         7.7504          7.7504
  21514475.7164   -3037419.70448  -2358333.12247                  21514485.3064
        28.0004         26.7504
  21584457.9194    6067168.32048   4727662.79947                  21584466.0214
        30.0004         26.5004
  21413453.7244   -3396702.75248  -2638029.75047                  21413462.5404
        32.2504         28.2504
 00  5  4 19 17 45.0010000  0  8G 4G 5G 6G17G 9G10G24G30
  24478284.9744    9567026.66145   7454822.44345                  24478293.2044
         9.7504          9.7504
  20627763.4814    2023560.34048   1578527.55747                  20627771.9704
        32.5004         29.0004
  23377167.5054   -3269374.76346   -910989.90346                  23377179.4624
        16.5004         15.0004
  24978117.2554    -742419.44744   -467615.24145                  24978139.0604
         7.0004          8.5004
  25192269.4584    9051343.70543   7052966.24745                  25192293.5604
         5.7504          6.7504
  21513208.9894   -3044076.04348  -2363519.83047                  21513218.4034
        28.0004         27.0004
  21593523.3414    6114807.57548   4764784.29147                  21593531.3964
        30.2504         26.5004
  21411483.1694   -3407057.22048  -2646098.15847                  21411491.9154
        32.5004         28.2504
 00  5  4 19 18  0.0010000  0  8G 4G 5G 6G17G 9G10G24G30
  24490614.8414    9631820.76345   7505311.31545                  24490622.8844
         9.7504          9.2504
  20632880.4034    2050449.84248   1599480.38647                  20632888.8564
        32.2504         29.2504
  23373914.2784   -3286470.69246   -924311.34546                  23373927.0324
        16.5004         15.2504
  24972722.7944    -770770.67245   -489706.89345                  24972745.2904
         8.7504          8.2504
  25203714.1224    9111478.29445   7099824.09345                  25203737.3214
         8.7504          8.5004
  21511973.5834   -3050567.20648  -2368577.83047                  21511983.0674
        28.0004         26.7504
  21602604.6224    6162529.78548   4801970.42247                  21602612.6884
        30.5004         26.5004
  21409540.7474   -3417264.66248  -2654052.00247                  21409549.4354
        32.2504         28.5004
 00  5  4 19 18 15.0010000  0  8G 4G 5G 6G17G 9G10G24G30
  24502949.7714    9696641.43345   7555820.92645                  24502959.8174
         9.7504          8.7504
  20638029.5754    2077507.74448   1620564.43047                  20638038.0994
        32.2504         29.0004
  23370668.0754   -3303527.89346   -937602.59346                  23370680.2674
        16.7504         15.0004
  24967341.5834    -799048.57544   -511741.53945                  24967363.1774
         7.2504          8.0004
  25215157.3334    9171616.36744   7146684.74545                  25215177.5524
         7.2504          7.5004
  21510770.5604   -3056889.35048  -2373504.12747                  21510779.9974
        28.5004         26.7504
  21611702.3414    6210338.31648   4839223.81847                  21611710.5834
        30.2504         26.5004
  21407627.2634   -3427321.21248  -2661888.26947                  21407635.8924
        32.5004         28.2504
 00  5  4 19 18 30.0010000  0  8G 4G 5G 6G17G 9G10G24G30
  24515290.5674    9761486.64345   7606349.57345                  24515297.9314
        11.0004          9.0004
  20643210.1924    2104732.34548   1641778.37847                  20643218.8334
        32.5004         29.0004
  23367429.1854   -3320548.01046   -950864.95946                  23367441.9384
        16.2504         14.7504
  24961973.8644    -827254.75445   -533720.18845                  24961994.0014
         7.5004          8.2504
  25226601.8334    9231755.68245   7193546.43445                  25226622.4314
         7.7504          7.5004
  21509599.5834   -3063043.89148  -2378299.82847                  21509609.0444
        28.2504         27.0004
  21620815.7944    6258231.20348   4876542.94647                  21620823.7554
        30.2504         26.5004
  21405741.8724   -3437228.24948  -2669608.02947                  21405750.6184
        32.5004         28.5004
 00  5  4 19 18 45.0010000  0  8G 4G 5G 6G17G 9G10G24G30
  24527632.9354    9826353.34845   7656895.04245                  24527641.8334
        10.5004          9.2504
  20648422.0364    2132120.57348   1663119.82347                  20648430.5714
        32.5004         29.0004
  23364196.7164   -3337534.06046   -964100.76446                  23364209.5404
        15.7504         15.0004
  24956618.2084    -855392.12144   -555645.29845                  24956638.3334
         6.2504          8.7504
  25238045.2634    9291893.14343   7240406.58945                  25238066.2594
         6.0004          6.7504
  21508459.4894   -3069033.67348  -2382967.13947                  21508468.9274
        28.2504         26.7504
  21629945.2164    6306205.25048   4913925.31147                  21629953.3294
        30.0004         26.5004
  21403884.4114   -3446988.63148  -2677213.51047                  21403893.0404
        32.2504         28.5004
 00  5  4 19 19  0.0010000  0  8G 4G 5G 6G17G 9G10G24G30
  24539981.8644    9891245.66245   7707460.52745                  24539989.1464
         9.2504          8.7504
  20653665.7084    2159676.77048   1684592.15147                  20653674.2674
        32.5004         29.0004
  23360971.7084   -3354481.55046   -977306.54246                  23360985.1654
        15.2504         14.7504
  24951279.6924    -883456.09545   -577513.13945                  24951297.1574
         9.2504          8.2504
  25249490.1384    9352032.77545   7287268.43345                  25249513.0914
         8.7504          8.2504
  21507351.7784   -3074853.99648  -2387502.40647                  21507361.0284
        28.5004         27.0004
  21639090.5054    6354264.47148   4951374.04947                  21639098.5364
        30.0004         26.5004
  21402056.0604   -3456597.45648  -2684700.90147                  21402064.7714
        32.2504         28.2504
 00  5  4 19 19 15.0010000  0  8G 4G 5G 6G17G 9G10G24G30
  24552334.1384    9956156.98245   7758040.69845                  24552344.3494
         9.7504          8.7504
  20658940.2084    2187394.49948   1706190.35447                  20658948.8374
        32.5004         29.0004
  23357752.6304   -3371396.89546   -990487.25546                  23357766.2284
        15.0004         15.0004
  24945950.3024    -911453.10444   -599328.87545                  24945971.1104
         6.7504          9.0004
  25260931.6854    9412167.79644   7334126.71745                  25260955.8684
         6.5004          7.7504
  21506275.4274   -3080511.15148  -2391910.53547                  21506284.6184
        28.5004         27.2504
  21648250.9194    6402402.13748   4988883.90947                  21648259.1614
        29.7504         26.2504
  21400255.1144   -3466060.93348  -2692075.02847                  21400263.8494
        32.2504         28.5004
 00  5  4 19 19 30.0010000  0  8G 4G 5G 6G17G 9G10G24G30
  24564690.9194   10021091.99745   7808639.39445                  24564699.1494
        10.0004          9.5004
  20664246.3494    2215278.57248   1727918.17047                  20664254.9424
        32.5004         29.0004
  23354540.8884   -3388275.21046  -1003639.13246                  23354554.4504
        14.7504         15.2504
  24940637.6384    -939378.06345   -621088.44545                  24940657.5174
         8.5004          8.7504
  25272377.3024    9472302.72244   7380984.94845                  25272395.7164
         6.7504          6.5004
  21505231.0054   -3085999.96448  -2396187.48247                  21505240.2904
        28.5004         27.2504
  21657426.8334    6450623.03048   5026458.62747                  21657435.1574
        29.5004         26.2504
  21398482.8724   -3475374.04448  -2699331.98747                  21398491.7354
        32.5004         28.5004
 00  5  4 19 19 45.0010000  0  8G 4G 5G 6G17G 9G10G24G30
  24577051.8494   10086046.45945   7859253.26045                  24577059.4354
        11.0004          9.0004
  20669583.4274    2243325.17948   1749772.63847                  20669592.0214
        32.2504         29.0004
  23351334.7314   -3405120.30846  -1016765.11246                  23351348.3534
        15.2504         15.0004
  24935335.9894    -967234.78345   -642794.81745                  24935356.6814
         7.5004          8.5004
  25283821.0444    9532433.40744   7427839.85245                  25283846.1774
         6.7504          7.2504
  21504217.5054   -3091324.12848  -2400336.14147                  21504226.8724
        28.5004         27.2504
  21666618.1224    6498922.84448   5064094.83747                  21666626.4464
        29.7504         26.2504
  21396738.7714   -3484540.29348  -2706474.51347                  21396747.5054
        32.2504         28.5004
 00  5  4 19 20  0.0010000  0  8G 4G 5G 6G17G 9G10G24G30
  24589415.8884   10151019.90145   7909881.86145                  24589424.0244
        10.7504          9.2504
  20674951.3884    2271533.63948   1771753.22647                  20674959.9584
        32.2504         29.0004
  23348136.0674   -3421932.72146  -1029865.63346                  23348149.6654
        15.7504         15.5004
  24930048.1304    -995023.61745   -664448.33045                  24930067.5054
         8.5004          8.5004
  25295261.1854    9592558.94545   7474690.68445                  25295284.9584
         7.7504          7.5004
  21503235.6304   -3096483.98048  -2404356.76147                  21503244.8804
        28.5004         27.2504
  21675824.1464    6547300.82448   5101791.95547                  21675832.3994
        29.5004         26.2504
  21395022.3254   -3493559.93548  -2713502.79147                  21395031.0604
        32.2504         28.5004
 00  5  4 19 20 15.0010000  0  8G 4G 5G 6G17G 9G10G24G30
  24601783.3564   10216012.21245   7960525.19845                  24601791.0604
        10.0004          9.7504
  20680350.1464    2299904.12048   1793860.06447                  20680358.9624
        32.2504         28.7504
  23344942.9424   -3438712.17246  -1042940.45046                  23344956.3064
        16.2504         15.5004
  24924772.3334   -1022744.29644   -686048.67045                  24924793.2244
         6.7504          8.0004
  25306703.0284    9652679.52243   7521537.72345                  25306731.7824
         5.2504          5.2504
  21502285.0524   -3101479.02848  -2408248.96047                  21502294.5954
        28.2504         27.2504
  21685045.0444    6595757.04048   5139550.04047                  21685053.2984
        29.7504         26.2504
  21393333.8334   -3502432.64548  -2720416.58647                  21393342.4384
        32.5004         28.5004
 00  5  4 19 20 30.0010000  0  8G 4G 5G 6G17G 9G10G24G30
  24614153.5604   10281020.08045   8011180.62845                  24614162.1424
        10.5004          9.0004
  20685779.0994    2328433.43748   1816090.66847                  20685787.8454
        32.2504         29.0004
  23341755.9974   -3455461.74046  -1055992.00746                  23341768.9974
        16.7504         16.0004
  24919511.1304   -1050399.84145   -707598.32545                  24919533.0404
         8.5004          8.7504
  25318141.4114    9712791.21145   7568377.80945                  25318165.2434
         8.7504          8.7504
  21501365.3964   -3106312.19548  -2412015.02447                  21501374.8564
        28.5004         27.0004
  21694280.1774    6644287.95048   5177366.32447                  21694288.4424
        29.7504         26.2504
  21391672.8884   -3511161.33948  -2727218.15447                  21391681.5404
        32.5004         28.5004
 00  5  4 19 20 45.0010000  0  8G 4G 5G 6G17G 9G10G24G30
  24626527.3024   10346046.59945   8061850.64845                  24626535.9664
        10.5004          9.0004
  20691239.0604    2357124.98648   1838447.68747                  20691247.8764
        32.2504         29.0004
  23338574.9274   -3472178.10946  -1069017.67546                  23338587.8804
        17.5004         16.0004
  24914260.3104   -1077986.93545   -729094.61045                  24914281.9274
         9.0004          9.0004
  25329578.3174    9772897.30245   7615213.52745                  25329600.9894
         7.5004          7.5004
  21500477.0754   -3110979.92648  -2415652.17247                  21500486.5604
        28.5004         27.0004
  21703530.2554    6692896.62148   5215243.20447                  21703538.4624
        29.5004         26.0004
  21390039.9584   -3519742.36448  -2733904.65947                  21390048.6814
        32.2504         28.5004
 00  5  4 19 21  0.0010000  0  8G 4G 5G 6G17G 9G10G24G30
  24638906.3104   10411093.80145   8112536.75145                  24638915.8174
        10.2504          8.7504
  20696730.2164    2385980.80648   1860932.71147                  20696738.8804
        32.2504         28.7504
  23335400.3414   -3488859.02646  -1082015.72546                  23335412.6144
        18.0004         16.2504
  24909024.8494   -1105503.18545   -750535.65245                  24909045.0564
         9.7504          9.0004
  25341016.8804    9832999.66345   7662046.34345                  25341040.9934
         7.7504          8.0004
  21499620.9034   -3115479.82648  -2419158.54747                  21499630.3764
        28.2504         27.2504
  21712795.2244    6741585.00448   5253182.19547                  21712803.4424
        29.5004         26.0004
  21388435.5284   -3528173.30848  -2740474.21547                  21388444.2514
        32.2504         28.5004
 00  5  4 19 21 15.0010000  0  8G 4G 5G 6G17G 9G10G24G30
  24651288.3254   10476161.49845   8163238.83245                  24651297.2474
        11.0004          8.7504
  20702252.3024    2415000.80348   1883545.66647                  20702261.0714
        32.0004         29.0004
  23332232.8964   -3505504.38746  -1094986.05746                  23332245.5094
        17.5004         16.0004
  24903801.6464   -1132948.44745   -771921.46245                  24903823.3924
         8.2504          9.2504
  25352452.9424    9893098.07444   7708876.02945                  25352479.2944
         6.5004          7.2504
  21498796.3964   -3119811.58948  -2422533.90247                  21498805.7514
        28.5004         27.0004
  21722075.4814    6790352.90748   5291183.14747                  21722083.5364
        29.7504         26.2504
  21386859.8104   -3536453.87248  -2746926.58947                  21386868.5794
        32.2504         28.5004
 00  5  4 19 21 30.0010000  0  8G 4G 5G 6G17G 9G10G24G30
  24663673.9034   10541248.71645   8213956.15545                  24663683.8214
        10.5004          9.2504
  20707805.8804    2444184.15748   1906285.91247                  20707814.6494
        32.5004         29.0004
  23329071.9504   -3522114.92046  -1107929.26346                  23329084.1884
        18.5004         16.2504
  24898591.4894   -1160323.43445   -793252.43745                  24898610.7714
         8.2504          8.7504
  25363888.9744    9953191.27545   7755701.78345                  25363908.0094
         9.0004          7.0004
  21498004.0834   -3123975.81448  -2425778.71147                  21498013.6034
        28.5004         27.2504
  21731370.5914    6839199.27248   5329245.25347                  21731378.5874
        29.5004         26.0004
  21385312.6304   -3544584.58848  -2753262.20747                  21385321.2244
        32.2504         28.7504
 00  5  4 19 21 45.0010000  0  8G 4G 5G 6G17G 9G10G24G30
  24676062.9424   10606353.51645   8264687.09345                  24676072.8844
        11.0004          9.0004
  20713389.9354    2473529.04348   1929152.01947                  20713398.8104
        32.2504         29.0004
  23325917.2714   -3538692.33546  -1120846.65546                  23325929.8724
        16.7504         16.5004
  24893396.2554   -1187629.78545   -814529.99745                  24893418.4584
         9.2504          9.0004
  25375321.7004   10013277.41344   7802522.01745                  25375346.1184
         6.2504          6.5004
  21497243.1384   -3127974.01048  -2428894.14447                  21497252.4234
        28.2504         27.2504
  21740680.3024    6888121.92048   5367366.78547                  21740688.3684
        29.7504         25.7504
  21383793.3724   -3552566.98848  -2759482.24547                  21383802.2354
        32.2504         28.5004
 00  5  4 19 22  0.0010000  0  7G 4G 5G 6G17G10G24G30
  24688455.4504   10671477.00645   8315432.65445                  24688464.0324
        10.2504          8.2504
  20719005.2634    2503036.71548   1952144.98447                  20719013.8564
        32.5004         29.0004
  23322769.2784   -3555235.38146  -1133737.26846                  23322781.5174
        18.0004         16.0004
  24888212.9814   -1214866.12245   -835752.95245                  24888232.8964
         9.5004          9.0004
  21496514.1064   -3131804.54748  -2431878.93747                  21496523.2744
        28.5004         27.2504
  21750004.5754    6937122.02348   5405548.67947                  21750012.6654
        29.5004         25.7504
  21382302.9744   -3560399.48348  -2765585.48047                  21382311.8724
        32.2504         28.7504
 00  5  4 19 22 15.0010000  0  7G 4G 5G 6G17G10G24G30
  24700850.9744   10736616.97245   8366191.03845                  24700859.6144
        10.7504          8.5004
  20724650.8884    2532705.12648   1975263.19347                  20724659.6694
        32.2504         29.2504
  23319626.6064   -3571745.97946  -1146602.59546                  23319638.9624
        16.5004         16.2504
  24883042.6534   -1242034.35445   -856922.91045                  24883062.8844
         8.7504          8.7504
  21495816.7164   -3135469.48248  -2434734.69047                  21495825.9664
        28.5004         27.2504
  21759343.5364    6986197.25048   5443789.10847                  21759351.7314
        29.5004         25.7504
  21380840.7474   -3568083.92648  -2771573.34647                  21380849.6224
        32.5004         28.7504
 00  5  4 19 22 30.0010000  0  7G 4G 5G 6G17G10G24G30
  24713250.9274   10801775.29745   8416963.69145                  24713260.1534
        10.0004          8.0004
  20730327.7634    2562536.22148   1998508.17347                  20730336.5444
        32.2504         29.0004
  23316491.5914   -3588222.12746  -1159441.08946                  23316503.8994
        16.7504         15.7504
  24877885.7944   -1269132.28445   -878038.01445                  24877906.6384
         8.0004          8.7504
  21495151.1144   -3138966.58048  -2437459.65947                  21495160.2124
        28.7504         27.2504
  21768696.7634    7035349.40748   5482089.48446                  21768704.7594
        29.2504         25.5004
  21379407.0444   -3575617.93548  -2777443.99947                  21379416.1304
        31.7504         29.0004
 00  5  4 19 22 45.0010000  0  7G 4G 5G 6G17G10G24G30
  24725651.9424   10866949.39945   8467748.73745                  24725661.6854
        10.0004          8.0004
  20736034.8494    2592527.67348   2021878.10447                  20736043.6184
        32.2504         29.2504
  23313362.3724   -3604666.02946  -1172254.44646                  23313375.4784
        16.2504         15.7504
  24872741.4974   -1296162.14445   -899100.09445                  24872759.8764
         8.5004          8.0004
  21494517.3564   -3142297.80048  -2440055.37447                  21494526.5954
        28.7504         27.5004
  21778064.2784    7084575.79948   5520447.70146                  21778072.4274
        29.2504         25.5004
  21378001.6144   -3583003.64648  -2783199.09047                  21378010.5954
        32.5004         29.0004
 00  5  4 19 23  0.0010000  0  7G 4G 5G 6G17G10G24G30
  24738058.5444   10932142.92445   8518548.87445                  24738068.5794
        10.7504          8.5004
  20741773.3964    2622683.12548   2045375.82947                  20741782.1774
        32.2504         29.0004
  23310240.0134   -3621073.93846  -1185039.76646                  23310252.9194
        16.5004         16.2504
  24867612.3964   -1323120.10045   -920106.13945                  24867633.6494
         9.0004          9.0004
  21493915.6144   -3145459.21948  -2442518.77947                  21493924.8294
        28.5004         27.5004
  21787446.5444    7133880.02848   5558866.57947                  21787454.8214
        29.5004         25.7504
  21376625.0834   -3590237.26248  -2788835.66647                  21376634.0284
        32.0004         28.7504
 00  5  4 19 23 15.0010000  0  7G 4G 5G 6G17G10G24G30
  24750467.8724   10997353.06845   8569361.93945                  24750478.8334
         9.5004          8.2504
  20747542.4664    2653000.01448   2068999.34747                  20747551.2944
        32.2504         29.2504
  23307124.0834   -3637448.27746  -1197798.92346                  23307137.4234
        16.7504         16.0004
  24862496.0914   -1350008.57845   -941058.07645                  24862515.6184
         9.5004          8.7504
  21493345.7634   -3148453.12248  -2444851.65147                  21493354.8374
        28.7504         27.5004
  21796843.2314    7183259.30448   5597343.92547                  21796851.4154
        29.5004         25.7504
  21375277.1224   -3597320.84648  -2794355.33247                  21375286.0324
        32.5004         29.0004
 00  5  4 19 23 30.0010000  0  7G 4G 5G 6G17G10G24G30
  24762879.7944   11062580.65645   8620188.61845                  24762887.5564
         8.7504          7.7504
  20753342.3884    2683479.23148   2092749.35547                  20753351.2634
        32.2504         29.2504
  23304014.7714   -3653788.05146  -1210531.15046                  23304027.6304
        16.7504         16.0004
  24857391.6694   -1376826.51445   -961955.06345                  24857411.5364
         8.0004          8.2504
  21492808.2714   -3151278.21348  -2447052.98347                  21492817.3924
        28.7504         27.5004
  21806254.1224    7232714.32648   5635880.29847                  21806262.3534
        29.7504         25.7504
  21373957.8964   -3604253.15948  -2799757.13247                  21373966.7944
        32.2504         29.2504
 00  5  4 19 23 45.0010000  0  7G 4G 5G 6G17G10G24G30
  24775295.2004   11127824.04845   8671027.56645                  24775305.6924
         9.7504          7.5004
  20759173.0524    2714119.23348   2116624.64847                  20759181.8454
        32.5004         29.2504
  23300911.4744   -3670094.63846  -1223237.51546                  23300923.7354
        17.2504         16.2504
  24852301.5444   -1403575.25545   -982798.06645                  24852322.9624
         8.7504          8.5004
  21492302.6384   -3153935.84748  -2449123.83047                  21492311.8294
        28.7504         27.5004
  21815679.0214    7282243.26448   5674474.27147                  21815687.2164
        30.0004         25.7504
  21372667.3104   -3611035.50148  -2805042.06647                  21372676.2904
        32.5004         29.0004
 00  5  4 19 24  0.0010000  0  7G 4G 5G 6G17G10G24G30
  24787713.1464   11193079.78545   8721876.22645                  24787722.0094
         8.0004          6.5004
  20765033.6614    2744916.61048   2140622.57247                  20765042.4544
        32.2504         29.5004
  23297814.7314   -3686371.38346  -1235920.62146                  23297827.2634
        17.2504         16.2504
  24847223.9274   -1430258.07745  -1003589.78145                  24847242.8684
         7.7504          8.5004
  21491828.1144   -3156429.23348  -2451066.68747                  21491837.3174
        28.7504         27.5004
  21825117.6464    7331842.54648   5713123.05447                  21825125.5954
        30.2504         26.0004
  21371404.6694   -3617671.04348  -2810212.61347                  21371413.6964
        32.5004         29.0004
 00  5  4 19 24 15.0010000  0  7G 4G 5G 6G17G10G24G30
  24800133.3884   11258350.79345   8772736.71145                  24800141.2314
         8.5004          7.0004
  20770924.8334    2775874.72248   2164745.74547                  20770933.6034
        32.5004         29.5004
  23294722.8414   -3702614.88146  -1248577.83046                  23294735.3494
        18.0004         16.2504
  24842160.2314   -1456871.47645  -1024327.29345                  24842180.1814
        10.0004          8.7504
  21491385.4894   -3158754.67548  -2452878.68547                  21491394.7394
        28.5004         27.7504
  21834570.0284    7381515.41648   5751829.18047                  21834578.3414
        30.0004         26.0004
  21370170.7164   -3624155.90148  -2815265.74647                  21370179.5094
        32.5004         29.2504
 00  5  4 19 24 30.0010000  0  7G 4G 5G 6G17G10G24G30
  24812558.3644   11323634.69945   8823607.22745                  24812565.7514
         9.2504          7.7504
  20776846.0834    2806991.14448   2188992.27947                  20776854.9114
        32.2504         29.2504
  23291638.2164   -3718827.39746  -1261210.89046                  23291650.6424
        18.5004         16.5004
  24837108.0914   -1483417.73945  -1045012.61045                  24837126.3764
         8.5004          8.7504
  21490974.4274   -3160914.52348  -2454561.64247                  21490983.6424
        28.5004         27.5004
  21844036.0054    7431259.14748   5790590.52347                  21844044.1424
        30.0004         25.7504
  21368964.8494   -3630492.37248  -2820203.24947                  21368973.7714
        32.5004         29.2504
 00  5  4 19 24 45.0010000  0  7G 4G 5G 6G17G10G24G30
  24824982.2164   11388932.56045   8874488.69145                  24824989.9544
         8.5004          7.7504
  20782797.7474    2838266.95848   2213363.00847                  20782806.6344
        32.2504         29.2504
  23288559.0524   -3735007.73346  -1273818.86646                  23288571.2554
        18.2504         16.7504
  24832068.6614   -1509895.50045  -1065644.49345                  24832088.3644
         7.7504          8.2504
  21490595.1384   -3162907.32848  -2456114.44547                  21490604.2714
        28.5004         27.5004
  21853515.6924    7481074.66848   5829407.80546                  21853523.8414
        29.5004         25.5004
  21367787.6064   -3636679.16648  -2825024.12347                  21367796.5874
        32.0004         29.0004
 00  5  4 19 25  0.0010000  0  7G 4G 5G 6G17G10G24G30
  24837412.8644   11454246.18145   8925382.38745                  24837418.4314
         9.7504          7.5004
  20788780.0214    2869704.09248   2237859.44247                  20788789.0014
        32.2504         29.2504
  23285486.4424   -3751153.81946  -1286400.15446                  23285498.6814
        18.7504         16.7504
  24827043.5134   -1536302.62345  -1086221.33345                  24827062.3374
         8.0004          8.0004
  21490248.1534   -3164730.97048  -2457535.42947                  21490257.3804
        28.5004         27.5004
  21863009.0994    7530963.67948   5868282.34947                  21863017.2354
        29.5004         25.7504
  21366639.1064   -3642713.92648  -2829726.53247                  21366648.0054
        32.2504         29.2504
 00  5  4 19 25 15.0010000  0  7G 4G 5G 6G17G10G24G30
  24849840.6384   11519572.39644   8976285.91145                  24849850.1574
         7.2504          7.7504
  20794792.4814    2901299.46648   2262479.18647                  20794801.4504
        32.5004         29.2504
  23282419.8644   -3767268.62246  -1298957.08246                  23282432.3254
        18.2504         17.0004
  24822031.2864   -1562642.06245  -1106745.43745                  24822051.1184
         9.0004          9.0004
  21489932.7864   -3166388.03748  -2458826.61847                  21489942.1774
        28.5004         27.5004
  21872516.0134    7580922.99148   5907211.67546                  21872524.0324
        29.5004         25.2504
  21365519.3494   -3648599.41248  -2834312.61947                  21365528.2594
        32.5004         29.0004
 00  5  4 19 25 30.0010000  0  7G 4G 5G 6G17G10G24G30
  24862277.0214   11584915.38745   9027202.48645                  24862286.3414
         9.0004          8.0004
  20800835.7634    2933057.43948   2287225.62247                  20800844.7434
        32.2504         29.5004
  23279359.8884   -3783347.63446  -1311486.10546                  23279372.2674
        18.5004         17.0004
  24817033.5994   -1588909.26245  -1127213.25245                  24817053.2784
        10.2504          8.7504
  21489649.9974   -3167873.96548  -2459984.44647                  21489659.3534
        28.5004         27.5004
  21882037.2004    7630956.81348   5946199.06346                  21882045.2204
        29.7504         25.0004
  21364428.5994   -3654330.86648  -2838778.68347                  21364437.5324
        31.5004         29.5004
 00  5  4 19 25 45.0010000  0  7G 4G 5G 6G17G10G24G30
  24874715.0524   11650273.70545   9078130.99845                  24874724.9234
         8.2504          8.2504
  20806909.8644    2964976.69548   2312097.73247                  20806918.8214
        32.2504         29.5004
  23276306.5134   -3799392.12746  -1323988.24746                  23276319.2904
        17.5004         16.7504
  24812049.0604   -1615105.48745  -1147625.77145                  24812067.0174
         8.7504          8.5004
  21489399.5674   -3169189.80748  -2461009.75247                  21489408.8884
        28.7504         27.7504
  21891572.1854    7681063.45148   5985243.18446                  21891580.2984
        29.7504         25.2504
  21363366.8254   -3659909.35948  -2843125.56247                  21363375.6654
        31.0004         29.2504
 00  5  4 19 26  0.0010000  0  7G 4G 5G 6G17G10G24G30
  24887153.8174   11715644.38145   9129069.16545                  24887163.6654
         8.7504          8.2504
  20813014.2164    2997054.33748   2337093.26647                  20813023.2084
        32.2504         29.2504
  23273259.3254   -3815404.81446  -1336465.59446                  23273272.0564
        17.7504         16.7504
  24807075.5284   -1641233.34045  -1167985.01745                  24807095.6064
         7.7504          8.7504
  21489180.9274   -3170338.17948  -2461904.55047                  21489190.4234
        28.5004         27.7504
  21901120.5214    7731239.99148   6024341.78246                  21901128.5524
        29.7504         25.2504
  21362334.0604   -3665337.50548  -2847355.28247                  21362342.7824
        32.2504         29.2504
 00  5  4 19 26 15.0010000  0  7G 4G 5G 6G17G10G24G30
  24899595.5054   11781025.42245   9180015.41945                  24899603.9934
         9.0004          8.7504
  20819147.8884    3029288.45548   2362210.72847                  20819156.7634
        32.2504         29.2504
  23270218.1614   -3831387.48946  -1348919.55746                  23270230.6924
        17.5004         16.2504
  24802117.0364   -1667294.62245  -1188292.36745                  24802136.6104
         9.7504          9.2504
  21488994.0284   -3171320.76648  -2462670.16847                  21489003.2084
        28.5004         27.7504
  21910681.7004    7781484.30648   6063493.18746                  21910689.7674
        30.0004         25.2504
  21361329.3884   -3670617.00348  -2851469.17047                  21361338.3104
        31.7504         29.0004
 00  5  4 19 26 30.0010000  0  7G 4G 5G 6G17G10G24G30
  24912040.6924   11846421.55745   9230973.42345                  24912049.1464
         9.2504          8.0004
  20825312.5834    3061683.79548   2387453.81447                  20825321.5284
        32.0004         29.5004
  23267183.3174   -3847335.34746  -1361346.38146                  23267196.2004
        17.0004         16.5004
  24797170.4504   -1693284.53245  -1208544.08245                  24797190.8334
         8.0004          7.7504
  21488839.4664   -3172132.55848  -2463302.70447                  21488848.5994
        29.0004         27.7504
  21920256.6924    7831800.84848   6102700.87346                  21920264.8994
        30.0004         25.2504
  21360353.9584   -3675742.78048  -2855463.27847                  21360362.8684
        32.2504         29.2504
 00  5  4 19 26 45.0010000  0  7G 4G 5G 6G17G10G24G30
  24924486.8104   11911827.37845   9281939.00745                  24924496.6814
         8.7504          8.0004
  20831506.8414    3094235.15848   2412818.47747                  20831515.8104
        32.2504         29.5004
  23264154.0914   -3863253.21546  -1373749.85046                  23264166.9854
        17.2504         16.5004
  24792237.8644   -1719207.85945  -1228743.98045                  24792258.2004
         9.7504          9.5004
  21488716.4814   -3172778.37848  -2463805.91047                  21488725.7554
        28.5004         28.0004
  21929844.2554    7882184.53448   6141960.88446                  21929852.4624
        29.7504         25.2504
  21359406.8414   -3680719.50148  -2859341.24147                  21359415.6224
        31.7504         29.2504
 00  5  4 19 27  0.0010000  0  7G 4G 5G 6G17G10G24G30
  24936934.9114   11977242.91545   9332912.09845                  24936944.5244
        10.2504          7.5004
  20837730.9354    3126942.58848   2438304.75647                  20837740.0674
        31.7504         29.5004
  23261130.3254   -3879141.07446  -1386129.92746                  23261143.8174
        17.0004         16.5004
  24787317.9274   -1745064.55945  -1248891.91745                  24787336.9504
         9.7504          9.0004
  21488625.3564   -3173257.93948  -2464179.56647                  21488634.4544
        29.0004         27.7504
  21939444.7714    7932634.97748   6181272.90846                  21939452.8724
        29.7504         25.2504
  21358488.3104   -3685547.05948  -2863102.96947                  21358497.1144
        32.5004         29.2504
 00  5  4 19 27 15.0010000  0  7G 4G 5G 6G17G10G24G30
  24949384.8174   12042670.02545   9383894.21645                  24949392.9424
         9.0004          8.5004
  20843985.1774    3159808.12848   2463914.23347                  20843994.2044
        32.0004         29.2504
  23258113.4504   -3894996.72346  -1398484.91046                  23258126.3334
        17.7504         16.5004
  24782409.3254   -1770852.18245  -1268986.03445                  24782430.0634
         7.7504          8.7504
  21488566.1224   -3173568.96948  -2464421.89747                  21488575.3254
        28.7504         28.0004
  21949058.0754    7983154.09948   6220638.45046                  21949066.3414
        29.7504         25.2504
  21357598.4424   -3690223.00448  -2866746.55347                  21357607.2004
        31.7504         29.2504
 00  5  4 19 27 30.0010000  0  7G 4G 5G 6G17G10G24G30
  24961837.9894   12108105.96945   9434883.27045                  24961848.5404
         9.7504          8.2504
  20850268.6384    3192829.09148   2489644.81947                  20850277.8414
        32.0004         29.5004
  23255102.0054   -3910822.77246  -1410816.82846                  23255114.7474
        17.5004         16.7504
  24777515.9744   -1796573.38545  -1289028.30745                  24777532.7004
        10.5004          9.2504
  21488538.2554   -3173713.94348  -2464534.83547                  21488547.4354
        28.5004         28.0004
  21958684.2004    8033739.05948   6260055.29146                  21958692.2554
        29.2504         25.0004
  21356737.0674   -3694749.74348  -2870273.88247                  21356745.7674
        32.2504         29.2504
 00  5  4 19 27 45.0010000  0  7G 4G 5G 6G17G10G24G30
  24974291.9664   12173555.75145   9485883.03845                  24974300.1614
        11.0004          9.5004
  20856583.0674    3226010.54348   2515500.46247                  20856592.2244
        32.0004         29.2504
  23252096.7864   -3926613.95046  -1423121.57946                  23252109.1304
        18.2504         17.2504
  24772634.1774   -1822222.92545  -1309014.89945                  24772655.5714
         8.7504          9.0004
  21488543.5914   -3173687.59248  -2464514.27147                  21488552.8064
        28.7504         28.0004
  21968323.5834    8084394.75748   6299527.25246                  21968331.8844
        29.0004         24.5004
  21355905.0674   -3699121.81348  -2873680.68347                  21355913.7204
        31.7504         29.5004
 00  5  4 19 28  0.0010000  0  7G 4G 5G 6G17G10G24G30
  24986749.7714   12239018.38145   9536892.88245                  24986758.5054
        10.0004          9.2504
  20862927.7554    3259351.51548   2541480.40147                  20862936.7474
        32.0004         29.2504
  23249098.7394   -3942371.01446  -1435399.74046                  23249110.9784
        18.2504         17.0004
  24767766.4974   -1847801.41145  -1328946.03245                  24767784.8994
         8.0004          9.0004
  21488581.0364   -3173490.35948  -2464360.55447                  21488590.3454
        28.7504         28.0004
  21977976.2244    8135120.13448   6339053.51146                  21977984.4664
        28.7504         24.7504
  21355102.3414   -3703339.79648  -2876967.41947                  21355111.0524
        32.7504         29.2504
 00  5  4 19 28 15.0010000  0  7G 4G 5G 6G17G10G24G30
  24999207.3564   12304488.93245   9587908.85945                  24999215.4464
         9.7504          9.2504
  20869301.7784    3292847.27248   2567580.95747                  20869310.8414
        31.7504         29.2504
  23246105.4664   -3958098.65946  -1447654.97346                  23246117.7634
        18.5004         16.7504
  24762911.8494   -1873313.58645  -1348825.51945                  24762932.3494
        10.5004         10.2504
  21488650.1534   -3173126.77748  -2464077.21747                  21488659.4384
        28.7504         28.0004
  21987641.2864    8185910.16248   6378630.14546                  21987649.4114
        28.7504         24.7504
  21354328.1384   -3707408.31948  -2880137.68947                  21354336.8024
        32.5004         29.5004
 00  5  4 19 28 30.0010000  0  7G 4G 5G 6G17G10G24G30
  25011670.2164   12369968.12046   9638931.54345                  25011678.3644
        13.2504          9.2504
  20875705.3724    3326498.54848   2593802.69547                  20875714.4584
        32.0004         29.2504
  23243118.2554   -3973795.93046  -1459886.54446                  23243130.2004
        18.7504         17.0004
  24758070.0524   -1898758.42745  -1368652.49345                  24758090.0954
         9.2504          9.5004
  21488750.9194   -3172595.89948  -2463663.52047                  21488760.2634
        28.7504         28.0004
  21997318.6924    8236765.50648   6418257.67546                  21997326.7474
        28.5004         24.5004
  21353582.4744   -3711326.24848  -2883190.61747                  21353591.1144
        32.5004         29.2504
 00  5  4 19 28 45.0010000  0  7G 4G 5G 6G17G10G24G30
  25024128.4274   12435460.44445   9689964.54845                  25024137.0324
         9.0004          9.0004
  20882139.5054    3360309.96548   2620149.21647                  20882148.4034
        31.7504         29.2504
  23240138.1304   -3989458.02846  -1472090.70346                  23240149.8294
        19.0004         17.5004
  24753241.9424   -1924131.06445  -1388423.28045                  24753261.5524
        11.2504         10.5004
  21488884.7944   -3171892.84748  -2463115.65547                  21488894.0444
        28.5004         28.0004
  22007009.3024    8287690.67148   6457939.61546                  22007017.4274
        28.7504         24.2504
  21352866.5444   -3715088.52348  -2886122.25047                  21352875.3724
        32.2504         29.2504
 00  5  4 19 29  0.0010000  0  7G 4G 5G 6G17G10G24G30
  25036597.0054   12500960.17946   9741003.27445                  25036606.5134
        12.2504          8.7504
  20888602.9424    3394275.76248   2646616.03247                  20888611.9464
        31.7504         29.2504
  23237162.7554   -4005090.60846  -1484271.85246                  23237174.0914
        18.2504         17.0004
  24748425.9894   -1949437.31545  -1408142.22845                  24748444.0174
        10.0004          9.2504
  21489050.4114   -3171023.02248  -2462437.84247                  21489059.6144
        28.7504         28.0004
  22016712.3564    8338679.56748   6497671.21346                  22016720.6924
        28.5004         24.5004
  21352179.1854   -3718700.67448  -2888936.90847                  21352188.0014
        32.5004         29.2504
 00  5  4 19 29 15.0010000  0  7G 4G 5G 6G17G10G24G30
  25049058.3724   12566467.75745   9792048.10945                  25049068.2784
         8.0004          9.0004
  20895096.1144    3428396.62148   2673203.67847                  20895105.1774
        31.7504         29.2504
  23234193.6924   -4020692.86746  -1496429.39046                  23234205.6384
        18.5004         16.7504
  24743622.0834   -1974676.11245  -1427808.70245                  24743640.3334
         9.5004          9.7504
  21489247.8024   -3169985.56148  -2461629.40347                  21489257.0174
        28.7504         28.0004
  22026427.4814    8389732.73948   6537452.89346                  22026435.6064
        28.7504         24.5004
  21351520.7474   -3722161.66748  -2891633.78147                  21351529.6224
        32.5004         29.2504
 00  5  4 19 29 30.0010000  0  7G 4G 5G 6G17G10G24G30
  25061528.6774   12631980.96645   9843097.29545                  25061537.0714
        10.7504          8.2504
  20901618.1064    3462670.33948   2699910.43447                  20901627.1344
        31.7504         29.2504
  23231230.1854   -4036266.88846  -1508564.92546                  23231242.5054
        18.2504         17.2504
  24738831.9584   -1999849.57245  -1447424.24145                  24738851.7784
         9.5004          9.7504
  21489476.7554   -3168782.40848  -2460691.85247                  21489485.8884
        28.5004         28.0004
  22036154.5214    8440847.97048   6577282.93546                  22036162.5404
        28.7504         24.2504
  21350890.4664   -3725473.44948  -2894214.38047                  21350899.3414
        32.5004         29.5004
 00  5  4 19 29 45.0010000  0  7G 4G 5G 6G17G10G24G30
  25073995.3334   12697502.72745   9894153.24545                  25074003.7864
         8.7504          8.2504
  20908169.8254    3497099.85148   2726738.59047                  20908178.9814
        32.0004         29.2504
  23228272.3884   -4051809.52946  -1520676.00546                  23228285.0244
        18.2504         17.0004
  24734054.9274   -2024954.51445  -1466986.40145                  24734073.2004
         9.7504          9.7504
  21489737.9034   -3167410.45348  -2459622.76547                  21489747.0484
        29.0004         28.2504
  22045893.7314    8492027.87448   6617163.37046                  22045901.7634
        28.7504         24.5004
  21350289.1144   -3728632.74248  -2896676.16547                  21350297.8844
        32.5004         29.2504
 00  5  4 19 30  0.0010000  0  7G 4G 5G 6G17G10G24G30
  25086467.7244   12763033.45545   9945216.10245                  25086475.2984
        11.0004          9.0004
  20914751.2944    3531685.70748   2753688.56747                  20914760.3214
        31.7504         29.2504
  23225320.5054   -4067320.08346  -1532762.08246                  23225332.8024
        17.5004         17.0004
  24729290.5754   -2049990.16845  -1486494.54445                  24729309.4584
        10.2504         10.2504
  21490031.2474   -3165868.77048  -2458421.42547                  21490040.4274
        29.0004         28.2504
  22055645.2784    8543272.97048   6657094.60446                  22055653.6494
        28.7504         24.5004
  21349717.2554   -3731638.74048  -2899018.49047                  21349725.9424
        32.5004         29.5004
 00  5  4 19 30 15.0010000  0  7G 4G 5G 6G17G10G24G30
  25098935.7554   12828568.86745   9996282.70545                  25098945.4154
         8.0004          8.5004
  20921361.6464    3566423.69548   2780757.09147                  20921370.7434
        31.7504         29.2504
  23222374.3964   -4082802.66246  -1544826.36046                  23222386.9274
        17.5004         17.2504
  24724539.6064   -2074960.61645  -1505951.91245                  24724560.1924
        10.7504         10.5004
  21490356.0214   -3164161.32448  -2457090.91747                  21490365.1534
        29.0004         28.2504
  22065408.7554    8594578.89748   6697073.24246                  22065416.9744
        28.7504         24.5004
  21349173.4274   -3734495.35248  -2901244.41747                  21349182.1144
        32.5004         29.5004
 00  5  4 19 30 30.0010000  0  7G 4G 5G 6G17G10G24G30
  25111410.3494   12894113.37945  10047356.25645                  25111419.7864
         9.0004          7.7504
  20928002.1694    3601318.27248   2807947.63547                  20928011.2554
        31.7504         29.5004
  23219434.4114   -4098252.56946  -1556865.17546                  23219446.9664
        17.5004         17.0004
  24719800.0364   -2099861.27445  -1525354.84245                  24719818.2634
        10.0004          9.5004
  21490713.2394   -3162283.34148  -2455627.52447                  21490722.3724
        28.7504         28.0004
  22075183.8334    8645949.77148   6737102.48746                  22075192.0994
        28.2504         24.2504
  21348659.4194   -3737197.69448  -2903350.12647                  21348668.2944
        31.5004         29.5004
 00  5  4 19 30 45.0010000  0  7G 4G 5G 6G17G10G24G30
  25123880.9274   12959661.88544  10098433.02045                  25123888.8174
         6.5004          8.0004
  20934671.2244    3636364.47748   2835256.32747                  20934680.4744
        32.0004         29.5004
  23216499.7004   -4113674.70446  -1568882.35746                  23216512.6184
        17.5004         17.0004
  24715074.2394   -2124696.77645  -1544707.10745                  24715094.5054
         9.2504         10.0004
  21491102.1144   -3160239.50748  -2454034.89747                  21491111.1534
        28.7504         28.0004
  22084970.9504    8697380.60348   6777178.44746                  22084979.1104
        28.5004         24.2504
  21348173.4974   -3739750.55848  -2905339.36847                  21348182.3024
        32.2504         29.5004
 00  5  4 19 31  0.0010000  0  7G 4G 5G 6G17G10G24G30
  25136360.0284   13025217.98245  10149515.59945                  25136370.4384
         8.5004          8.0004
  20941369.6614    3671565.71048   2862685.82347                  20941378.7244
        31.7504         29.2504
  23213570.8964   -4129065.32246  -1580874.97946                  23213583.7084
        17.7504         17.0004
  24710361.3024   -2149463.49145  -1564005.62545                  24710379.6104
        10.7504         10.0004
  21491523.5834   -3158026.06048  -2452310.10147                  21491532.5524
        28.7504         28.2504
  22094770.0914    8748874.72048   6817303.72346                  22094778.7314
        28.0004         24.2504
  21347716.9354   -3742150.06848  -2907209.10747                  21347725.6814
        30.7504         29.7504
 00  5  4 19 31 15.0010000  0  7G 4G 5G 6G17G10G24G30
  25148833.6224   13090778.15945  10200601.41845                  25148843.4354
         9.0004          7.2504
  20948097.2004    3706918.95248   2890233.76147                  20948106.4034
        32.0004         29.2504
  23210647.6694   -4144427.32846  -1592845.30046                  23210660.1184
        18.0004         17.5004
  24705660.4424   -2174164.35445  -1583252.98445                  24705679.7004
         9.5004         10.0004
  21491976.3334   -3155645.78748  -2450455.31447                  21491985.4784
        28.7504         28.2504
  22104580.4274    8800428.90948   6857475.80146                  22104588.6694
        28.7504         24.2504
  21347289.0524   -3744399.10848  -2908961.60347                  21347297.7514
        31.0004         29.5004
 00  5  4 19 31 30.0010000  0  7G 4G 5G 6G17G10G24G30
  25161308.4664   13156344.47043  10251691.99545                  25161319.4854
         5.7504          6.0004
  20954854.2164    3742425.83648   2917901.42547                  20954863.3494
        31.7504         29.2504
  23207729.9274   -4159758.92546  -1604791.93946                  23207742.0014
        18.2504         17.2504
  24700972.7554   -2198797.42145  -1602447.40045                  24700992.5054
         9.7504         10.0004
  21492461.2554   -3153096.85548  -2448469.10147                  21492470.4704
        29.2504         28.2504
  22114402.6224    8852044.69448   6897695.88646                  22114410.8064
        28.2504         24.2504
  21346889.9584   -3746495.50348  -2910595.14947                  21346898.7164
        29.7504         29.5004
 00  5  4 19 31 45.0010000  0  6G 5G 6G17G10G24G30
  20961639.4584    3778083.45148   2945686.54347                  20961648.5444
        32.0004         29.2504
  23204817.5284   -4175062.78446  -1616716.94946                  23204829.3564
        19.0004         17.7504
  24696297.8254   -2223365.51745  -1621591.26245                  24696316.9894
        10.0004         10.0004
  21492977.8414   -3150382.02248  -2446353.61847                  21492986.9384
        28.7504         28.2504
  22124235.9034    8903719.01948   6937961.57746                  22124244.2284
        29.0004         24.2504
  21346519.7944   -3748441.95248  -2912111.85747                  21346528.6224
        29.5004         30.0004
 00  5  4 19 32  0.0010000  0  6G 5G 6G17G10G24G30
  20968453.9034    3813892.54948   2973589.69647                  20968463.0604
        31.5004         29.2504
  23201910.6534   -4190338.10646  -1628619.74146                  23201922.6924
        19.5004         17.7504
  24691635.3174   -2247867.74945  -1640683.74045                  24691655.2434
        10.2504         10.0004
  21493526.2944   -3147500.19148  -2444108.00747                  21493535.3104
        29.0004         28.2504
  22134080.5674    8955452.44848   6978273.32946                  22134088.5994
        28.2504         24.2504
  21346178.0364   -3750237.44747  -2913510.94047                  21346186.7594
        27.5004         29.7504
 00  5  4 19 32 15.0010000  0  6G 5G 6G17G10G24G30
  20975297.1774    3849855.51548   3001612.74547                  20975306.3214
        31.7504         29.2504
  23199010.0284   -4205582.26046  -1640498.21646                  23199021.7394
        19.7504         18.0004
  24686984.3494   -2272301.47845  -1659722.90645                  24687005.0054
         9.2504          9.5004
  21494106.9584   -3144448.71348  -2441730.19847                  21494116.1144
        29.0004         28.0004
  22143936.8174    9007247.17948   7018632.84946                  22143945.0134
        28.7504         24.5004
  21345865.6304   -3751879.19648  -2914790.21747                  21345874.3994
        28.5004         29.7504
 00  5  4 19 32 30.0010000  0  6G 5G 6G17G10G24G30
  20982169.2394    3885967.18348   3029751.67047                  20982178.3134
        31.7504         29.2504
  23196113.8884   -4220800.42546  -1652356.46946                  23196125.4584
        19.2504         17.7504
  24682347.4744   -2296671.65745  -1678712.50445                  24682367.0014
         9.7504         10.0004
  21494718.9354   -3141232.50148  -2439224.03447                  21494727.9504
        28.7504         28.2504
  22153803.4504    9059098.02948   7059036.09646                  22153811.7984
        28.5004         24.5004
  21345581.6064   -3753372.09847  -2915953.51647                  21345590.3174
        26.2504         29.7504
 00  5  4 19 32 45.0010000  0  6G 5G 6G17G10G24G30
  20989069.1534    3922226.66248   3058005.77347                  20989078.3454
        32.0004         29.5004
  23193222.9894   -4235993.11546  -1664194.86146                  23193234.6064
        19.2504         17.7504
  24677722.2554   -2320978.94745  -1697653.13345                  24677741.1034
        10.0004          9.5004
  21495362.2714   -3137852.19148  -2436589.99347                  21495371.4624
        28.7504         28.2504
  22163680.9504    9111003.90648   7099482.22046                  22163689.2394
        29.0004         24.2504
  21345325.7314   -3754716.58748  -2917001.16747                  21345334.3254
        30.0004         30.0004
 00  5  4 19 33  0.0010000  0  6G 5G 6G17G10G24G30
  20995997.4274    3958634.01748   3086375.10247                  20996006.5714
        31.7504         29.5004
  23190336.2944   -4251160.12546  -1676013.24046                  23190347.7824
        19.5004         17.7504
  24673108.6064   -2345223.11245  -1716544.55545                  24673127.5244
         9.0004         10.0004
  21496036.8104   -3134307.45648  -2433827.83447                  21496045.9074
        29.5004         28.2504
  22173568.9114    9162964.66148   7139971.11046                  22173577.3414
        29.0004         24.2504
  21345098.0754   -3755912.34847  -2917932.92247                  21345106.5874
        26.7504         29.7504
 00  5  4 19 33 15.0010000  0  6G 5G 6G17G10G24G30
  21002954.3724    3995193.58348   3114863.03847                  21002963.4934
        31.7504         29.2504
  23187455.9504   -4266296.88046  -1687808.05746                  23187467.7434
        18.5004         17.5004
  24668507.2004   -2369399.55345  -1735383.18745                  24668525.1464
         9.2504          9.5004
  21496743.4504   -3130593.63648  -2430933.91747                  21496752.6424
        29.2504         28.2504
  22183468.0604    9214984.66748   7180506.17046                  22183476.2904
        28.7504         24.2504
  21344899.7474   -3756954.75048  -2918745.18247                  21344908.5174
        28.5004         30.0004
 00  5  4 19 33 30.0010000  0  6G 5G 6G17G10G24G30
  21009940.4664    4031905.17348   3143469.43447                  21009949.7044
        31.7504         29.2504
  23184581.0054   -4281403.44746  -1699579.34346                  23184592.8804
        18.7504         18.0004
  24663919.4034   -2393508.31545  -1754169.14945                  24663937.8064
        10.0004          9.2504
  21497482.3254   -3126710.68348  -2427908.21147                  21497491.2714
        29.5004         28.5004
  22193378.1774    9267063.57048   7221087.12546                  22193386.5134
        28.5004         24.0004
  21344730.7244   -3757843.66847  -2919437.84047                  21344739.4704
        27.7504         29.7504
 00  5  4 19 33 45.0010000  0  6G 5G 6G17G10G24G30
  21016955.2554    4068768.92448   3172194.39247                  21016964.2594
        31.7504         29.2504
  23181712.4114   -4296479.44146  -1711326.81046                  23181724.6734
        18.5004         17.7504
  24659344.4424   -2417549.01145  -1772902.02145                  24659363.7594
         9.7504          9.2504
  21498253.4664   -3122658.20948  -2424750.40947                  21498262.4114
        29.2504         28.2504
  22203299.5054    9319201.34248   7261713.94546                  22203307.7124
        28.5004         24.0004
  21344590.5524   -3758578.64348  -2920010.54547                  21344599.3924
        31.2504         29.7504
 00  5  4 19 34  0.0010000  0  6G 5G 6G17G10G24G30
  21023999.0284    4105783.38848   3201036.79647                  21024008.2314
        31.7504         29.5004
  23178848.7394   -4311526.21346  -1723051.50846                  23178860.7904
        18.5004         18.0004
  24654782.7554   -2441522.88345  -1791582.83145                  24654801.6264
         9.7504          9.5004
  21499056.6854   -3118437.37148  -2421461.41347                  21499065.5954
        29.5004         28.5004
  22213232.1534    9371396.33548   7302385.35946                  22213240.3374
        28.2504         23.7504
  21344479.9194   -3759160.91348  -2920464.26047                  21344488.7714
        30.2504         29.7504
 00  5  4 19 34 15.0010000  0  6G 5G 6G17G10G24G30
  21031071.3414    4142949.08948   3229997.04347                  21031080.4624
        31.7504         29.2504
  23175991.5054   -4326543.02346  -1734752.85146                  23176003.6494
        18.7504         18.0004
  24650233.4354   -2465429.34045  -1810211.14145                  24650251.4854
        10.0004          9.0004
  21499892.1384   -3114047.33448  -2418040.57647                  21499901.1774
        29.7504         28.5004
  22223175.5364    9423649.02948   7343101.73546                  22223183.7204
        28.2504         24.0004
  21344398.2554   -3759589.47248  -2920798.19647                  21344407.0244
        31.5004         29.5004
 00  5  4 19 34 30.0010000  0  6G 5G 6G17G10G24G30
  21038173.8964    4180272.48448   3259080.17047                  21038182.9464
        31.7504         29.2504
  23173140.9194   -4341523.25846  -1746425.70846                  23173153.0284
        18.7504         18.2504
  24645697.8964   -2489261.65945  -1828781.64345                  24645717.0364
         9.7504          9.7504
  21500760.8964   -3109481.47048  -2414482.72347                  21500769.9354
        29.5004         28.5004
  22233130.8724    9475965.76348   7383868.00946                  22233139.0444
        28.5004         23.7504
  21344347.3564   -3759857.65648  -2921007.16247                  21344356.2204
        31.5004         29.5004
 00  5  4 19 34 45.0010000  0  6G 5G 6G17G10G24G30
  21045305.3024    4217747.97848   3288281.81647                  21045314.4354
        31.7504         29.0004
  23170295.8724   -4356472.31846  -1758074.26846                  23170308.1694
        19.5004         18.2504
  24641176.2314   -2513025.20245  -1847298.58045                  24641194.5524
        10.5004          9.7504
  21501662.1614   -3104745.06948  -2410791.99747                  21501671.1064
        29.7504         28.5004
  22243097.5524    9528340.80348   7424679.72046                  22243105.6654
        28.0004         23.7504
  21344325.7314   -3759970.75148  -2921095.28947                  21344334.5834
        32.2504         29.5004
 00  5  4 19 35  0.0010000  0  6G 5G 6G17G10G24G30
  21052466.0134    4255377.95348   3317603.83147                  21052475.2744
        31.5004         29.2504
  23167457.8334   -4371387.65146  -1769696.54146                  23167469.8494
        19.5004         18.2504
  24636667.4194   -2536717.41145  -1865759.92545                  24636687.5214
        10.7504         10.2504
  21502596.4584   -3099835.48648  -2406966.31647                  21502605.3804
        29.7504         28.5004
  22253075.7244    9580776.34348   7465538.56446                  22253084.1774
        28.2504         23.7504
  21344334.2164   -3759926.01148  -2921060.42047                  21344343.0674
        31.2504         29.7504
 00  5  4 19 35 15.0010000  0  6G 5G 6G17G10G24G30
  21059655.4894    4293158.84548   3347043.45147                  21059664.6924
        31.7504         29.2504
  23164625.4194   -4386272.59246  -1781295.13046                  23164637.0134
        19.7504         18.5004
  24632171.1774   -2560341.53945  -1884168.23845                  24632190.0014
        10.2504         10.2504
  21503563.0214   -3094756.04848  -2403008.28447                  21503571.8254
        29.5004         28.5004
  22263064.7554    9633268.75947   7506441.73746                  22263073.1854
        27.7504         23.7504
  21344372.2474   -3759726.60848  -2920905.04047                  21344381.0404
        31.0004         29.7504
 00  5  4 19 35 30.0010000  0  6G 5G 6G17G10G24G30
  21066874.4034    4331094.39948   3376603.58347                  21066883.6064
        31.5004         29.2504
  23161799.4034   -4401123.22247  -1792866.99846                  23161811.0214
        20.2504         18.7504
  24627690.3104   -2583893.69645  -1902520.45345                  24627708.4424
        11.0004         10.2504
  21504562.5674   -3089502.74348  -2398914.76947                  21504571.5364
        29.7504         28.2504
  22273065.2164    9685821.66548   7547392.04446                  22273073.4354
        28.2504         23.7504
  21344440.2864   -3759368.59948  -2920626.07247                  21344449.1264
        32.2504         29.5004
 00  5  4 19 35 45.0010000  0  6G 5G 6G17G10G24G30
  21074122.9424    4369185.30848   3406284.77147                  21074132.0634
        31.5004         29.2504
  23158979.9664   -4415938.58147  -1804411.36746                  23158991.5244
        20.2504         18.7504
  24623222.3884   -2607373.05945  -1920815.94745                  24623241.4464
        11.2504         10.0004
  21505595.3644   -3084074.59448  -2394685.01547                  21505604.0994
        30.0004         28.5004
  22283077.5284    9738435.62247   7588389.92046                  22283085.9114
        27.5004         23.7504
  21344538.9974   -3758850.87848  -2920222.65047                  21344547.7904
        31.7504         29.5004
 00  5  4 19 36  0.0010000  0  6G 5G 6G17G10G24G30
  21081401.3104    4407433.01548   3436088.13847                  21081410.4314
        31.5004         29.2504
  23156167.5364   -4430717.00847  -1815926.96346                  23156179.0834
        20.5004         18.7504
  24618767.8414   -2630777.86745  -1939053.34445                  24618786.6654
        10.5004         10.7504
  21506662.0214   -3078469.90348  -2390317.69747                  21506670.8254
        29.7504         28.5004
  22293101.4744    9791112.04148   7629436.46946                  22293109.4814
        28.2504         23.5004
  21344668.0994   -3758171.75848  -2919693.46547                  21344676.9034
        32.0004         29.5004
 00  5  4 19 36 15.0010000  0  6G 5G 6G17G10G24G30
  21088709.4274    4445837.75048   3466013.86847                  21088718.7474
        31.2504         29.2504
  23153362.4584   -4445458.11947  -1827413.48146                  23153373.9934
        20.0004         18.5004
  24614328.7004   -2654107.65745  -1957232.29445                  24614346.7864
        11.0004         10.0004
  21507762.3564   -3072688.28148  -2385812.51047                  21507771.1854
        30.0004         28.2504
  22303137.3644    9843850.98047   7670531.73746                  22303145.5134
        27.7504         23.7504
  21344828.1064   -3757330.55748  -2919037.98147                  21344836.8294
        32.2504         29.2504
 00  5  4 19 36 30.0010000  0  6G 5G 6G17G10G24G30
  21096046.7084    4484394.57848   3496058.10647                  21096056.0994
        31.5004         29.2504
  23150563.4424   -4460166.62647  -1838874.59546                  23150575.2004
        20.7504         19.0004
  24609902.4274   -2677367.18145  -1975356.47745                  24609921.8604
        11.5004         10.2504
  21508895.0214   -3066734.34248  -2381173.05147                  21508903.8134
        29.7504         28.2504
  22313184.0674    9896647.37048   7711671.76346                  22313192.5094
        28.2504         23.5004
  21345018.2164   -3756331.97048  -2918259.86247                  21345026.9504
        32.0004         29.5004
 00  5  4 19 36 45.0010000  0  6G 5G 6G17G10G24G30
  21103412.7474    4523103.65548   3526220.98447                  21103422.0214
        31.5004         29.2504
  23147770.9114   -4474842.13647  -1850309.99746                  23147782.6464
        20.5004         18.5004
  24605488.7474   -2700556.04745  -1993425.62745                  24605506.6344
        10.5004          9.7504
  21510060.9504   -3060607.49148  -2376398.85647                  21510069.7904
        29.5004         28.5004
  22323241.9354    9949501.35548   7752856.67446                  22323250.2354
        28.0004         23.5004
  21345238.2784   -3755175.40448  -2917358.63947                  21345247.0244
        30.2504         29.5004
 00  5  4 19 37  0.0010000  0  6G 5G 6G17G10G24G30
  21110808.7784    4561970.04948   3556506.44447                  21110818.0994
        31.5004         29.2504
  23144985.3254   -4489479.37947  -1861715.58546                  23144996.9894
        20.5004         18.7504
  24601091.0364   -2723669.07645  -2011435.67245                  24601110.3644
        11.2504         10.5004
  21511260.8724   -3054302.52448  -2371485.87147                  21511269.6654
        29.7504         28.2504
  22333311.5994   10002417.83947   7794090.29246                  22333319.7714
        27.5004         23.5004
  21345489.2634   -3753855.66548  -2916330.27647                  21345497.8804
        31.2504         29.5004
 00  5  4 19 37 15.0010000  0  6G 5G 6G17G10G24G30
  21118233.7864    4600987.76948   3586909.82147                  21118243.1424
        31.2504         29.2504
  23142206.1464   -4504084.15447  -1873095.87046                  23142217.7164
        20.0004         18.2504
  24596706.2784   -2746712.00845  -2029391.08745                  24596725.1614
        11.0004         10.5004
  21512493.3104   -3047825.17348  -2366438.56147                  21512502.1964
        29.7504         28.2504
  22343392.0604   10055390.76348   7835367.88446                  22343400.3724
        28.0004         23.5004
  21345770.5994   -3752378.28648  -2915179.07047                  21345779.2864
        31.5004         29.5004
 00  5  4 19 37 30.0010000  0  6G 5G 6G17G10G24G30
  21125687.4354    4640157.50748   3617431.65347                  21125696.6614
        31.2504         29.0004
  23139433.0364   -4518655.50246  -1884450.10446                  23139444.6304
        19.2504         18.5004
  24592334.4664   -2769683.81545  -2047291.09345                  24592352.5284
        10.7504         10.7504
  21513759.1384   -3041174.47848  -2361256.17547                  21513767.8964
        29.7504         28.5004
  22353483.1924   10108420.84747   7876690.01046                  22353491.4934
        27.2504         23.2504
  21346081.9584   -3750742.16548  -2913904.17147                  21346090.6694
        31.2504         29.5004
 00  5  4 19 37 45.0020000  0  6G 5G 6G17G10G24G30
  21133170.9864    4679483.66448   3648075.37247                  21133180.3654
        31.5004         29.0004
  23136666.7754   -4533192.35347  -1895777.46346                  23136678.5334
        20.0004         18.5004
  24587976.6744   -2792584.07945  -2065135.34345                  24587994.1394
        11.2504         10.2504
  21515057.9244   -3034348.09348  -2355936.89147                  21515066.6114
        29.5004         28.2504
  22363586.2754   10161513.13047   7918060.60846                  22363594.6464
        27.5004         23.2504
  21346423.8384   -3748945.22348  -2912503.95647                  21346432.5144
        29.2504         29.5004
 00  5  4 19 38  0.0020000  0  6G 5G 6G17G10G24G30
  21140683.4794    4718961.53548   3678837.30647                  21140692.9394
        31.2504         29.2504
  23133907.3224   -4547692.03146  -1907075.85646                  23133919.1394
        19.5004         18.7504
  24583633.6194   -2815408.99545  -2082920.88345                  24583652.3264
        10.5004         10.2504
  21516390.4794   -3027345.93648  -2350480.64147                  21516399.2134
        29.7504         28.5004
  22373700.1584   10214661.08347   7959474.58746                  22373708.4944
        27.5004         23.0004
  21346796.7604   -3746986.85048  -2910977.95647                  21346805.5184
        30.7504         29.5004
 00  5  4 19 38 15.0020000  0  6G 5G 6G17G10G24G30
  21148224.9004    4758592.60448   3709718.61847                  21148234.3614
        31.2504         29.0004
  23131154.9944   -4562156.56746  -1918346.85746                  23131167.1624
        19.5004         18.7504
  24579303.5574   -2838161.07845  -2100649.68045                  24579321.7954
        10.7504         11.0004
  21517756.3464   -3020168.46948  -2344887.78147                  21517765.1154
        30.0004         28.2504
  22383824.9474   10267866.89647   8000933.65346                  22383833.3304
        26.7504         23.0004
  21347199.6504   -3744867.74848  -2909326.70747                  21347208.3264
        29.7504         29.5004
 00  5  4 19 38 30.0020000  0  6G 5G 6G17G10G24G30
  21155794.4714    4798370.67848   3740714.47847                  21155803.9794
        30.7504         29.0004
  23128408.0254   -4576591.82146  -1929595.05046                  23128420.0184
        19.7504         18.5004
  24574986.5024   -2860846.33145  -2118326.37045                  24575004.5064
        11.0004         10.7504
  21519154.5574   -3012821.73548  -2339163.03447                  21519163.3964
        29.7504         28.2504
  22393959.4084   10321124.21647   8042432.85146                  22393967.8264
        26.7504         23.0004
  21347632.4084   -3742593.80848  -2907554.80547                  21347641.0374
        30.2504         29.5004
 00  5  4 19 38 45.0020000  0  6G 5G 6G17G10G24G30
  21163392.2134    4838297.10748   3771825.93947                  21163401.6154
        31.0004         29.0004
  23125666.9244   -4590996.26747  -1940819.23446                  23125678.6584
        20.0004         18.7504
  24570682.7914   -2883463.16445  -2135949.77645                  24570700.8304
        10.5004         11.0004
  21520584.9394   -3005304.09548  -2333305.10947                  21520594.0144
        29.7504         28.2504
  22404104.0104   10374434.39347   8083973.23646                  22404112.3814
        27.2504         23.0004
  21348094.9394   -3740163.28548  -2905660.89447                  21348103.6154
        30.0004         29.7504
 00  5  4 19 39  0.0020000  0  6G 5G 6G17G10G24G30
  21171018.8614    4878375.06748   3803055.48047                  21171028.2524
        30.7504         28.7504
  23122932.0024   -4605366.59747  -1952016.82346                  23122943.6784
        20.2504         18.7504
  24566392.4634   -2906008.23345  -2153517.22545                  24566410.1744
        11.0004         11.0004
  21522048.5254   -2997612.26948  -2327311.45247                  21522057.4594
        29.7504         28.5004
  22414259.2134   10427800.38847   8125557.12146                  22414267.6664
        26.7504         23.0004
  21348587.8384   -3737572.81648  -2903642.35047                  21348596.5024
        29.0004         29.7504
 00  5  4 19 39 15.0020000  0  6G 5G 6G17G10G24G30
  21178674.5184    4918604.38948   3834402.96347                  21178684.0374
        31.0004         29.0004
  23120203.9944   -4619702.62747  -1963187.70246                  23120215.4824
        20.0004         19.0004
  24562116.2214   -2928481.34045  -2171028.63745                  24562134.0494
        10.7504         11.0004
  21523545.4864   -2989745.93948  -2321181.82447                  21523554.2324
        29.7504         28.2504
  22424424.9324   10481222.17247   8167184.47546                  22424433.3614
        26.5004         23.0004
  21349111.4164   -3734822.12248  -2901498.95647                  21349120.1744
        31.2504         29.7504
 00  5  4 19 39 30.0020000  0  6G 5G 6G17G10G24G30
  21186358.8694    4958985.83448   3865868.97647                  21186368.3544
        30.5004         29.0004
  23117482.9004   -4634003.40247  -1974331.10046                  23117494.6354
        20.5004         19.0004
  24557853.2294   -2950881.43845  -2188483.13245                  24557871.3964
        10.7504         11.0004
  21525075.7054   -2981704.07748  -2314915.41747                  21525084.5574
        29.7504         28.5004
  22434601.4794   10534700.28947   8208855.72446                  22434609.9904
        26.2504         23.0004
  21349665.4864   -3731910.04848  -2899229.80647                  21349674.2094
        29.2504         29.7504
 00  5  4 19 39 45.0020000  0  6G 5G 6G17G10G24G30
  21194071.6044    4999517.48748   3897452.04647                  21194081.0764
        30.7504         28.7504
  23114767.7684   -4648270.66547  -1985448.38946                  23114779.4324
        20.2504         19.2504
  24553604.1354   -2973210.30145  -2205882.14545                  24553622.8774
        10.7504         10.7504
  21526639.0574   -2973488.46148  -2308513.61747                  21526647.8384
        29.7504         28.5004
  22444788.5024   10588232.92547   8250569.45546                  22444796.9324
        26.7504         23.0004
  21350250.0884   -3728838.31648  -2896836.25447                  21350258.6824
        31.7504         29.7504
 00  5  4 19 40  0.0020000  0  6G 5G 6G17G10G24G30
  21201813.2054    5040199.39848   3929152.19247                  21201822.6894
        30.7504         28.7504
  23112059.2994   -4662504.03947  -1996539.26346                  23112071.1044
        20.7504         18.7504
  24549368.5184   -2995467.70545  -2223225.45445                  24549386.5574
        10.5004         10.7504
  21528235.4474   -2965098.84648  -2301976.23747                  21528244.3224
        30.0004         28.5004
  22454985.6894   10641819.81447   8292325.46246                  22454994.3774
        26.2504         23.0004
  21350865.1974   -3725606.44948  -2894317.92147                  21350873.9794
        31.0004         29.7504
 00  5  4 19 40 15.0020000  0  6G 5G 6G17G10G24G30
  21209582.8934    5081030.42648   3960968.53247                  21209592.4124
        30.7504         28.7504
  23109356.8074   -4676704.52647  -2007604.51946                  23109368.6584
        20.5004         19.0004
  24545146.5964   -3017654.51145  -2240513.76145                  24545165.2914
        10.7504         11.0004
  21529864.9244   -2956535.96548  -2295303.84147                  21529873.6354
        29.5004         28.2504
  22465193.1044   10695459.80947   8334122.84646                  22465201.6154
        26.5004         22.7504
  21351510.4164   -3722215.35448  -2891675.51247                  21351519.0454
        32.0004         29.5004
 00  5  4 19 40 30.0020000  0  6G 5G 6G17G10G24G30
  21217381.8224    5122012.59748   3992902.65047                  21217391.4474
        30.5004         29.0004
  23106661.2834   -4690869.78147  -2018642.32646                  23106672.8774
        20.2504         18.7504
  24540937.9164   -3039768.42845  -2257745.27545                  24540956.6114
        11.0004         10.7504
  21531527.8304   -2947797.54348  -2288494.66647                  21531536.7054
        29.5004         28.0004
  22475410.9084   10749154.77247   8375963.06346                  22475419.2094
        26.5004         22.7504
  21352186.4084   -3718662.63248  -2888907.16147                  21352195.1194
        31.7504         29.5004
 00  5  4 19 40 45.0020000  0  6G 5G 6G17G10G24G30
  21225208.5024    5163141.83948   4024951.36747                  21225218.3614
        30.5004         29.0004
  23103971.7214   -4705003.58747  -2029655.61146                  23103983.3384
        20.2504         19.2504
  24536743.0024   -3061813.38245  -2274923.04945                  24536760.5614
        10.7504         10.7504
  21533223.4004   -2938887.42948  -2281551.69847                  21533232.2174
        29.7504         28.2504
  22485638.7524   10802900.63547   8417842.94946                  22485647.2994
        26.2504         22.7504
  21352892.4944   -3714952.03848  -2886015.79147                  21352901.2994
        32.5004         29.7504
 00  5  4 19 41  0.0020000  0  6G 5G 6G17G10G24G30
  21233063.6274    5204420.76748   4057116.72247                  21233073.1934
        30.5004         28.7504
  23101288.4324   -4719103.10647  -2040642.19346                  23101300.1314
        20.0004         19.2504
  24532561.9944   -3083786.52445  -2292044.86145                  24532580.4434
        10.7504         10.7504
  21534952.0964   -2929802.71148  -2274472.67947                  21534960.8424
        29.5004         28.0004
  22495876.1664   10856699.93747   8459764.46746                  22495884.5614
        26.2504         22.7504
  21353629.2054   -3711080.61448  -2882999.10247                  21353638.1044
        31.7504         29.7504
 00  5  4 19 41 15.0020000  0  6G 5G 6G17G10G24G30
  21240946.4004    5245846.02748   4089396.10247                  21240955.9434
        30.5004         28.7504
  23098611.2834   -4733171.53046  -2051604.54346                  23098623.2294
        19.7504         19.0004
  24528393.2214   -3105690.90945  -2309113.09145                  24528411.8114
        11.0004         10.5004
  21536713.4554   -2920546.48148  -2267260.01547                  21536722.3304
        29.7504         28.2504
  22506123.2294   10910549.27047   8501724.97846                  22506131.4944
        26.2504         22.5004
  21354395.8144   -3707051.41748  -2879859.47247                  21354404.6544
        32.5004         29.7504
 00  5  4 19 41 30.0020000  0  6G 5G 6G17G10G24G30
  21248857.1044    5287416.05748   4121788.28647                  21248866.7174
        30.5004         28.7504
  23095939.7834   -4747210.11946  -2062543.64146                  23095951.5764
        19.5004         19.0004
  24524237.9164   -3127527.90645  -2326128.80945                  24524255.4984
        11.0004         10.5004
  21538507.2604   -2911120.02748  -2259914.70847                  21538515.9124
        29.5004         28.0004
  22516379.7684   10964447.05347   8543723.24046                  22516388.3034
        26.2504         22.5004
  21355192.4714   -3702865.60648  -2876597.80247                  21355201.2874
        32.5004         29.5004
 00  5  4 19 41 45.0020000  0  6G 5G 6G17G10G24G30
  21256795.5574    5329132.91348   4154294.88847                  21256805.1824
        30.5004         28.7504
  23093274.3304   -4761216.55447  -2073457.68546                  23093286.1704
        20.0004         18.7504
  24520095.7364   -3149295.17945  -2343090.19845                  24520113.6934
        10.7504         11.2504
  21540334.0104   -2901521.00548  -2252434.92847                  21540342.7324
        29.5004         28.2504
  22526645.7914   11018395.27047   8585760.80046                  22526654.2914
        26.2504         22.2504
  21356019.2444   -3698520.79648  -2873212.23747                  21356028.1664
        31.7504         29.5004
 00  5  4 19 42  0.0020000  0  6G 5G 6G17G10G24G30
  21264761.6274    5370993.47948   4186913.46547                  21264771.1704
        30.2504         29.0004
  23090614.6354   -4775193.67847  -2084348.89346                  23090626.1704
        20.5004         19.0004
  24515966.2294   -3170995.64845  -2359999.54845                  24515984.1394
        11.0004         11.0004
  21542192.8544   -2891752.51048  -2244823.09747                  21542201.5184
        29.5004         28.0004
  22536920.8544   11072390.75447   8627835.19146                  22536928.9794
        26.2504         22.5004
  21356875.6664   -3694019.89248  -2869705.04447                  21356884.6114
        32.2504         29.7504
 00  5  4 19 42 15.0020000  0  6G 5G 6G17G10G24G30
  21272755.0884    5412999.48948   4219645.37847                  21272764.7484
        30.2504         28.7504
  23087960.6664   -4789139.51947  -2095215.71746                  23087972.3184
        20.0004         19.2504
  24511849.1744   -3192627.32245  -2376855.27245                  24511868.0104
        11.2504         11.0004
  21544084.1664   -2881812.46148  -2237077.58647                  21544092.9244
        29.2504         28.0004
  22547205.2444   11126435.01347   8669947.59446                  22547213.8264
        26.2504         22.2504
  21357762.4554   -3689360.76248  -2866074.55947                  21357771.3184
        30.7504         29.7504
 00  5  4 19 42 30.0020000  0  6G 5G 6G17G10G24G30
  21280776.7994    5455153.83348   4252492.87547                  21280786.3184
        30.2504         28.7504
  23085313.3544   -4803051.04847  -2106055.81546                  23085325.0294
        20.5004         19.0004
  24507747.3614   -3214187.18545  -2393655.05845                  24507764.9794
        11.5004         10.5004
  21546008.8774   -2871697.78348  -2229195.99547                  21546017.5534
        29.5004         28.0004
  22557499.0724   11180530.95047   8712100.26546                  22557507.7254
        26.5004         22.0004
  21358679.7524   -3684540.30448  -2862318.35847                  21358688.5684
        32.0004         29.7504
 00  5  4 19 42 45.0020000  0  6G 5G 6G17G10G24G30
  21288826.2604    5497453.67148   4285453.74347                  21288835.9434
        30.5004         28.5004
  23082672.3614   -4816930.84747  -2116871.18346                  23082683.6744
        20.7504         19.2504
  24503657.0414   -3235677.72745  -2410400.82745                  24503674.5764
        11.2504         10.5004
  21547966.4794   -2861410.86648  -2221180.20147                  21547975.2014
        29.2504         27.7504
  22567802.5254   11234675.59447   8754290.88146                  22567810.8384
        26.5004         22.2504
  21359627.3614   -3679560.94648  -2858438.34547                  21359636.1194
        31.5004         29.7504
 00  5  4 19 43  0.0020000  0  6G 5G 6G17G10G24G30
  21296903.2054    5539898.10948   4318527.28547                  21296912.8074
        30.2504         28.5004
  23080037.0884   -4830779.54947  -2127662.32046                  23080048.2604
        21.2504         19.0004
  24499580.5804   -3257099.65845  -2427093.12545                  24499598.7714
        11.7504         11.2504
  21549956.6434   -2850952.47248  -2213030.78247                  21549965.3304
        29.5004         27.7504
  22578114.9394   11288868.06747   8796518.77746                  22578123.2874
        26.7504         22.2504
  21360604.7994   -3674423.31748  -2854434.99747                  21360613.5454
        31.7504         29.7504
 00  5  4 19 43 15.0020000  0  6G 5G 6G17G10G24G30
  21305007.7134    5582486.78548   4351713.22347                  21305017.3614
        30.2504         28.7504
  23077407.4474   -4844597.25647  -2138429.30946                  23077418.8774
        21.5004         19.5004
  24495517.1114   -3278453.21746  -2443732.13745                  24495535.0214
        12.0004         11.5004
  21551979.3464   -2840322.91348  -2204747.98647                  21551987.9514
        29.2504         28.0004
  22588436.4394   11343107.88847   8838783.55546                  22588444.8694
        26.5004         22.2504
  21361612.8144   -3669127.47648  -2850308.37047                  21361621.5614
        30.5004         30.0004
 00  5  4 19 43 30.0020000  0  6G 5G 6G17G10G24G30
  21313139.0024    5625218.08748   4385010.29947                  21313148.6624
        30.2504         28.7504
  23074783.5184   -4858385.28247  -2149173.17146                  23074794.3614
        21.2504         19.5004
  24491466.4864   -3299739.71845  -2460318.91145                  24491485.2294
        11.7504         11.5004
  21554034.3854   -2829523.40648  -2196332.77047                  21554042.8964
        29.5004         28.0004
  22598766.8544   11397393.42847   8881083.96946                  22598774.9554
        27.0004         22.2504
  21362650.4554   -3663674.58648  -2846059.37147                  21362659.3184
        31.0004         29.7504
 00  5  4 19 43 45.0020000  0  6G 5G 6G17G10G24G30
  21321297.6824    5668091.41448   4418418.04047                  21321307.2014
        30.2504         28.7504
  23072165.3224   -4872144.05547  -2159894.24346                  23072176.4124
        21.5004         19.5004
  24487428.5494   -3320959.53246  -2476853.72045                  24487447.0804
        12.2504         11.2504
  21556121.8384   -2818554.31048  -2187785.40547                  21556130.4554
        29.5004         28.0004
  22609105.4244   11451724.02247   8923419.49646                  22609113.7014
        26.5004         22.2504
  21363717.8694   -3658065.01848  -2841688.28247                  21363726.6624
        29.2504         29.7504
 00  5  4 19 44  0.0020000  0  6G 5G 6G17G10G24G30
  21329483.4244    5711108.07248   4451937.46847                  21329493.0144
        30.0004         28.5004
  23069553.0334   -4885871.85747  -2170591.16646                  23069564.3114
        21.2504         19.5004
  24483403.4164   -3342110.98946  -2493335.27545                  24483422.7214
        12.2504         11.5004
  21558241.7754   -2807414.01148  -2179104.63047                  21558250.3574
        29.5004         28.0004
  22619453.2684   11506100.93247   8965791.09746                  22619461.4044
        27.0004         22.2504
  21364815.3934   -3652297.09748  -2837193.80247                  21364824.2444
        32.0004         29.7504
 00  5  4 19 44 15.0020000  0  6G 5G 6G17G10G24G30
  21337696.2294    5754265.97748   4485566.96047                  21337705.9124
        30.0004         28.5004
  23066945.9554   -4899570.50347  -2181265.37446                  23066957.5024
        21.2504         19.5004
  24479390.9864   -3363195.91446  -2509764.97945                  24479409.2254
        12.2504         11.5004
  21560393.8694   -2796104.30448  -2170291.85947                  21560402.5334
        29.5004         28.0004
  22629809.1974   11560522.08047   9008197.17546                  22629817.6504
        26.7504         22.0004
  21365942.8854   -3646372.65348  -2832577.35547                  21365951.7254
        30.2504         29.7504
 00  5  4 19 44 30.0020000  0  6G 5G 6G17G10G24G30
  21345936.1044    5797566.58948   4519307.65247                  21345945.6824
        30.0004         28.5004
  23064345.0644   -4913238.32047  -2191915.56946                  23064356.3074
        21.0004         19.5004
  24475391.8074   -3384212.63646  -2526141.52045                  24475409.6824
        12.2504         11.7504
  21562578.6044   -2784623.39148  -2161345.66647                  21562587.3034
        29.5004         28.0004
  22640173.9864   11614988.90347   9050638.84746                  22640182.2994
        26.5004         22.0004
  21367100.4324   -3640289.80948  -2827837.48047                  21367109.1894
        32.0004         29.7504
 00  5  4 19 44 45.0020000  0  6G 5G 6G17G10G24G30
  21354202.4164    5841007.59948   4553157.74147                  21354212.1234
        29.7504         28.5004
  23061749.6114   -4926877.42547  -2202543.39146                  23061761.0064
        21.2504         19.7504
  24471404.5644   -3405163.26045  -2542466.59245                  24471423.2604
        11.5004         11.5004
  21564795.6274   -2772973.42248  -2152267.75347                  21564804.2794
        29.5004         27.7504
  22650546.8464   11669498.94447   9093114.19046                  22650555.2524
        26.5004         22.0004
  21368287.7294   -3634050.47848  -2822975.66947                  21368296.4284
        32.0004         29.7504
 00  5  4 19 45  0.0020000  0  6G 5G 6G17G10G24G30
  21362495.8304    5884587.41848   4587115.99347                  21362505.5964
        30.0004         28.2504
  23059159.4944   -4940489.15047  -2213149.87446                  23059171.0644
        21.5004         19.7504
  24467430.0414   -3426049.29346  -2558741.28745                  24467448.0574
        12.2504         11.5004
  21567044.4944   -2761155.88348  -2143059.26647                  21567053.1464
        29.5004         28.0004
  22660927.5804   11724050.45247   9135621.85346                  22660935.9634
        26.5004         22.0004
  21369504.5804   -3627656.17148  -2817993.09747                  21369513.3964
        32.0004         29.7504
 00  5  4 19 45 15.0020000  0  6G 5G 6G17G10G24G30
  21370815.9864    5928310.30248   4621185.72947                  21370825.6704
        29.7504         28.5004
  23056575.2754   -4954068.92147  -2223731.46246                  23056586.6004
        21.2504         19.5004
  24463468.5334   -3446866.12945  -2574962.10645                  24463487.2644
        11.2504         11.7504
  21569325.7134   -2749166.22448  -2133716.65547                  21569334.3424
        29.5004         28.0004
  22671317.3074   11778647.69147   9178165.14346                  22671325.4434
        26.5004         21.7504
  21370751.6584   -3621102.18448  -2812886.09447                  21370760.4754
        31.5004         29.7504
 00  5  4 19 45 30.0020000  0  6G 5G 6G17G10G24G30
  21379163.0964    5972174.91348   4655365.89547                  21379172.6864
        30.0004         28.0004
  23053997.1114   -4967617.84047  -2234289.00946                  23054008.2254
        21.2504         19.7504
  24459519.8854   -3467614.87546  -2591129.84845                  24459538.0064
        12.2504         11.5004
  21571639.9944   -2737005.48048  -2124240.73647                  21571648.5644
        29.2504         28.0004
  22681715.2524   11833289.39047   9220743.07946                  22681723.6934
        26.7504         22.0004
  21372029.1114   -3614389.47648  -2807655.41747                  21372038.0334
        31.7504         29.7504
 00  5  4 19 45 45.0020000  0  6G 5G 6G17G10G24G30
  21387537.2754    6016181.36848   4689656.59047                  21387546.8774
        29.7504         28.2504
  23051424.6664   -4981135.39947  -2244822.11246                  23051435.8504
        21.7504         20.0004
  24455584.6744   -3488295.17046  -2607244.26045                  24455602.4794
        12.2504         11.5004
  21573986.4944   -2724673.36248  -2114631.27447                  21573995.2644
        29.2504         28.0004
  22692121.4864   11887975.71247   9263355.78546                  22692129.8344
        26.5004         21.7504
  21373336.6274   -3607517.64448  -2802300.74847                  21373345.3384
        32.2504         29.7504
 00  5  4 19 46  0.0020000  0  6G 5G 6G17G10G24G30
  21395938.3464    6060329.25948   4724057.49847                  21395948.0764
        30.0004         28.2504
  23048858.0334   -4994621.83547  -2255330.97246                  23048869.4394
        21.5004         20.0004
  24451661.9714   -3508907.21645  -2623305.49445                  24451680.4554
        11.2504         11.2504
  21576366.0024   -2712170.05448  -2104888.42347                  21576374.7484
        29.7504         28.0004
  22702536.3854   11942705.88647   9306002.66746                  22702544.7684
        26.0004         21.7504
  21374674.6114   -3600486.84848  -2796822.20747                  21374683.4284
        32.2504         29.7504
 00  5  4 19 46 15.0020000  0  6G 5G 6G17G10G24G30
  21404366.6974    6104619.73748   4758569.51047                  21404376.5574
        29.5004         28.0004
  23046298.2294   -5008075.75047  -2265814.48246                  23046309.5884
        22.0004         20.0004
  24447753.2524   -3529449.60945  -2639312.43845                  24447770.3894
        11.7504         11.2504
  21578778.2134   -2699494.21348  -2095011.12247                  21578786.9004
        29.0004         28.0004
  22712959.7994   11997481.21147   9348684.72146                  22712967.9824
        26.2504         21.7504
  21376042.9794   -3593295.51548  -2791218.57247                  21376051.7954
        32.2504         29.5004
 00  5  4 19 46 30.0020000  0  6G 5G 6G17G10G24G30
  21412821.2134    6149048.02348   4793188.90547                  21412831.1314
        29.7504         28.0004
  23043743.1744   -5021501.67447  -2276276.19146                  23043754.4164
        22.0004         20.2504
  24443855.8384   -3549926.95445  -2655268.70245                  24443874.6274
        11.0004         11.7504
  21581222.2054   -2686650.38648  -2085002.93147                  21581230.9514
        29.2504         28.2504
  22723390.9244   12052296.73647   9391398.11046                  22723399.3074
        26.5004         21.7504
  21377441.2604   -3585948.24848  -2785493.43447                  21377450.2054
        32.0004         29.5004
 00  5  4 19 46 45.0020000  0  6G 5G 6G17G10G24G30
  21421301.4164    6193613.03348   4827914.83547                  21421311.1464
        29.5004         28.0004
  23041193.3854   -5034900.44147  -2286716.73846                  23041204.4984
        22.7504         20.0004
  24439971.7524   -3570340.02745  -2671174.88245                  24439990.1074
        11.7504         11.2504
  21583698.1194   -2673639.36248  -2074864.45347                  21583706.9004
        29.5004         28.2504
  22733829.2524   12107151.49147   9434142.06946                  22733837.7644
        26.0004         21.7504
  21378868.8694   -3578445.86948  -2779647.42947                  21378877.7444
        32.5004         29.7504
 00  5  4 19 47  0.0020000  0  6G 5G 6G17G10G24G30
  21429808.7914    6238318.46448   4862750.18647                  21429818.5104
        29.5004         27.7504
  23038649.6664   -5048267.97447  -2297132.94046                  23038660.7324
        22.2504         20.2504
  24436100.3074   -3590684.85845  -2687027.89745                  24436118.1934
        11.5004         11.2504
  21586206.5494   -2660457.10348  -2064592.54347                  21586215.1074
        29.5004         28.0004
  22744275.9244   12162049.02347   9476919.35846                  22744284.6004
        25.7504         21.5004
  21380326.6824   -3570784.15048  -2773677.26147                  21380335.4864
        32.5004         29.7504
 00  5  4 19 47 15.0020000  0  6G 5G 6G17G10G24G30
  21438342.6114    6283163.62348   4897694.41847                  21438352.4124
        29.7504         27.7504
  23036111.6894   -5061604.61847  -2307525.07046                  23036122.9204
        22.2504         20.2504
  24432241.5574   -3610961.88246  -2702828.07345                  24432259.0214
        12.0004         11.7504
  21588747.4474   -2647104.05848  -2054187.56047                  21588756.1354
        29.5004         28.2504
  22754730.8304   12216988.73447   9519729.51146                  22754739.4124
        26.0004         21.5004
  21381815.0644   -3562963.50948  -2767583.26247                  21381823.7994
        32.0004         29.7504
 00  5  4 19 47 30.0020000  0  6G 5G 6G17G10G24G30
  21446903.5574    6328152.03648   4932750.26947                  21446913.2874
        29.5004         27.7504
  23033580.5024   -5074906.52747  -2317890.14746                  23033591.4754
        22.7504         20.5004
  24428396.2294   -3631167.30245  -2718572.44645                  24428414.0334
        11.7504         11.5004
  21591321.6434   -2633576.48048  -2043646.57447                  21591330.4714
        29.2504         28.2504
  22765194.0644   12271974.16447   9562575.28746                  22765202.5294
        26.0004         21.5004
  21383334.1894   -3554980.13848  -2761362.45447                  21383342.9124
        32.0004         29.7504
 00  5  4 19 47 45.0020000  0  6G 5G 6G17G10G24G30
  21455490.9004    6373278.11648   4967913.39847                  21455500.6664
        29.5004         27.7504
  23031054.4324   -5088179.12947  -2328232.37846                  23031065.4284
        22.5004         20.5004
  24424564.1354   -3651306.50345  -2734265.22945                  24424581.7754
        11.5004         11.7504
  21593928.3384   -2619879.68548  -2032973.73147                  21593936.9904
        29.5004         28.2504
  22775665.3384   12326999.62247   9605452.25846                  22775673.4514
        26.0004         21.2504
  21384883.2914   -3546839.20148  -2755018.87547                  21384892.0494
        31.7504         29.7504
 00  5  4 19 48  0.0020000  0  6G 5G 6G17G10G24G30
  21464104.6744    6418544.74648   5003186.04347                  21464114.4514
        29.0004         27.7504
  23028535.1584   -5101419.19147  -2338549.25746                  23028546.0024
        22.2504         20.2504
  24420744.6114   -3671376.28345  -2749903.89645                  24420762.4284
        11.7504         11.7504
  21596567.3074   -2606010.77948  -2022166.77847                  21596576.0064
        29.5004         28.0004
  22786144.4794   12382067.82747   9648362.53746                  22786152.4634
        26.0004         21.5004
  21386463.2444   -3538537.61648  -2748550.11347                  21386471.8264
        30.7504         29.5004
 00  5  4 19 48 15.0020000  0  6G 5G 6G17G10G24G30
  21472744.5184    6463946.55748   5038564.02747                  21472754.3774
        29.0004         27.5004
  23026020.6974   -5114631.85447  -2348844.77746                  23026031.9634
        22.7504         20.2504
  24416937.4164   -3691381.84145  -2765492.54246                  24416955.9004
        11.7504         12.0004
  21599238.1434   -2591974.82148  -2011229.65447                  21599246.8654
        29.7504         28.2504
  22796630.5334   12437173.53847   9691302.03946                  22796639.0104
        25.5004         21.5004
  21388072.4864   -3530080.39848  -2741960.07347                  21388081.1394
        30.5004         29.7504
 00  5  4 19 48 30.0020000  0  6G 5G 6G17G10G24G30
  21481410.2994    6509485.34248   5074048.74247                  21481420.1584
        28.7504         27.5004
  23023511.9164   -5127814.93747  -2359117.26046                  23023522.9474
        22.0004         20.5004
  24413143.3464   -3711321.10645  -2781029.53945                  24413160.9864
        11.7504         11.5004
  21601941.3464   -2577769.60748  -2000160.64047                  21601949.9394
        29.5004         28.2504
  22807124.2134   12492318.44947   9734272.09546                  22807132.5374
        25.2504         21.2504
  21389711.9164   -3521465.36148  -2735247.06547                  21389720.5804
        31.2504         29.7504
 00  5  4 19 48 45.0020000  0  6G 5G 6G17G10G24G30
  21490102.3074    6555161.97848   5109640.87147                  21490112.2014
        28.7504         27.2504
  23021009.2754   -5140967.26447  -2369365.76946                  23021020.3894
        22.0004         20.7504
  24409361.3614   -3731192.91545  -2796513.95945                  24409378.9434
        11.5004         11.2504
  21604676.9554   -2563394.09148  -1988958.92647                  21604685.4674
        29.7504         28.2504
  22817625.7054   12547503.45347   9777273.37946                  22817634.1234
        25.2504         21.0004
  21391381.6504   -3512691.32048  -2728410.15547                  21391390.3144
        30.2504         29.5004
 00  5  4 19 49  0.0020000  0  6G 5G 6G17G10G24G30
  21498820.6664    6600977.41948   5145341.16547                  21498830.3144
        28.7504         27.2504
  23018512.3224   -5154087.64347  -2379589.38446                  23018523.3774
        22.0004         20.2504
  24405593.5024   -3750996.09146  -2811944.89046                  24405611.0144
        12.2504         12.0004
  21607445.3224   -2548847.08248  -1977623.58647                  21607453.9284
        29.7504         28.2504
  22828134.7914   12602729.51347   9820306.66346                  22828143.2444
        25.5004         21.0004
  21393081.7684   -3503757.19348  -2721448.50847                  21393090.4434
        31.5004         29.7504
 00  5  4 19 49 15.0020000  0  6G 5G 6G17G10G24G30
  21507565.4084    6646930.57748   5181148.76747                  21507575.2794
        28.5004         27.2504
  23016021.3934   -5167176.87747  -2389788.73546                  23016032.3304
        22.0004         20.2504
  24401837.6744   -3770731.46246  -2827323.02246                  24401855.9004
        12.2504         12.0004
  21610245.8224   -2534129.49848  -1966155.32547                  21610254.5334
        29.5004         28.2504
  22838651.4864   12657995.48847   9863371.04546                  22838659.8224
        25.0004         21.0004
  21394812.1824   -3494663.60348  -2714362.59647                  21394820.9514
        30.7504         29.5004
 00  5  4 19 49 30.0020000  0  6G 5G 6G17G10G24G30
  21516336.3614    6693022.25448   5217064.30747                  21516346.2324
        28.5004         27.2504
  23013536.8384   -5180233.89947  -2399962.98646                  23013547.8464
        22.0004         20.5004
  24398094.9164   -3790398.05946  -2842647.52246                  24398113.0964
        12.0004         12.0004
  21613078.9794   -2519240.23648  -1954553.28947                  21613087.5374
        29.7504         28.2504
  22849175.9864   12713302.25447   9906467.21846                  22849184.4394
        24.7504         21.0004
  21396573.1584   -3485409.45948  -2707151.58047                  21396581.9514
        31.7504         29.7504
 00  5  4 19 49 45.0020000  0  6G 5G 6G17G10G24G30
  21525133.4554    6739251.90548   5253087.36047                  21525143.2794
        28.2504         26.7504
  23011058.1194   -5193258.85047  -2410112.23946                  23011069.0454
        21.7504         20.2504
  24394366.0724   -3809996.04046  -2857918.57646                  24394383.3144
        12.7504         12.5004
  21615945.0644   -2504179.61948  -1942817.72647                  21615953.4364
        29.7504         28.2504
  22859708.1664   12768649.08047   9949594.60846                  22859716.7604
        25.0004         21.0004
  21398364.7754   -3475994.89448  -2699815.56047                  21398373.4284
        30.5004         29.7504
 00  5  4 19 50  0.0020000  0  6G 5G 6G17G10G24G30
  21533956.7524    6785617.33148   5289216.21047                  21533966.5884
        28.2504         27.0004
  23008585.3854   -5206253.64347  -2420238.00346                  23008596.5574
        22.0004         20.5004
  24390649.0884   -3829527.40546  -2873137.71746                  24390666.7404
        12.7504         12.0004
  21618843.2294   -2488949.61048  -1930950.17647                  21618851.7644
        30.0004         28.5004
  22870247.5494   12824033.95147   9992751.63746                  22870255.9204
        25.2504         20.7504
  21400186.5644   -3466421.82248  -2692356.03247                  21400195.1704
        30.5004         29.7504
 00  5  4 19 50 15.0020000  0  6G 5G 6G17G10G24G30
  21542806.0414    6832121.81148   5325453.41247                  21542816.0644
        28.2504         26.7504
  23006118.8544   -5219214.76947  -2430337.52546                  23006130.2364
        22.0004         20.5004
  24386945.7444   -3848988.65046  -2888302.22546                  24386963.9474
        12.5004         12.2504
  21621774.1824   -2473546.71848  -1918947.91147                  21621782.7754
        29.7504         28.2504
  22880794.9864   12879460.00447  10035940.75446                  22880803.2754
        25.2504         20.5004
  21402038.9164   -3456686.72148  -2684770.24847                  21402047.6044
        29.7504         29.7504
 00  5  4 19 50 30.0020000  0  6G 5G 6G17G10G24G30
  21551681.9474    6878763.59648   5361797.60747                  21551691.8304
        28.2504         26.7504
  23003658.5254   -5232143.68647  -2440411.95046                  23003669.5924
        22.2504         20.7504
  24383254.7994   -3868381.26145  -2903413.25146                  24383272.5334
        11.7504         12.0004
  21624737.8774   -2457972.53048  -1906812.16947                  21624746.4474
        29.5004         28.2504
  22891349.6114   12934925.51847  10079160.63146                  22891358.1704
        25.0004         21.0004
  21403922.1744   -3446791.04848  -2677059.33947                  21403930.8384
        30.7504         29.7504
 00  5  4 19 50 45.0020000  0  6G 5G 6G17G10G24G30
  21560582.9864    6925539.57148   5398246.36847                  21560592.8344
        28.0004         26.7504
  23001203.9084   -5245043.14847  -2450463.42946                  23001215.0104
        22.2504         20.7504
  24379577.2684   -3887708.11046  -2918473.01246                  24379595.1544
        12.5004         12.0004
  21627733.5724   -2442229.92748  -1894545.19347                  21627742.0724
        29.7504         28.2504
  22901911.1824   12990427.27947  10122408.74446                  22901919.6234
        24.5004         20.5004
  21405835.1434   -3436737.48748  -2669225.40447                  21405843.8424
        30.5004         30.0004
 00  5  4 19 51  0.0020000  0  6G 5G 6G17G10G24G30
  21569509.9634    6972450.19948   5434800.04647                  21569519.9634
        28.0004         26.7504
  22998754.9794   -5257912.44747  -2460491.40546                  22998765.9514
        22.5004         20.7504
  24375911.9394   -3906968.48246  -2933481.00446                  24375929.6394
        12.5004         12.2504
  21630761.5184   -2426318.21248  -1882146.44347                  21630770.3224
        29.0004         28.2504
  22912479.8464   13045965.70647  10165685.42646                  22912487.9244
        25.0004         20.7504
  21407778.4554   -3426525.26748  -2661267.83847                  21407787.2134
        31.2504         29.7504
 00  5  4 19 51 15.0020000  0  6G 5G 6G17G10G24G30
  21578462.3384    7019495.42947   5471458.61247                  21578472.2914
        27.7504         26.7504
  22996311.7134   -5270751.27247  -2470495.62646                  22996322.7684
        22.7504         21.0004
  24372259.6584   -3926162.11846  -2948436.98446                  24372277.2054
        12.2504         12.2504
  21633821.4554   -2410237.09148  -1869615.68547                  21633830.2254
        29.7504         28.2504
  22923055.4324   13101540.89547  10208990.76746                  22923063.9554
        24.7504         20.2504
  21409752.0724   -3416154.19148  -2653186.48547                  21409760.8424
        30.2504         29.7504
 00  5  4 19 51 30.0020000  0  6G 5G 6G17G10G24G30
  21587440.1114    7066674.67947   5508221.61347                  21587449.8774
        27.7504         26.7504
  22993874.4394   -5283559.88347  -2480476.30646                  22993885.3074
        22.7504         21.0004
  24368619.4164   -3945289.38746  -2963341.22145                  24368637.4904
        12.5004         11.7504
  21636913.9084   -2393987.03848  -1856953.29647                  21636922.4794
        29.5004         28.2504
  22933637.9164   13157152.17847  10252324.21446                  22933646.6154
        24.7504         20.7504
  21411755.7834   -3405624.40648  -2644981.46347                  21411764.6934
        30.2504         30.0004
 00  5  4 19 51 45.0020000  0  6G 5G 6G17G10G24G30
  21596443.7604    7113987.95747   5545089.04747                  21596453.5844
        27.7504         26.7504
  22991442.3934   -5296337.94547  -2490433.18246                  22991453.1894
        23.0004         21.0004
  24364992.3304   -3964349.98146  -2978193.53846                  24365009.8184
        12.2504         12.2504
  21640038.2754   -2377567.68548  -1844158.98147                  21640046.8114
        29.5004         28.2504
  22944227.5334   13212799.66647  10295685.88646                  22944235.7874
        24.7504         20.5004
  21413789.8854   -3394935.60048  -2636652.53047                  21413798.8184
        31.5004         30.0004
 00  5  4 19 52  0.0020000  0  6G 5G 6G17G10G24G30
  21605473.2524    7161437.78547   5582062.88447                  21605483.0884
        27.5004         26.7504
  22989017.4164   -5309082.62347  -2500364.04046                  22989028.2714
        22.2504         21.2504
  24361378.6434   -3983341.11646  -2992991.71846                  24361396.9634
        12.2504         12.2504
  21643195.6664   -2360976.36148  -1831230.66447                  21643204.2014
        29.5004         28.2504
  22954824.0644   13268485.84447  10339077.70046                  22954832.7754
        24.5004         20.2504
  21415854.5804   -3384085.04148  -2628197.55647                  21415863.4794
        31.2504         29.7504
 00  5  4 19 52 15.0020000  0  6G 5G 6G17G10G24G30
  21614528.8074    7209025.44847   5619144.12647                  21614538.9004
        27.2504         26.5004
  22986598.7134   -5321792.33647  -2510267.66546                  22986609.6154
        22.7504         20.7504
  24357778.0024   -4002261.18746  -3007734.52245                  24357795.7604
        12.0004         11.7504
  21646386.0104   -2344211.43548  -1818167.07347                  21646394.6974
        29.7504         28.2504
  22965428.5024   13324211.93647  10382500.61646                  22965437.2254
        24.5004         20.5004
  21417950.5334   -3373071.11748  -2619615.28647                  21417959.4204
        31.7504         29.7504
 00  5  4 19 52 30.0020000  0  6G 5G 6G17G10G24G30
  21623610.0644    7256747.64447   5656330.19847                  21623620.2294
        27.0004         26.7504
  22984186.1434   -5334470.02947  -2520146.33146                  22984197.1274
        22.7504         21.0004
  24354190.3464   -4021113.26246  -3022424.34746                  24354208.1744
        12.0004         12.0004
  21649608.6664   -2327276.03748  -1804970.64847                  21649617.2484
        29.7504         28.2504
  22976039.9634   13379974.72747  10425952.13246                  22976048.3814
        24.5004         20.2504
  21420076.8074   -3361896.81148  -2610908.03947                  21420085.7404
        31.7504         30.0004
 00  5  4 19 52 45.0020000  0  6G 5G 6G17G10G24G30
  21632717.0724    7304605.72647   5693622.15447                  21632727.1194
        27.0004         26.7504
  22981780.2054   -5347114.10747  -2529998.80646                  22981790.9794
        22.5004         21.2504
  24350616.1584   -4039895.84746  -3037060.00746                  24350633.6354
        12.7504         12.2504
  21652863.7294   -2310168.67748  -1791640.22647                  21652872.1584
        29.5004         28.2504
  22986658.3934   13435775.47447  10469433.22046                  22986667.1864
        24.5004         20.2504
  21422234.1194   -3350560.54948  -2602074.59347                  21422243.0764
        31.2504         29.7504
 00  5  4 19 53  0.0020000  0  6G 5G 6G17G10G24G30
  21641849.8694    7352597.58947   5731018.35547                  21641859.9634
        27.2504         26.5004
  22979380.1044   -5359726.26547  -2539826.41546                  22979391.0884
        22.2504         21.0004
  24347055.0024   -4058610.71646  -3051642.91146                  24347072.2914
        12.7504         12.5004
  21656151.7054   -2292891.30148  -1778177.32247                  21656160.2174
        29.7504         28.2504
  22997283.9004   13491612.09847  10512942.26946                  22997292.5184
        24.7504         20.2504
  21424421.8774   -3339064.05248  -2593116.29047                  21424430.7874
        31.5004         30.0004
 00  5  4 19 53 15.0020000  0  6G 5G 6G17G10G24G30
  21651007.5494    7400721.44047   5768517.40347                  21651017.5724
        27.0004         26.5004
  22976985.7214   -5372308.09747  -2549630.39146                  22976996.7294
        22.2504         21.0004
  24343505.9634   -4077259.40146  -3066174.25446                  24343523.3694
        13.5004         12.5004
  21659471.5574   -2275445.50548  -1764583.18447                  21659480.1974
        29.5004         28.2504
  23007915.6504   13547482.80947  10556477.88346                  23007924.1044
        24.5004         20.2504
  21426639.7914   -3327408.79948  -2584034.28347                  21426648.8184
        31.0004         30.2504
 00  5  4 19 53 30.0020000  0  6G 5G 6G17G10G24G30
  21660191.2914    7448981.08947   5806122.26747                  21660201.4674
        27.0004         26.7504
  22974597.9714   -5384855.41747  -2559407.47346                  22974609.2364
        22.2504         21.0004
  24339970.5254   -4095837.83046  -3080650.84646                  24339988.2014
        13.0004         12.7504
  21662824.1894   -2257827.18548  -1750854.60847                  21662832.6894
        29.7504         28.2504
  23018554.6114   13603391.26347  10600042.89746                  23018563.0184
        25.0004         20.5004
  21428888.5724   -3315590.69748  -2574825.38247                  21428897.5534
        32.0004         30.0004
 00  5  4 19 53 45.0020000  0  6G 5G 6G17G10G24G30
  21669400.3854    7497377.16847   5843833.44047                  21669410.6784
        27.0004         26.7504
  22972217.1744   -5397367.27947  -2569156.92646                  22972228.1934
        22.7504         21.2504
  24336448.4944   -4114345.12046  -3095071.99646                  24336465.9004
        13.5004         12.5004
  21666209.8224   -2240035.37448  -1736990.84547                  21666218.3934
        29.5004         28.2504
  23029201.1194   13659338.35247  10643638.01746                  23029209.5614
        24.7504         20.2504
  21431168.7604   -3303608.79948  -2565488.84647                  21431177.5764
        29.7504         30.0004
 00  5  4 19 54  0.0020000  0  6G 5G 6G17G10G24G30
  21678635.2684    7545905.17347   5881647.41347                  21678645.6074
        27.0004         26.7504
  22969842.1434   -5409847.77047  -2578881.94046                  22969853.1274
        22.7504         21.5004
  24332939.4864   -4132785.41746  -3109440.94646                  24332956.4474
        13.2504         13.5004
  21669627.7054   -2222074.41448  -1722995.28247                  21669636.3464
        29.5004         28.2504
  23039853.8854   13715319.53847  10687259.70946                  23039862.4084
        24.7504         20.2504
  21433479.4324   -3291467.19448  -2556027.86147                  21433488.2014
        30.7504         30.0004
 00  5  4 19 54 15.0020000  0  6G 5G 6G17G10G24G30
  21687895.9394    7594570.16947   5919568.13147                  21687906.4324
        27.2504         26.5004
  22967473.9944   -5422291.48547  -2588578.28846                  22967485.1074
        23.0004         21.2504
  24329444.3074   -4151153.46946  -3123753.60946                  24329461.2444
        13.5004         12.7504
  21673078.7604   -2203939.02748  -1708863.79947                  21673087.4364
        29.5004         28.2504
  23050514.3304   13771339.92247  10730911.94846                  23050522.7254
        24.7504         20.2504
  21435821.1584   -3279160.42748  -2546438.18347                  21435829.9754
        30.5004         29.7504
 00  5  4 19 54 30.0020000  0  6G 5G 6G17G10G24G30
  21697181.9394    7643368.28447   5957592.58047                  21697192.2914
        27.0004         27.0004
  22965112.3304   -5434702.02947  -2598248.79446                  22965123.1624
        23.0004         21.5004
  24325961.9634   -4169452.93046  -3138012.81946                  24325979.9324
        13.7504         12.7504
  21676562.1664   -2185632.91548  -1694599.27847                  21676570.7254
        29.5004         28.2504
  23061181.3774   13827395.57847  10774591.66846                  23061189.8304
        24.2504         20.0004
  21438193.8544   -3266692.19548  -2536722.68647                  21438202.6464
        30.2504         30.0004
 00  5  4 19 54 45.0020000  0  6G 5G 6G17G10G24G30
  21706493.3224    7692298.99847   5995720.35247                  21706503.7914
        27.5004         26.7504
  22962757.1584   -5447079.61947  -2607893.62846                  22962767.7094
        23.2504         21.7504
  24322492.8224   -4187684.06446  -3152218.79646                  24322510.2644
        13.5004         13.0004
  21680078.0964   -2167156.33948  -1680201.93547                  21680086.7134
        29.7504         28.2504
  23071855.0414   13883486.02147  10818298.48946                  23071863.6704
        24.0004         20.2504
  21440597.1894   -3254062.65948  -2526881.49747                  21440606.0064
        30.2504         29.7504
 00  5  4 19 55  0.0020000  0  6G 5G 6G17G10G24G30
  21715829.9084    7741362.24947   6033951.39947                  21715840.1894
        27.5004         26.7504
  22960407.9634   -5459423.90047  -2617512.49746                  22960418.5964
        23.2504         21.7504
  24319036.3934   -4205846.54146  -3166371.25846                  24319053.7754
        14.2504         13.0004
  21683626.7684   -2148509.04848  -1665671.56147                  21683635.3964
        29.5004         28.0004
  23082535.1824   13939611.23747  10862032.42346                  23082543.6354
        24.5004         20.0004
  21443031.1744   -3241271.59648  -2516914.44747                  21443039.9554
        31.7504         29.7504
 00  5  4 19 55 15.0020000  0  6G 5G 6G17G10G24G30
  21725191.0964    7790556.32647   6072284.38847                  21725201.3304
        27.5004         27.0004
  22958064.5884   -5471736.30647  -2627106.53046                  22958075.3034
        23.2504         21.7504
  24315592.6894   -4223941.94946  -3180471.47246                  24315609.9204
        13.7504         13.0004
  21687207.2214   -2129692.64748  -1651009.41647                  21687215.9554
        29.2504         28.2504
  23093221.7754   13995769.58247  10905792.16046                  23093230.1354
        24.2504         20.0004
  21445495.7914   -3228320.49048  -2506822.68247                  21445504.5374
        30.2504         29.7504
 00  5  4 19 55 30.0020000  0  6G 5G 6G17G10G24G30
  21734577.6044    7839882.10147   6110720.00147                  21734587.9904
        27.7504         27.0004
  22955728.2214   -5484015.61047  -2636674.77146                  22955739.1114
        23.2504         21.7504
  24312162.4324   -4241969.11146  -3194518.50246                  24312179.9084
        14.0004         13.5004
  21690820.4004   -2110705.94448  -1636214.57347                  21690829.0534
        29.7504         28.2504
  23103914.7754   14051961.89347  10949578.36746                  23103922.9244
        24.2504         19.7504
  21447991.0184   -3215207.95848  -2496605.13547                  21447999.7174
        31.7504         29.7504
 00  5  4 19 55 45.0020000  0  6G 5G 6G17G10G24G30
  21743988.0884    7889335.29047   6149254.89447                  21743998.6504
        27.5004         27.0004
  22953396.9634   -5496265.76547  -2646220.30046                  22953407.5254
        23.2504         22.0004
  24308743.8074   -4259932.08346  -3208515.51346                  24308761.5294
        14.0004         13.2504
  21694465.0574   -2091553.09648  -1621290.25747                  21694473.6744
        29.7504         28.2504
  23114613.5184   14108183.85447  10993387.66846                  23114621.7484
        23.7504         19.7504
  21450516.0644   -3201938.11748  -2486265.00647                  21450524.7054
        30.2504         29.7504
 00  5  4 19 56  0.0020000  0  6G 5G 6G17G10G24G30
  21753424.1114    7938920.85247   6187892.94047                  21753434.5454
        27.7504         27.0004
  22951072.4944   -5508481.51347  -2655739.01946                  22951083.0454
        23.2504         22.0004
  24305339.0254   -4277825.66146  -3222458.44646                  24305356.9004
        14.0004         13.7504
  21698142.4164   -2072229.02148  -1606232.52647                  21698150.9864
        29.7504         28.5004
  23125318.7834   14164440.44447  11037223.95946                  23125327.1434
        24.2504         19.5004
  21453072.2684   -3188505.79448  -2475798.27447                  21453080.8854
        32.2504         29.7504
 00  5  4 19 56 15.0020000  0  6G 5G 6G17G10G24G30
  21762885.5494    7988640.44647   6226635.42147                  21762895.9944
        27.7504         27.0004
  22948754.7524   -5520660.87847  -2665229.37746                  22948765.4204
        23.5004         21.7504
  24301947.1114   -4295647.91246  -3236345.81246                  24301964.8934
        14.2504         14.0004
  21701852.4554   -2052731.76448  -1591039.84247                  21701861.0374
        29.7504         28.2504
  23136031.0254   14220733.45047  11081088.62946                  23136039.2684
        24.2504         19.7504
  21455659.5724   -3174908.96448  -2465203.35147                  21455668.2254
        30.7504         29.7504
 00  5  4 19 56 30.0020000  0  6G 5G 6G17G10G24G30
  21772372.1434    8038492.40347   6265481.04747                  21772382.5414
        27.7504         27.2504
  22946443.6894   -5532805.06847  -2674692.34246                  22946454.2294
        23.5004         22.0004
  24298569.0334   -4313400.15846  -3250178.61846                  24298586.6504
        14.0004         13.5004
  21705595.5024   -2033062.66848  -1575713.26047                  21705604.0374
        29.7504         28.2504
  23146749.7524   14277061.10947  11124980.29946                  23146758.0764
        23.5004         19.5004
  21458278.1114   -3161148.90348  -2454481.23747                  21458286.7994
        32.2504         29.5004
 00  5  4 19 56 45.0020000  0  6G 5G 6G17G10G24G30
  21781882.9004    8088473.09447   6304426.98447                  21781893.4984
        27.7504         27.2504
  22944138.7444   -5544917.43847  -2684130.50046                  22944149.4474
        23.7504         22.2504
  24295203.2684   -4331085.82446  -3263959.54746                  24295221.1894
        14.2504         13.5004
  21709370.3614   -2013225.27348  -1560255.53247                  21709378.9554
        29.7504         28.2504
  23157474.6584   14333419.84947  11168896.18646                  23157483.0644
        23.7504         19.7504
  21460927.1194   -3147229.00148  -2443634.57047                  21460935.8074
        32.2504         29.7504
 00  5  4 19 57  0.0020000  0  6G 5G 6G17G10G24G30
  21791419.0414    8138584.76747   6343474.98647                  21791429.5104
        27.7504         27.0004
  22941840.0884   -5556995.37447  -2693541.83546                  22941850.7794
        23.7504         21.7504
  24291851.4474   -4348702.31846  -3277686.56446                  24291869.2644
        14.7504         13.5004
  21713177.6744   -1993217.05048  -1544664.69347                  21713186.3144
        29.5004         28.0004
  23168205.4944   14389811.99847  11212838.10646                  23168213.8424
        23.7504         19.2504
  21463606.6744   -3133146.63448  -2432661.30247                  21463615.2914
        31.5004         29.7504
 00  5  4 19 57 15.0020000  0  6G 5G 6G17G10G24G30
  21800980.0884    8188826.85647   6382624.60647                  21800990.5104
        27.7504         27.0004
  22939548.5334   -5569039.06247  -2702926.47946                  22939559.0614
        23.5004         22.0004
  24288511.9324   -4366249.98746  -3291359.97346                  24288529.0454
        14.2504         13.5004
  21717017.5574   -1973038.41248  -1528941.06547                  21717025.9514
        29.5004         28.2504
  23178943.0024   14446237.04947  11256805.66246                  23178951.2214
        23.7504         19.2504
  21466317.4944   -3118902.16048  -2421561.72547                  21466326.1584
        31.5004         29.7504
 00  5  4 19 57 30.0020000  0  6G 5G 6G17G10G24G30
  21810565.4794    8239198.85248   6421875.45647                  21810575.7714
        28.0004         27.2504
  22937263.0964   -5581048.66747  -2712284.56846                  22937273.7754
        23.7504         22.0004
  24285185.8614   -4383729.02046  -3304979.88146                  24285202.8224
        14.7504         14.0004
  21720889.6894   -1952689.67848  -1513084.89147                  21720898.2364
        29.5004         28.2504
  23189686.4004   14502694.49547  11300798.47646                  23189695.1584
        23.5004         19.5004
  21469058.8074   -3104495.66648  -2410335.89747                  21469067.6114
        31.5004         29.7504
 00  5  4 19 57 45.0020000  0  6G 5G 6G17G10G24G30
  21820174.9474    8289696.82547   6461224.46547                  21820185.2754
        27.7504         27.0004
  22934983.5104   -5593027.83847  -2721618.93946                  22934994.0144
        24.0004         22.0004
  24281871.6664   -4401143.10146  -3318549.18646                  24281888.8264
        15.0004         13.7504
  21724793.5644   -1932174.59548  -1497099.09247                  21724802.1584
        29.0004         28.0004
  23200435.4164   14559180.35047  11344813.40446                  23200443.8574
        23.5004         19.2504
  21471830.5574   -3089930.89148  -2398986.73447                  21471839.1744
        31.7504         29.5004
 00  5  4 19 58  0.0020000  0  6G 5G 6G17G10G24G30
  21829808.6274    8340322.03947   6500672.62847                  21829819.1664
        27.7504         26.7504
  22932709.7914   -5604974.85947  -2730928.26446                  22932720.0964
        24.5004         22.2504
  24278570.4324   -4418490.64846  -3332066.64346                  24278588.4944
        14.2504         13.5004
  21728729.3614   -1911491.60748  -1480982.46447                  21728737.9674
        29.0004         28.0004
  23211189.7994   14615696.03647  11388851.59046                  23211198.2174
        23.5004         18.7504
  21474632.6194   -3075206.24048  -2387512.99047                  21474641.4364
        31.7504         29.7504
 00  5  4 19 58 15.0030000  0  6G 5G 6G17G10G24G30
  21839467.3904    8391079.87047   6540224.12647                  21839477.9294
        27.7504         27.2504
  22930443.3044   -5616888.10747  -2740211.26646                  22930453.6794
        24.5004         22.2504
  24275281.9134   -4435770.49446  -3345531.33746                  24275299.8704
        14.7504         13.7504
  21732697.8514   -1890637.02648  -1464732.12547                  21732706.4444
        29.5004         28.0004
  23221951.1714   14672247.43447  11432917.60146                  23221959.4374
        23.5004         19.0004
  21477465.5074   -3060318.32848  -2375912.03047                  21477474.2534
        32.0004         29.7504
 00  5  4 19 58 30.0030000  0  6G 5G 6G17G10G24G30
  21849151.0694    8441966.19647   6579875.75147                  21849161.3864
        27.7504         26.7504
  22928183.3974   -5628763.06247  -2749464.43646                  22928194.0424
        24.2504         22.2504
  24272007.7494   -4452977.43046  -3358939.24346                  24272024.6514
        14.5004         13.5004
  21736699.0464   -1869610.79648  -1448348.03347                  21736707.6984
        29.0004         28.0004
  23232718.7334   14728829.64047  11477007.61946                  23232726.6944
        23.7504         19.0004
  21480329.9054   -3045266.21748  -2364183.12547                  21480338.7694
        31.5004         29.7504
 00  5  4 19 58 45.0030000  0  6G 5G 6G17G10G24G30
  21858858.6244    8492979.86347   6619626.60147                  21858869.1284
        27.7504         26.7504
  22925929.6084   -5640604.72347  -2758691.65146                  22925940.3824
        24.5004         22.2504
  24268745.9604   -4470116.94846  -3372294.58846                  24268763.6834
        14.2504         14.0004
  21740732.2494   -1848415.99148  -1431832.58547                  21740741.0544
        29.2504         28.0004
  23243491.6874   14785441.86147  11521121.02246                  23243499.9404
        23.7504         19.0004
  21483224.8354   -3030053.20348  -2352328.83847                  21483233.5464
        31.5004         29.7504
 00  5  4 19 59  0.0030000  0  6G 5G 6G17G10G24G30
  21868590.5854    8544122.37147   6659477.84747                  21868601.0544
        27.5004         26.7504
  22923683.2264   -5652411.23447  -2767891.48646                  22923693.6594
        25.0004         22.5004
  24265497.8744   -4487187.37346  -3385596.11146                  24265514.4954
        14.7504         14.0004
  21744797.8904   -1827050.82748  -1415184.38747                  21744806.4134
        29.5004         28.2504
  23254270.5624   14842085.57547  11565258.97046                  23254278.9094
        23.5004         19.0004
  21486150.8124   -3014677.34748  -2340347.66547                  21486159.6284
        31.5004         29.7504
 00  5  4 19 59 15.0030000  0  6G 5G 6G17G10G24G30
  21878347.3194    8595393.91647   6699429.63847                  21878357.6834
        27.5004         26.5004
  22921443.2264   -5664181.99047  -2777063.45246                  22921453.5544
        25.2504         22.5004
  24262262.1084   -4504188.15846  -3398843.37146                  24262278.8124
        14.2504         13.7504
  21748896.0224   -1805514.90448  -1398403.13247                  21748904.4994
        29.0004         28.2504
  23265055.5694   14898761.09447  11609421.70046                  23265063.9764
        23.7504         19.0004
  21489107.8744   -2999138.26148  -2328239.29847                  21489116.6444
        30.7504         29.7504
 00  5  4 19 59 30.0030000  0  6G 5G 6G17G10G24G30
  21888128.3124    8646792.74347   6739480.61247                  21888138.8744
        27.5004         26.7504
  22919209.6944   -5675918.45947  -2786208.70546                  22919219.9524
        25.0004         22.7504
  24259040.0694   -4521120.74546  -3412037.48046                  24259057.6404
        14.5004         13.7504
  21753026.2104   -1783809.78548  -1381490.03647                  21753034.8394
        29.2504         28.2504
  23275846.3124   14955466.79947  11653607.95546                  23275854.9404
        23.5004         19.2504
  21492095.5774   -2983437.51648  -2316004.96047                  21492104.4644
        31.5004         29.7504
 00  5  4 19 59 45.0030000  0  6G 5G 6G17G10G24G30
  21897933.2654    8698318.46147   6779630.46247                  21897943.7574
        27.0004         26.5004
  22916982.9604   -5687620.71247  -2795327.29546                  22916993.3824
        25.0004         22.7504
  24255830.8044   -4537985.30346  -3425178.58546                  24255847.3434
        14.5004         13.5004
  21757188.8514   -1761935.66648  -1364445.25347                  21757197.5974
        29.0004         28.0004
  23286642.7184   15012202.21947  11697817.34746                  23286651.2184
        23.0004         19.0004
  21495114.0384   -2967575.25348  -2303644.77247                  21495122.8664
        31.2504         29.7504
 00  5  4 20  0  0.0030000  0  6G 5G 6G17G10G24G30
  21907762.4994    8749971.07447   6819879.19247                  21907773.0034
        27.0004         26.2504
  22914762.5934   -5699288.31247  -2804418.88346                  22914772.8274
        25.5004         22.7504
  24252634.5384   -4554781.55646  -3438266.45946                  24252651.5344
        14.5004         14.0004
  21761383.4834   -1739892.40748  -1347268.66947                  21761392.0544
        29.0004         28.2504
  23297444.6874   15068967.40247  11742049.94946                  23297453.0694
        23.2504         18.7504
  21498163.5074   -2951550.99348  -2291158.34547                  21498172.3824
        32.0004         29.7504
 00  5  4 20  0 15.0030000  0  6G 5G 6G17G10G24G30
  21917615.6714    8801749.74547   6860226.14447                  21917626.2454
        26.5004         26.2504
  22912548.8274   -5710921.66347  -2813483.78646                  22912559.1324
        25.0004         22.7504
  24249451.2724   -4571509.92546  -3451301.45246                  24249468.2334
        15.0004         14.0004
  21765610.3514   -1717680.63148  -1329960.77547                  21765618.9094
        29.0004         28.0004
  23308252.2414   15125761.60347  11786305.15546                  23308260.6834
        23.7504         19.0004
  21501243.4444   -2935365.12448  -2278545.99447                  21501252.1904
        31.7504         29.7504
 00  5  4 20  0 30.0030000  0  6G 5G 6G17G10G24G30
  21927492.9374    8853655.23947   6900671.92147                  21927503.5694
        27.0004         26.2504
  22910341.5464   -5722519.62447  -2822521.11146                  22910352.1674
        25.2504         22.7504
  24246280.5854   -4588169.46046  -3464282.79146                  24246297.2534
        14.5004         14.0004
  21769869.4294   -1695299.22848  -1312520.70247                  21769878.1754
        29.0004         28.2504
  23319065.7104   15182585.76947  11830583.71146                  23319074.5504
        22.2504         18.7504
  21504354.4914   -2919016.65848  -2265806.94147                  21504363.3314
        31.7504         29.7504
 00  5  4 20  0 45.0030000  0  6G 5G 6G17G10G24G30
  21937395.0934    8905691.18847   6941219.35147                  21937405.5624
        26.7504         26.2504
  22908142.3824   -5734078.31147  -2831527.83146                  22908152.6284
        25.5004         22.7504
  24243124.1324   -4604756.27246  -3477207.45646                  24243140.6594
        14.5004         14.2504
  21774161.3274   -1672744.45348  -1294945.54147                  21774169.9684
        29.5004         28.0004
  23329885.3194   15239443.32047  11874888.27246                  23329893.9724
        23.2504         18.5004
  21507497.2264   -2902501.77848  -2252938.21947                  21507506.0194
        31.5004         29.7504
 00  5  4 20  1  0.0030000  0  6G 5G 6G17G10G24G30
  21947321.4374    8957854.38647   6981865.93347                  21947331.9294
        26.7504         26.0004
  22905949.5464   -5745600.50147  -2840506.11146                  22905960.0854
        25.5004         23.0004
  24239980.9764   -4621273.30546  -3490077.78246                  24239997.8084
        14.7504         14.0004
  21778485.9294   -1650019.21148  -1277237.54147                  21778494.5114
        29.0004         28.0004
  23340710.8124   15296331.42247  11919216.65546                  23340719.8154
        23.2504         19.0004
  21510670.8124   -2885823.36348  -2239942.06747                  21510679.6044
        30.7504         29.7504
 00  5  4 20  1 15.0030000  0  6G 5G 6G17G10G24G30
  21957272.4214    9010146.17447   7022612.71747                  21957283.0544
        26.5004         26.0004
  22903763.9054   -5757084.53847  -2849454.66846                  22903774.5264
        24.7504         22.7504
  24236851.5304   -4637718.94846  -3502892.45346                  24236868.4094
        14.5004         14.2504
  21782842.9604   -1627122.11748  -1259395.63247                  21782851.5774
        29.0004         28.0004
  23351542.1634   15353251.24547  11963569.75346                  23351550.6044
        23.0004         18.5004
  21513876.1084   -2868979.88848  -2226817.29647                  21513885.0654
        31.7504         29.7504
 00  5  4 20  1 30.0030000  0  6G 5G 6G17G10G24G30
  21967247.0694    9062564.31247   7063457.95847                  21967257.9254
        26.2504         26.2504
  22901585.4604   -5768532.19247  -2858374.86846                  22901595.8004
        25.2504         22.7504
  24233735.4054   -4654095.13346  -3515653.00846                  24233752.0264
        14.5004         14.0004
  21787232.5304   -1604055.29348  -1241421.46847                  21787241.1244
        29.0004         28.2504
  23362379.2414   15410200.63447  12007945.88446                  23362387.5654
        23.0004         18.7504
  21517112.5304   -2851973.02548  -2213565.21047                  21517121.3354
        30.7504         29.7504
 00  5  4 20  1 45.0030000  0  6G 5G 6G17G10G24G30
  21977245.5544    9115105.47847   7104399.05847                  21977256.4684
        26.7504         26.0004
  22899413.5544   -5779946.40847  -2867269.01446                  22899423.9994
        25.2504         23.0004
  24230631.5464   -4670404.89346  -3528361.79946                  24230647.9794
        15.2504         14.2504
  21791653.7654   -1580821.80648  -1223317.43347                  21791662.4874
        29.0004         28.0004
  23373221.5224   15467176.48447  12052342.64146                  23373230.3274
        22.7504         18.5004
  21520379.2654   -2834805.92248  -2200188.26047                  21520388.1164
        32.0004         30.0004
 00  5  4 20  2  0.0030000  0  6G 5G 6G17G10G24G30
  21987268.4054    9167775.28047   7145440.39347                  21987279.2724
        26.2504         26.0004
  22897249.1244   -5791321.31347  -2876132.53146                  22897259.4994
        25.7504         23.0004
  24227541.2724   -4686642.39146  -3541014.28146                  24227558.5734
        15.0004         14.5004
  21796107.7264   -1557415.80848  -1205078.98047                  21796116.2844
        29.0004         28.2504
  23384069.7104   15524184.21647  12096764.23546                  23384078.2334
        22.7504         18.5004
  21523677.6714   -2817472.83948  -2186681.97947                  21523686.4174
        31.7504         29.7504
 00  5  4 20  2 15.0030000  0  6G 5G 6G17G10G24G30
  21997314.5304    9220568.25147   7186577.70847                  21997325.3744
        26.5004         26.0004
  22895090.9054   -5802661.90447  -2884969.31546                  22895101.0114
        25.7504         23.0004
  24224464.0774   -4702812.69046  -3553614.41046                  24224480.4994
        14.7504         14.5004
  21800593.4834   -1533842.44348  -1186710.10747                  21800602.0894
        29.0004         28.2504
  23394922.7654   15581218.66647  12141206.64946                  23394931.2654
        22.0004         18.2504
  21527006.6794   -2799978.83748  -2173050.30447                  21527015.4604
        31.5004         29.5004
 00  5  4 20  2 30.0030000  0  6G 5G 6G17G10G24G30
  22007384.8974    9273488.06247   7227813.85547                  22007395.6474
        26.5004         25.7504
  22892940.3904   -5813964.11847  -2893776.18746                  22892950.5544
        26.0004         23.0004
  24221400.6244   -4718911.92446  -3566159.16146                  24221416.8704
        15.0004         14.2504
  21805111.9294   -1510097.92948  -1168207.87247                  21805120.5814
        29.5004         28.0004
  23405782.0464   15638283.46347  12185672.69946                  23405790.5584
        22.7504         18.2504
  21530367.1244   -2782319.94848  -2159290.14747                  21530376.0224
        31.7504         29.7504
 00  5  4 20  2 45.0030000  0  6G 5G 6G17G10G24G30
  22017478.9684    9326532.52547   7269147.13647                  22017489.6834
        26.5004         26.0004
  22890796.4914   -5825229.76247  -2902554.56246                  22890806.6904
        26.0004         23.0004
  24218349.7964   -4734941.99346  -3578650.01346                  24218366.6044
        15.5004         14.5004
  21809662.5694   -1486184.27248  -1149573.83747                  21809671.1754
        29.5004         28.2504
  23416646.4374   15695376.47747  12230160.74846                  23416655.0424
        22.0004         18.5004
  21533758.5694   -2764498.01448  -2145402.94147                  21533767.3394
        31.7504         29.7504
 00  5  4 20  3  0.0030000  0  6G 5G 6G17G10G24G30
  22027597.6084    9379706.12847   7310581.04547                  22027608.3004
        26.5004         26.0004
  22888660.5224   -5836454.02847  -2911300.69946                  22888670.8864
        25.5004         22.7504
  24215313.5154   -4750898.08746  -3591083.21746                  24215329.9724
        14.7504         14.7504
  21814246.2264   -1462096.87348  -1130804.41947                  21814254.8434
        29.5004         28.0004
  23427517.2654   15752502.19647  12274674.27246                  23427526.1164
        22.7504         18.2504
  21537181.8744   -2746508.27448  -2131384.98047                  21537190.7144
        32.2504         29.7504
 00  5  4 20  3 15.0030000  0  6G 5G 6G17G10G24G30
  22037740.2334    9433006.13647   7352113.45147                  22037750.9484
        26.2504         26.0004
  22886531.7884   -5847639.19747  -2920016.36646                  22886542.0584
        25.7504         23.0004
  24212290.9444   -4766782.69646  -3603460.72446                  24212307.3194
        15.5004         14.5004
  21818862.4444   -1437838.19548  -1111901.53447                  21818870.9914
        29.5004         28.2504
  23438393.4294   15809658.14647  12319211.36646                  23438402.1164
        22.2504         18.2504
  21540636.6084   -2728353.28848  -2117238.25747                  21540645.5654
        30.7504         29.7504
 00  5  4 20  3 30.0030000  0  6G 5G 6G17G10G24G30
  22047906.9914    9486431.90147   7393743.84747                  22047917.8354
        26.5004         25.7504
  22884410.8434   -5858785.61847  -2928701.84046                  22884421.1834
        26.0004         23.0004
  24209281.4444   -4782596.20546  -3615782.85846                  24209298.1714
        15.5004         14.0004
  21823511.1084   -1413408.73748  -1092865.57947                  21823519.6554
        29.5004         28.0004
  23449275.7104   15866843.61647  12363771.45146                  23449284.4914
        22.0004         18.0004
  21544122.8824   -2710033.34748  -2102962.99247                  21544131.8274
        31.2504         29.7504
 00  5  4 20  3 45.0030000  0  6G 5G 6G17G10G24G30
  22058097.7184    9539984.40547   7435473.00647                  22058108.5854
        26.5004         25.7504
  22882297.2884   -5869891.90047  -2937356.02946                  22882307.5114
        26.0004         23.2504
  24206286.3584   -4798337.37046  -3628048.58446                  24206303.3194
        15.7504         14.7504
  21828192.6244   -1388807.26748  -1073695.58347                  21828201.2884
        29.5004         28.2504
  23460163.5304   15924059.65847  12408355.36146                  23460172.0194
        22.7504         18.5004
  21547640.5694   -2691547.14948  -2088558.17647                  21547649.6084
        32.0004         29.7504
 00  5  4 20  4  0.0030000  0  6G 5G 6G17G10G24G30
  22068312.6554    9593662.94947   7477300.37247                  22068323.4054
        26.7504         26.0004
  22880191.1404   -5880958.33347  -2945979.18346                  22880201.5384
        25.2504         22.7504
  24203304.1874   -4814006.59146  -3640258.25346                  24203320.5504
        15.7504         15.0004
  21832906.8124   -1364034.33048  -1054391.98047                  21832915.2654
        29.7504         28.0004
  23471056.8824   15981305.75547  12452962.69946                  23471065.8274
        22.5004         18.5004
  21551190.1014   -2672895.09648  -2074024.12447                  21551198.9294
        32.0004         29.7504
 00  5  4 20  4 15.0030000  0  6G 5G 6G17G10G24G30
  22078551.0154    9647465.73647   7519224.54947                  22078561.8234
        26.7504         26.0004
  22878092.6554   -5891986.22047  -2954572.29946                  22878102.8544
        25.0004         23.0004
  24200335.7414   -4829605.24946  -3652412.95646                  24200352.4444
        15.2504         14.5004
  21837653.2724   -1339091.34148  -1034955.88047                  21837661.7844
        29.7504         28.2504
  23481956.1634   16038580.15847  12497592.07646                  23481965.2844
        22.7504         18.5004
  21554770.4914   -2654078.60848  -2059361.94547                  21554779.4604
        31.7504         30.0004
 00  5  4 20  4 30.0030000  0  6G 5G 6G17G10G24G30
  22088813.3274    9701394.53647   7561246.92547                  22088824.2884
        26.5004         25.7504
  22876001.6554   -5902973.41347  -2963133.70046                  22876011.9374
        25.0004         23.0004
  24197381.3194   -4845131.28846  -3664511.06346                  24197398.3864
        15.7504         14.5004
  21842432.3744   -1313976.38148  -1015385.76247                  21842440.7574
        29.5004         28.2504
  23492860.7724   16095884.75947  12542244.99946                  23492869.4484
        22.5004         18.2504
  21558383.1324   -2635095.68548  -2044570.06847                  21558392.0074
        31.7504         29.7504
 00  5  4 20  4 45.0030000  0  6G 5G 6G17G10G24G30
  22099099.9994    9755451.95647   7603369.51247                  22099110.8784
        27.0004         26.0004
  22873919.1324   -5913916.94347  -2971661.07846                  22873929.6014
        25.0004         22.7504
  24194440.7574   -4860581.86546  -3676550.36346                  24194457.5894
        15.2504         14.7504
  21847245.0224   -1288686.70048   -995679.50647                  21847253.3704
        30.0004         28.2504
  23503771.5934   16153222.24347  12586923.53946                  23503780.5734
        22.2504         18.2504
  21562027.6164   -2615943.39048  -2029646.22247                  21562036.5624
        31.7504         29.7504
 00  5  4 20  5  0.0030000  0  6G 5G 6G17G10G24G30
  22109410.5154    9809632.61447   7645588.14247                  22109421.5584
        26.7504         26.0004
  22871844.1634   -5924821.74847  -2980158.28646                  22871854.5264
        24.7504         23.0004
  24191514.1714   -4875962.01846  -3688534.80046                  24191530.3124
        15.0004         15.0004
  21852089.6944   -1263227.51948   -975841.16847                  21852098.0894
        30.0004         28.2504
  23514688.2884   16210587.28547  12631623.55846                  23514696.5544
        22.2504         18.0004
  21565703.3904   -2596626.75848  -2014594.31347                  21565712.3124
        30.7504         30.0004
 00  5  4 20  5 15.0030000  0  6G 5G 6G17G10G24G30
  22119744.6794    9863939.00147   7687904.73447                  22119755.3944
        26.7504         26.0004
  22869777.0074   -5935684.96247  -2988623.08346                  22869787.5694
        25.5004         23.2504
  24188601.1014   -4891269.03946  -3700462.23246                  24188617.4874
        15.2504         14.5004
  21856967.1794   -1237596.24948   -955868.73847                  21856975.6674
        29.7504         28.2504
  23525610.2494   16267982.44447  12676347.03846                  23525618.5974
        22.2504         18.0004
  21569411.0304   -2577143.04048  -1999412.21147                  21569419.9764
        32.0004         29.7504
 00  5  4 20  5 30.0030000  0  6G 5G 6G17G10G24G30
  22130102.1554    9918368.29647   7730317.10647                  22130113.1404
        27.0004         26.0004
  22867717.1084   -5946509.04847  -2997057.39246                  22867727.5304
        25.5004         23.2504
  24185701.5304   -4906505.50446  -3712334.70146                  24185718.8084
        15.0004         14.5004
  21861876.8044   -1211795.55448   -935764.28447                  21861885.1874
        29.7504         28.2504
  23536537.1634   16325404.87447  12721091.78246                  23536545.9564
        22.2504         18.2504
  21573150.0544   -2557494.86248  -1984101.95647                  21573158.9054
        31.2504         30.0004
 00  5  4 20  5 45.0030000  0  6G 5G 6G17G10G24G30
  22140483.2494    9972921.28447   7772825.85447                  22140494.0934
        26.7504         26.0004
  22865664.9604   -5957292.82347  -3005460.29146                  22865675.1714
        25.2504         23.2504
  24182815.9444   -4921670.33746  -3724151.34546                  24182832.9174
        15.0004         14.7504
  21866819.0304   -1185824.41448   -915527.02047                  21866827.3784
        29.7504         28.2504
  23547469.4994   16382855.54147  12765858.51446                  23547478.1404
        22.7504         18.2504
  21576920.4764   -2537681.24548  -1968662.79147                  21576929.4684
        32.5004         29.7504
 00  5  4 20  6  0.0030000  0  6G 5G 6G17G10G24G30
  22150887.4374   10027594.67747   7815428.42847                  22150898.3624
        27.0004         26.0004
  22863620.2184   -5968039.13747  -3013834.00246                  22863630.4404
        25.2504         23.2504
  24179942.8904   -4936766.50846  -3735914.49646                  24179958.9134
        15.2504         15.0004
  21871792.9834   -1159685.93948   -895159.36547                  21871801.4254
        29.7504         28.2504
  23558407.1634   16440331.19947  12810644.73646                  23558415.6404
        21.7504         17.7504
  21580721.8664   -2517704.99948  -1953096.90347                  21580730.8124
        32.2504         29.7504
 00  5  4 20  6 15.0030000  0  6G 5G 6G17G10G24G30
  22161315.0154   10082391.02247   7858126.80647                  22161325.8704
        26.7504         26.0004
  22861582.8434   -5978745.04747  -3022176.22146                  22861593.0894
        26.2504         23.2504
  24177083.9684   -4951791.16846  -3747621.92446                  24177100.4954
        15.0004         15.0004
  21876799.1404   -1133377.28548   -874659.10247                  21876807.4524
        29.5004         28.2504
  23569349.1944   16497834.58947  12855452.54246                  23569357.8704
        21.5004         17.5004
  21584554.7334   -2497563.36648  -1937402.13747                  21584563.7494
        32.2504         29.7504
 00  5  4 20  6 30.0030000  0  6G 5G 6G17G10G24G30
  22171765.1794   10137306.84447   7900918.28547                  22171775.9994
        26.7504         26.0004
  22859552.6164   -5989413.74047  -3030489.44246                  22859562.7804
        25.7504         23.2504
  24174237.9444   -4966747.65746  -3759276.22246                  24174254.7294
        15.7504         15.2504
  21881837.3514   -1106901.94948   -854028.96347                  21881845.7334
        30.0004         28.2504
  23580296.3904   16555362.06347  12900279.12946                  23580305.1014
        21.7504         18.0004
  21588418.3044   -2477259.69548  -1921581.11247                  21588427.3194
        32.0004         29.7504
 00  5  4 20  6 45.0030000  0  6G 5G 6G17G10G24G30
  22182238.5464   10192344.69147   7943804.84747                  22182249.3434
        27.0004         26.0004
  22857530.0694   -6000042.26847  -3038771.36846                  22857540.1404
        26.0004         23.5004
  24171405.0074   -4981633.11246  -3770875.17646                  24171421.6044
        15.7504         15.5004
  21886907.8124   -1080257.17948   -833266.78747                  21886916.1364
        29.7504         28.2504
  23591248.8584   16612916.46147  12945126.70046                  23591257.9684
        21.2504         18.0004
  21592313.4134   -2456791.11548  -1905631.58547                  21592322.4294
        32.2504         29.7504
 00  5  4 20  7  0.0030000  0  6G 5G 6G17G10G24G30
  22192734.3434   10247500.57847   7986783.38446                  22192745.1754
        26.2504         25.5004
  22855514.3664   -6010634.21247  -3047024.78446                  22855524.3664
        26.0004         23.5004
  24168585.3124   -4996451.17846  -3782421.63046                  24168601.6984
        15.7504         15.2504
  21892009.6014   -1053446.67148   -812375.47447                  21892017.8784
        30.0004         28.0004
  23602205.4524   16670493.97147  12989992.27346                  23602214.1754
        21.5004         17.7504
  21596239.1324   -2436161.26548  -1889556.39247                  21596248.0544
        32.0004         29.7504
 00  5  4 20  7 15.0030000  0  6G 5G 6G17G10G24G30
  22203253.4444   10302778.53447   8029857.04847                  22203264.3704
        26.5004         25.7504
  22853506.4994   -6021184.96047  -3055246.10246                  22853516.3944
        25.5004         23.5004
  24165778.9524   -5011197.51246  -3793912.15846                  24165795.6554
        15.5004         15.5004
  21897143.8044   -1026466.15648   -791351.68847                  21897152.2574
        30.0004         28.2504
  23613167.1714   16728098.57447  13034878.95746                  23613176.1514
        21.5004         18.2504
  21600196.3514   -2415365.79748  -1873352.14947                  21600205.2024
        32.2504         29.7504
 00  5  4 20  7 30.0030000  0  6G 5G 6G17G10G24G30
  22213795.8584   10358177.69347   8073025.14646                  22213806.8664
        26.5004         25.5004
  22851506.6164   -6031695.03647  -3063435.73246                  22851516.5464
        25.2504         23.5004
  24162986.4214   -5025872.69546  -3805347.27546                  24163003.0074
        16.0004         15.2504
  21902310.3194    -999316.38448   -770196.00947                  21902318.7724
        30.0004         28.2504
  23624134.2574   16785729.47547  13079786.13746                  23624143.0034
        21.2504         17.7504
  21604185.1324   -2394405.21748  -1857019.24747                  21604193.9954
        32.2504         29.7504
 00  5  4 20  7 45.0030000  0  6G 5G 6G17G10G24G30
  22224360.2494   10413696.02047   8116286.10947                  22224371.0694
        26.2504         25.7504
  22849513.9524   -6042166.07847  -3071594.94446                  22849523.9994
        25.2504         23.7504
  24160206.7414   -5040478.47446  -3816728.30046                  24160223.1164
        16.0004         15.2504
  21907508.4054    -971999.27848   -748909.94347                  21907516.6594
        29.7504         28.2504
  23635105.5074   16843384.77747  13124712.32646                  23635114.1364
        21.2504         18.2504
  21608204.7334   -2373281.37748  -1840559.12947                  21608213.5974
        32.0004         29.7504
 00  5  4 20  8  0.0030000  0  6G 5G 6G17G10G24G30
  22234947.1874   10469329.06547   8159636.45746                  22234958.0654
        26.2504         25.5004
  22847528.0304   -6052602.13947  -3079726.89646                  22847538.0424
        26.0004         23.7504
  24157439.6164   -5055018.99746  -3828058.47646                  24157455.7924
        16.0004         15.5004
  21912737.5624    -944519.01348   -727496.73847                  21912745.9214
        30.2504         28.2504
  23646080.6794   16901060.22147  13169654.20846                  23646089.1204
        21.5004         17.7504
  21612254.7574   -2351998.56948  -1823975.13947                  21612263.7264
        32.2504         29.5004
 00  5  4 20  8 15.0030000  0  6G 5G 6G17G10G24G30
  22245556.1634   10525079.26347   8203078.08946                  22245567.2064
        26.5004         25.5004
  22845549.1634   -6063000.24547  -3087829.27046                  22845559.3044
        26.2504         23.7504
  24154685.3904   -5069491.53346  -3839335.68246                  24154701.4834
        15.7504         14.7504
  21917998.8354    -916872.88348   -705954.29247                  21918007.0774
        29.7504         28.2504
  23657060.4994   16958758.28347  13214613.72446                  23657069.3044
        21.0004         17.7504
  21616335.7334   -2330553.90848  -1807265.03247                  21616344.6554
        32.0004         29.7504
 00  5  4 20  8 30.0030000  0  6G 5G 6G17G10G24G30
  22256187.2104   10580945.35747   8246610.03246                  22256198.5464
        26.0004         25.5004
  22843577.3274   -6073361.37547  -3095902.83846                  22843587.4914
        26.5004         23.7504
  24151944.5624   -5083897.09346  -3850560.69246                  24151960.3044
        16.2504         15.5004
  21923290.9374    -889062.11248   -684283.55547                  21923299.3434
        30.0004         28.2504
  23668044.0224   17016477.83347  13259589.97446                  23668053.1324
        21.2504         17.5004
  21620447.0464   -2308948.32548  -1790429.52947                  21620456.0034
        32.2504         29.7504
 00  5  4 20  8 45.0030000  0  6G 5G 6G17G10G24G30
  22266840.6404   10636929.56047   8290234.01546                  22266851.7534
        26.2504         25.2504
  22841613.4604   -6083682.83747  -3103945.49146                  22841623.6714
        26.2504         23.7504
  24149216.0154   -5098233.09146  -3861731.49146                  24149232.3194
        16.2504         15.2504
  21928614.9764    -861084.27348   -662482.63447                  21928623.3704
        30.0004         28.2504
  23679032.2414   17074221.28147  13304584.85846                  23679040.7764
        21.0004         17.7504
  21624589.4994   -2287179.48248  -1773466.81447                  21624598.4794
        32.0004         30.0004
 00  5  4 20  9  0.0030000  0  6G 5G 6G17G10G24G30
  22277516.0384   10693028.71947   8333947.56346                  22277527.2104
        26.0004         25.2504
  22839656.5224   -6093967.35847  -3111959.36146                  22839666.6044
        26.0004         24.0004
  24146500.8974   -5112502.41946  -3872850.35546                  24146516.7924
        16.2504         15.5004
  21933970.0934    -832942.34548   -640553.85347                  21933978.3234
        30.0004         28.5004
  23690024.4524   17131985.42847  13349595.86246                  23690033.3514
        21.0004         17.7504
  21628762.4294   -2265250.13348  -1756379.02447                  21628771.3274
        32.0004         29.7504
 00  5  4 20  9 15.0030000  0  6G 5G 6G17G10G24G30
  22288213.8664   10749246.08647   8377753.22346                  22288225.0384
        25.7504         25.2504
  22837706.7574   -6104211.34947  -3119941.64546                  22837716.4994
        25.7504         24.0004
  24143798.7494   -5126701.57646  -3883914.52646                  24143814.7024
        16.2504         15.5004
  21939357.1474    -804632.93548   -618494.56347                  21939365.4484
        29.7504         28.5004
  23701021.3514   17189773.64347  13394625.61646                  23701030.4954
        21.0004         17.2504
  21632966.8274   -2243156.89748  -1739163.53947                  21632975.8084
        32.2504         29.7504
 00  5  4 20  9 30.0030000  0  6G 5G 6G17G10G24G30
  22298934.1794   10805581.20147   8421650.63746                  22298945.3744
        26.0004         25.2504
  22835765.1554   -6114414.77247  -3127892.32546                  22835775.1204
        26.5004         24.2504
  24141109.9764   -5140830.61846  -3894924.07446                  24141126.4094
        16.7504         15.7504
  21944776.1874    -776156.24148   -596304.92847                  21944784.6514
        29.7504         28.5004
  23712022.4604   17247585.59547  13439673.88246                  23712030.9254
        20.5004         17.5004
  21637202.2024   -2220899.97248  -1721820.49847                  21637211.1124
        32.5004         29.7504
 00  5  4 20  9 45.0030000  0  6G 5G 6G17G10G24G30
  22309676.4054   10862031.84547   8465638.07846                  22309687.7184
        25.5004         25.0004
  22833830.8974   -6124579.38947  -3135812.75046                  22833841.0504
        26.5004         24.0004
  24138434.1554   -5154891.51346  -3905880.51246                  24138449.7924
        16.7504         16.0004
  21950226.5304    -747514.30748   -573986.52947                  21950234.9254
        30.2504         28.7504
  23723027.8824   17305419.12247  13484738.94246                  23723036.3944
        20.7504         17.2504
  21641468.3044   -2198481.18448  -1704351.32947                  21641477.2494
        32.2504         29.7504
 00  5  4 20 10  0.0030000  0  6G 5G 6G17G10G24G30
  22320440.1474   10918595.95347   8509713.92946                  22320451.3084
        25.5004         25.0004
  22831903.6944   -6134706.82247  -3143704.21946                  22831913.5424
        26.5004         24.2504
  24135771.0624   -5168886.10846  -3916785.29546                  24135787.0974
        16.2504         15.7504
  21955708.1404    -718709.18248   -551540.97047                  21955716.6044
        29.7504         28.5004
  23734036.8434   17363272.39047  13529819.40346                  23734045.7064
        20.2504         17.0004
  21645764.9294   -2175902.29048  -1686757.40447                  21645773.8394
        32.0004         29.7504
 00  5  4 20 10 15.0030000  0  6G 5G 6G17G10G24G30
  22331225.4684   10975273.38047   8553878.07846                  22331236.8744
        25.2504         24.5004
  22829983.6164   -6144796.87247  -3151566.54946                  22829993.6044
        26.7504         24.2504
  24133120.6084   -5182814.19046  -3927638.24746                  24133136.4914
        16.5004         15.7504
  21961220.4294    -689740.75248   -528968.15847                  21961228.9404
        30.0004         28.5004
  23745049.5624   17421145.30947  13574915.16146                  23745058.2264
        21.0004         17.0004
  21650092.0694   -2153163.11148  -1669038.58047                  21650101.0734
        32.5004         29.7504
 00  5  4 20 10 30.0030000  0  6G 5G 6G17G10G24G30
  22342033.2494   11032067.09147   8598132.83846                  22342044.6794
        25.5004         25.0004
  22828071.3274   -6154846.08947  -3159397.06546                  22828081.1874
        27.0004         24.5004
  24130483.1474   -5196672.45246  -3938436.79346                  24130499.0774
        16.5004         16.0004
  21966764.8124    -660605.75348   -506265.55847                  21966773.2764
        29.7504         28.5004
  23756067.0154   17479041.06847  13620028.72746                  23756076.3584
        20.2504         17.0004
  21654450.3824   -2130260.53348  -1651192.43347                  21654459.3514
        32.2504         29.7504
 00  5  4 20 10 45.0030000  0  6G 5G 6G17G10G24G30
  22352861.7574   11088971.89547   8642474.16546                  22352873.0934
        25.2504         24.7504
  22826165.7964   -6164859.29547  -3167199.51946                  22826175.5384
        27.2504         24.5004
  24127858.5854   -5210465.75146  -3949184.71146                  24127874.4444
        16.7504         15.7504
  21972339.6714    -631309.29348   -483437.14447                  21972348.2064
        29.7504         28.5004
  23767087.7724   17536954.42247  13665155.99246                  23767096.3194
        20.7504         17.5004
  21658838.6634   -2107199.49348  -1633222.81347                  21658847.7964
        32.5004         29.7504
 00  5  4 20 11  0.0030000  0  6G 5G 6G17G10G24G30
  22363711.8974   11145988.93347   8686902.94846                  22363723.4914
        25.2504         24.5004
  22824267.6794   -6174834.93547  -3174972.70246                  22824277.4564
        27.2504         24.5004
  24125246.3194   -5224192.75946  -3959881.00146                  24125262.1794
        16.5004         15.5004
  21977945.3194    -601850.30948   -460482.08447                  21977953.8084
        29.7504         28.5004
  23778111.7414   17594886.70847  13710298.01646                  23778120.1124
        21.0004         17.2504
  21663257.5774   -2083978.57048  -1615128.60447                  21663266.5224
        32.2504         29.7504
 00  5  4 20 11 15.0030000  0  6G 5G 6G17G10G24G30
  22374583.8664   11203121.07147   8731421.41446                  22374595.0734
        25.2504         24.5004
  22822377.0154   -6184769.65547  -3182714.00346                  22822386.9094
        27.2504         24.7504
  24122647.0774   -5237850.24946  -3970523.09346                  24122662.6444
        16.5004         16.0004
  21983582.8434    -572225.57848   -437397.87247                  21983591.5074
        29.7504         28.5004
  23789139.9524   17652840.84547  13755457.06446                  23789148.6874
        21.0004         17.2504
  21667707.2494   -2060594.47448  -1596907.25247                  21667716.1594
        32.5004         29.7504
 00  5  4 20 11 30.0030000  0  6G 5G 6G17G10G24G30
  22385477.4134   11260367.49747   8776028.93946                  22385488.6794
        25.2504         24.5004
  22820494.0624   -6194663.91047  -3190423.76046                  22820503.8394
        27.5004         24.7504
  24120061.1474   -5251438.86346  -3981111.53146                  24120076.7724
        16.5004         16.2504
  21989251.6164    -542435.75348   -414185.01547                  21989260.1984
        29.7504         28.5004
  23800172.4914   17710816.28447  13800632.71946                  23800181.3664
        21.0004         17.0004
  21672187.9684   -2037047.96048  -1578559.33947                  21672196.9254
        32.5004         29.7504
 00  5  4 20 11 45.0030000  0  6G 5G 6G17G10G24G30
  22396391.7494   11317721.36147   8820720.18146                  22396402.9794
        25.2504         24.5004
  22818617.7334   -6204524.00547  -3198106.91046                  22818627.6164
        27.0004         24.7504
  24117487.1554   -5264965.10546  -3991651.35546                  24117502.8744
        16.2504         16.0004
  21994950.6084    -512487.50048   -390848.70547                  21994959.2494
        30.0004         28.5004
  23811207.4524   17768806.14547  13845819.60346                  23811216.3274
        21.0004         17.7504
  21676698.3354   -2013345.54248  -1560089.94447                  21676707.2694
        32.2504         29.7504
 00  5  4 20 12  0.0030000  0  6G 5G 6G17G10G24G30
  22407325.9374   11375181.11347   8865493.93246                  22407337.0624
        25.0004         24.5004
  22816747.8124   -6214351.13247  -3205764.36446                  22816757.6364
        27.0004         24.5004
  24114924.7184   -5278430.19546  -4002143.53646                  24114940.2614
        16.5004         16.2504
  22000679.4684    -482382.19248   -367390.02047                  22000687.9334
        30.0004         28.7504
  23822245.1634   17826809.04947  13891016.65446                  23822253.8744
        20.0004         16.7504
  21681238.4524   -1989488.39648  -1541499.97847                  21681247.5504
        32.5004         29.7504
 00  5  4 20 12 15.0030000  0  6G 5G 6G17G10G24G30
  22418281.9604   11432755.09947   8910356.69646                  22418293.0974
        25.7504         24.5004
  22814885.5464   -6224136.53047  -3213389.31246                  22814895.5344
        27.0004         24.7504
  24112375.5464   -5291825.46146  -4012581.32046                  24112391.9794
        16.5004         16.2504
  22006439.8044    -452111.25648   -343802.27247                  22006448.2454
        30.0004         28.5004
  23833286.8124   17884833.55547  13936230.52546                  23833295.8394
        20.5004         17.0004
  21685809.3194   -1965467.95748  -1522782.77347                  21685818.4644
        32.5004         29.7504
 00  5  4 20 12 30.0030000  0  6G 5G 6G17G10G24G30
  22429258.8194   11490437.06347   8955303.59646                  22429269.9794
        25.5004         24.5004
  22813030.2724   -6233885.98047  -3220986.23846                  22813040.1204
        27.0004         24.7504
  24109838.8824   -5305156.92846  -4022969.37446                  24109854.9764
        16.5004         16.0004
  22012230.6084    -421680.89848   -320090.29947                  22012239.0854
        30.0004         28.7504
  23844331.5934   17942873.48947  13981456.44346                  23844340.4684
        20.5004         17.0004
  21690410.3124   -1941290.28548  -1503943.04947                  21690419.3624
        32.5004         29.5004
 00  5  4 20 12 45.0030000  0  6G 5G 6G17G10G24G30
  22440255.9134   11548228.33347   9000335.67546                  22440267.3434
        25.2504         24.5004
  22811182.1014   -6243597.75447  -3228553.81046                  22811192.1594
        27.0004         24.7504
  24107314.1714   -5318422.99646  -4033306.47346                  24107329.7844
        16.5004         16.0004
  22018051.9764    -391089.64948   -296252.95547                  22018060.4644
        30.2504         28.5004
  23855379.2264   18000930.11147  14026695.35246                  23855388.3004
        20.2504         16.7504
  21695041.2964   -1916953.81948  -1484979.58747                  21695050.2414
        32.5004         29.7504
 00  5  4 20 13  0.0030000  0  6G 5G 6G17G10G24G30
  22451273.5774   11606125.57347   9045450.31946                  22451285.0304
        25.5004         24.5004
  22809340.5544   -6253274.71247  -3236094.25346                  22809350.7414
        26.5004         24.7504
  24104801.4914   -5331626.67546  -4043594.96546                  24104817.1634
        16.7504         16.2504
  22023903.2334    -360340.70048   -272292.73047                  22023911.6164
        30.0004         28.5004
  23866429.6714   18059000.36847  14071944.88146                  23866437.9484
        20.5004         17.0004
  21699702.0624   -1892461.69748  -1465894.83547                  21699711.0654
        32.5004         29.7504
 00  5  4 20 13 15.0030000  0  6G 5G 6G17G10G24G30
  22462311.7334   11664131.74647   9090649.85046                  22462323.2694
        25.2504         24.7504
  22807506.4054   -6262913.55047  -3243604.99346                  22807516.3824
        26.7504         25.0004
  24102301.3044   -5344764.74546  -4053832.32946                  24102317.0814
        16.5004         16.2504
  22029785.1244    -329430.87748   -248207.15047                  22029793.3544
        30.2504         28.5004
  23877483.1714   18117087.30746  14117207.41846                  23877491.8704
        19.7504         17.0004
  21704393.0304   -1867810.70748  -1446686.29447                  21704402.0694
        32.0004         29.7504
 00  5  4 20 13 30.0030000  0  6G 5G 6G17G10G24G30
  22473370.0624   11722243.54047   9135931.67546                  22473381.8194
        25.2504         24.2504
  22805678.8434   -6272516.98447  -3251088.14246                  22805688.6444
        27.0004         25.0004
  24099812.7334   -5357840.11546  -4064020.82746                  24099829.0384
        17.0004         16.2504
  22035697.2574    -298363.22648   -223998.58647                  22035705.5584
        30.5004         28.5004
  23888539.5854   18175187.75447
        20.5004
  21709113.6634   -1843003.64548  -1427356.13147                  21709122.7264
        32.5004         30.0004
 00  5  4 20 13 45.0030000  0  6G 5G 6G17G10G24G30
  22484448.4054   11780460.88947   9181295.77646                  22484459.8584
        25.5004         24.5004
  22803858.2024   -6282084.77547  -3258543.51646                  22803868.0034
        27.2504         25.0004
  24097336.6554   -5370852.69546  -4074160.40846                  24097352.6904
        17.0004         16.0004
  22041639.0224    -267137.79748   -199667.07547                  22041647.3584
        30.0004         28.5004
  23899598.4134   18233301.83947
        20.5004
  21713864.0624   -1818040.42848  -1407904.29647                  21713873.0544
        32.5004         30.0004
 00  5  4 20 14  0.0030000  0  6G 5G 6G17G10G24G30
  22495547.7884   11838787.23347   9226744.78446                  22495559.3704
        25.5004         24.2504
  22802045.0154   -6291612.96647  -3265968.04146                  22802054.7334
        27.2504         25.2504
  24094873.3124   -5383798.65646  -4084248.08046                  24094888.9014
        17.0004         16.5004
  22047611.8584    -235750.94548   -175209.78347                  22047620.2184
        30.2504         28.5004
  23910660.1714   18291433.00547
        20.2504
  21718644.6794   -1792917.57048  -1388328.06147                  21718653.7294
        32.2504         29.7504
 00  5  4 20 14 15.0030000  0  6G 5G 6G17G10G24G30
  22506666.3274   11897216.13347   9272273.71346                  22506677.8274
        25.5004         24.5004
  22800238.2964   -6301107.46547  -3273366.31246                  22800247.8974
        27.7504         25.2504
  24092421.0854   -5396684.04446  -4094288.55246                  24092436.3824
        17.0004         16.5004
  22053613.9444    -204208.86948   -150631.53647                  22053622.3394
        30.2504         28.7504
  23921724.3904   18349575.11647     39261.66656                  23921732.9604
        20.2504         16.5004
  21723454.6714   -1767641.01048  -1368632.06147                  21723463.7924
        32.5004         30.0004
 00  5  4 20 14 30.0030000  0  6G 5G 6G17G10G24G30
  22517804.9054   11955747.73247   9317882.66246                  22517816.3474
        25.2504         24.5004
  22798438.0074   -6310567.76948  -3280737.93146                  22798447.4334
        28.0004         25.2504
  24089980.8354   -5409508.49146  -4104281.53146                  24089996.1084
        17.5004         16.7504
  22059645.8974    -172511.34648   -125932.16747                  22059654.2104
        30.5004         28.5004
  23932790.7964   18407728.39947     84575.89246                  23932799.5774
        20.0004         16.5004
  21728293.9604   -1742210.41348  -1348816.03347                  21728302.9874
        32.0004         30.0004
 00  5  4 20 14 45.0030000  0  6G 5G 6G17G10G24G30
  22528962.6474   12014382.52147   9363572.01846                  22528974.1944
        25.5004         24.5004
  22796644.3744   -6319992.83848  -3288082.09646                  22796653.9054
        28.2504         25.0004
  24087552.2414   -5422271.12946  -4114226.36246                  24087567.8784
        17.7504         17.0004
  22065707.4684    -140657.67448   -101111.11547                  22065715.8274
        30.5004         28.5004
  23943859.0624   18465893.49246    129899.32946                  23943868.1594
        19.7504         16.2504
  21733162.6324   -1716624.96748  -1328879.33947                  21733171.8474
        32.5004         30.0004
 00  5  4 20 15  0.0030000  0  6G 5G 6G17G10G24G30
  22540140.4834   12073122.71247   9409343.50946                  22540151.9134
        25.2504         24.2504
  22794857.9994   -6329380.19248  -3295396.87446                  22794867.5304
        28.0004         25.2504
  24085135.9524   -5434969.51346  -4124121.10546                  24085151.3784
        18.0004         17.0004
  22071799.1474    -108645.73548    -76166.74547                  22071807.5654
        30.0004         28.5004
  23954930.2724   18524072.63246    175233.70346                  23954939.1944
        19.2504         16.2504
  21738061.4134   -1690882.19648  -1308820.05747                  21738070.5344
        32.5004         30.0004
 00  5  4 20 15 15.0030000  0  6G 5G 6G17G10G24G30
  22551337.7964   12131964.60847   9455194.24646                  22551349.3904
        25.2504         24.2504
  22793078.3514   -6338732.87847  -3302684.63846                  22793087.8824
        27.7504         25.2504
  24082730.9444   -5447607.00646  -4133968.41246                  24082746.2294
        18.0004         17.0004
  22077920.0304     -76478.86448    -51101.64247                  22077928.4134
        30.5004         28.2504
  23966003.3824   18582262.46846    220576.40946                  23966011.9404
        19.5004         15.7504
  21742989.4994   -1664985.45948  -1288640.80247                  21742998.6324
        32.2504         30.0004
 00  5  4 20 15 30.0030000  0  6G 5G 6G17G10G24G30
  22562553.8824   12190904.18247   9501121.10346                  22562565.5584
        25.2504         24.2504
  22791304.3124   -6348054.58048  -3309948.26146                  22791314.0894
        28.0004         25.2504
  24080336.7804   -5460187.41446  -4143771.23546                  24080352.0424
        18.2504         17.0004
  22084070.0304     -44160.93948    -25918.83347                  22084078.4014
        30.0004         28.5004
  23977077.9914   18640459.00546    265924.34846                  23977086.5504
        19.2504         15.7504
  21747946.0854   -1638938.62248  -1268344.58347                  21747955.1944
        32.2504         30.0004
 00  5  4 20 15 45.0030000  0  6G 5G 6G17G10G24G30
  22573789.3974   12249946.91947   9547128.34046                  22573801.0974
        25.0004         24.2504
  22789537.5544   -6357339.37247  -3317183.11746                  22789547.1904
        27.7504         25.2504
  24077954.5624   -5472704.88846  -4153525.02646                  24077969.9294
        17.7504         17.0004
  22090249.8434     -11686.28048      -613.90247                  22090258.4134
        30.5004         28.5004
  23988154.4524   18698667.84246    311281.87046                  23988163.0584
        19.5004         16.0004
  21752932.3664   -1612736.00748  -1247926.98047                  21752941.5114
        32.5004         29.7504
 00  5  4 20 16  0.0030000  0  6G 5G 6G17G10G24G30
  22585044.6084   12309092.93047   9593216.04846                  22585056.4254
        25.0004         24.2504
  22787777.7104   -6366586.68347  -3324388.77846                  22787787.3584
        27.7504         25.0004
  24075584.6164   -5485159.02446  -4163229.45246                  24075599.6444
        18.0004         17.0004
  22096459.3974      20945.28348     24813.29547                  22096467.8154
        30.0004         28.5004
  23999233.7264   18756889.20546    356649.14446                  23999242.1084
        18.7504         15.7504
  21757948.3434   -1586377.32148  -1227387.76647                  21757957.5224
        32.2504         30.0004
 00  5  4 20 16 15.0030000  0  6G 5G 6G17G10G24G30
  22596318.7104   12368338.48747   9639381.33046                  22596330.5264
        25.0004         24.2504
  22786024.4214   -6375799.78148  -3331567.77446                  22786033.9294
        28.0004         25.0004
  24073226.0624   -5497553.22746  -4172887.18146                  24073241.4174
        17.7504         17.0004
  22102698.1474      53730.18748     50359.98047                  22102706.5074
        30.2504         28.2504
  24010314.5544   18815119.70946    402023.53346                  24010323.1834
        18.7504         15.5004
  21762992.9914   -1559865.97848  -1206729.59647                  21763002.2184
        32.2504         30.0004
 00  5  4 20 16 30.0030000  0  6G 5G 6G17G10G24G30
  22607611.6794   12427682.61647   9685623.41846                  22607623.5424
        25.0004         24.0004
  22784277.7884   -6384979.13548  -3338720.47746                  22784287.2374
        28.2504         25.2504
  24070878.7414   -5509888.25246  -4182498.80146                  24070894.1904
        18.0004         17.2504
  22108965.8274      86667.62348     76025.52047                  22108974.1044
        30.2504         28.2504
  24021397.0624   18873358.23346    447404.18446                  24021406.0544
        18.5004         15.7504
  21768067.2334   -1533202.76048  -1185953.08447                  21768076.4134
        32.2504         30.2504
 00  5  4 20 16 45.0030000  0  6G 5G 6G17G10G24G30
  22618924.0694   12487129.84947   9731945.84746                  22618935.6514
        24.7504         24.2504
  22782538.1794   -6394119.85948  -3345843.08046                  22782547.7104
        28.0004         25.2504
  24068543.3274   -5522159.20446  -4192060.48946                  24068559.0224
        18.0004         16.7504
  22115263.7184     119762.33348    101813.61147                  22115272.1594
        30.2504         28.7504
  24032481.7654   18931609.68046    492794.90346                  24032490.1594
        19.0004         15.5004
  21773170.5544   -1506382.79748  -1165054.43447                  21773179.7224
        32.2504         30.0004
 00  5  4 20 17  0.0030000  0  6G 5G 6G17G10G24G30
  22630255.1164   12546675.23847   9778344.75746                  22630266.7334
        24.7504         24.0004
  22780805.4994   -6403226.42447  -3352939.06546                  22780815.1474
        27.7504         25.2504
  24066219.5774   -5534370.78346  -4201575.90846                  24066234.7224
        18.0004         17.0004
  22121590.2654     153009.49848    127720.50247                  22121598.6124
        30.2504         28.5004
  24043568.1874   18989869.07846    538191.82946                  24043576.9794
        18.7504         15.7504
  21778303.4374   -1479410.74948  -1144037.27447                  21778312.6514
        31.7504         30.0004
 00  5  4 20 17 15.0030000  0  6G 5G 6G17G10G24G30
  22641604.4054   12606315.96347   9824817.95746                  22641616.2804
        25.0004         24.0004
  22779078.3044   -6412301.07548  -3360010.18546                  22779087.9294
        28.0004         25.2504
  24063906.5854   -5546525.47746  -4211047.02146                  24063921.8944
        17.7504         17.2504
  22127945.6474     186406.41348    153744.07847                  22127953.9834
        30.7504         28.7504
  24054655.6794   19048133.92746    583592.98546                  24054664.3664
        18.5004         15.7504
  21783464.3514   -1452289.11548  -1122903.55247                  21783473.4374
        32.0004         30.0004
 00  5  4 20 17 30.0030000  0  6G 5G 6G17G10G24G30
  22652972.6944   12666055.85347   9871368.43046                  22652984.4994
        24.7504         23.5004
  22777358.3514   -6421339.54748  -3367053.11046                  22777368.0584
        28.0004         25.5004
  24061605.0224   -5558619.09346  -4220470.52446                  24061620.3314
        17.7504         17.0004
  22134329.9914     219956.98848    179887.38647                  22134338.4444
        30.5004         28.7504
  24065744.8194   19106408.13346    629001.43946                  24065753.7414
        18.2504         15.7504
  21788654.7494   -1425013.92348  -1101650.18047                  21788663.9994
        32.0004         30.2504
 00  5  4 20 17 45.0040000  0  6G 5G 6G17G10G24G30
  22664359.6844   12725895.40247   9917996.55846                  22664371.5354
        24.5004         23.7504
  22775644.6374   -6430345.56348  -3374070.74846                  22775654.1094
        28.2504         25.5004
  24059314.4494   -5570655.74046  -4229849.63946                  24059329.5354
        17.7504         17.2504
  22140743.5744     253660.18948    206149.62747                  22140751.9454
        30.5004         28.7504
  24076836.1764   19164692.22546    674417.58246                  24076845.2274
        18.0004         15.5004
  21793874.0274   -1397586.66848  -1080278.31347                  21793883.2774
        32.0004         30.0004
 00  5  4 20 18  0.0040000  0  6G 5G 6G17G10G24G30
  22675765.4494   12785831.89247   9964700.22346                  22675777.2074
        24.2504         23.5004
  22773938.4184   -6439312.07348  -3381057.60146                  22773948.1134
        28.5004         25.5004
  24057036.3484   -5582628.16146  -4239178.71146                  24057051.8794
        18.0004         17.2504
  22147186.3794     287516.95448    232531.52947                  22147194.7974
        30.5004         28.5004
  24087928.5664   19222983.95246    719839.70146                  24087937.5234
        18.5004         15.5004
  21799122.4494   -1370005.43748  -1058786.47047                  21799131.6174
        32.2504         30.0004
 00  5  4 20 18 15.0040000  0  6G 5G 6G17G10G24G30
  22687188.8554   12845861.73347  10011476.63046                  22687200.7544
        24.5004         23.7504
  22772237.9574   -6448246.79548  -3388019.68646                  22772247.6174
        28.2504         25.5004
  24054768.6134   -5594544.47946  -4248464.06446                  24054783.7234
        18.0004         17.2504
  22153657.1134     321522.06448    259029.02247                  22153665.6374
        30.5004         28.5004
  24099021.9494   19281279.64646    765264.89046                  24099030.6374
        18.7504         15.7504
  21804399.3164   -1342275.74248  -1037178.93747                  21804408.5784
        32.0004         30.0004
 00  5  4 20 18 30.0040000  0  6G 5G 6G17G10G24G30
  22698630.3244   12905987.41947  10058327.72346                  22698642.1054
        24.2504         23.5004
  22770544.4964   -6457146.84448  -3394954.74946                  22770554.3094
        28.2504         25.5004
  24052511.8554   -5606401.87246  -4257703.50346                  24052526.6724
        18.0004         17.0004
  22160157.0194     355678.25248    285644.24047                  22160165.3914
        30.5004         28.5004
  24110116.5984   19339581.98546    810695.27146                  24110125.7774
        18.5004         15.7504
  21809704.7854   -1314394.84348  -1015453.58147                  21809713.9884
        32.2504         30.0004
 00  5  4 20 18 45.0040000  0  6G 5G 6G17G10G24G30
  22710091.0594   12966213.40847  10105256.97746                  22710102.9574
        24.2504         23.2504
  22768858.2074   -6466007.40348  -3401859.04647                  22768867.8554
        28.0004         25.7504
  24050267.6844   -5618195.69846  -4266893.40346                  24050283.0864
        18.2504         17.2504
  22166686.3244     389989.96848    312380.64647                  22166694.6484
        30.2504         28.5004
  24121213.6214   19397895.62146    856134.44646                  24121223.5164
        18.7504         15.5004
  21815040.1524   -1286358.02048   -993606.73047                  21815049.2384
        32.2504         30.0004
 00  5  4 20 19  0.0040000  0  6G 5G 6G17G10G24G30
  22721570.7464   13026538.61847  10152263.53346                  22721582.7384
        23.7504         23.2504
  22767179.6604   -6474828.94548  -3408732.93947                  22767189.2854
        28.2504         25.7504
  24048035.3944   -5629926.55146  -4276034.24246                  24048050.9374
        18.0004         17.2504
  22173245.0824     424456.35648    339237.57747                  22173253.5124
        30.5004         28.5004
  24132312.3554   19456219.51646    901581.61346                  24132321.3364
        18.7504         15.2504
  21820404.9654   -1258166.19648   -971639.09647                  21820414.1804
        32.0004         30.0004
 00  5  4 20 19 15.0040000  0  6G 5G 6G17G10G24G30
  22733067.9414   13086957.58747  10199343.15746                  22733079.9104
        23.7504         23.2504
  22765507.4264   -6483616.33248  -3415580.21747                  22765516.8984
        28.5004         25.7504
  24045814.1294   -5641599.59346  -4285130.03446                  24045829.2504
        18.2504         17.5004
  22179832.3014     459072.02548    366210.83147                  22179840.6604
        30.0004         28.5004
  24143411.6844   19514548.55346    947032.80246                  24143420.8284
        18.2504         15.5004
  21825798.0664   -1229824.49348   -949554.67647                  21825807.2234
        32.0004         30.0004
 00  5  4 20 19 30.0040000  0  6G 5G 6G17G10G24G30
  22744583.8244   13147472.67047  10246497.67746                  22744595.5234
        24.2504         23.2504
  22763842.1914   -6492367.00248  -3422398.88047                  22763851.6524
        28.7504         25.7504
  24043604.2304   -5653212.32546  -4294178.81646                  24043619.1294
        18.5004         17.5004
  22186448.2154     493839.41248    393302.31047                  22186456.7504
        30.2504         28.5004
  24154512.9184   19572885.03446    992489.78046                  24154521.6174
        18.5004         15.5004
  21831220.3484   -1201330.46148   -927351.55547                  21831229.4344
        31.7504         29.7504
 00  5  4 20 19 45.0040000  0  6G 5G 6G17G10G24G30
  22756117.6764   13208083.85147  10293727.07846                  22756129.6914
        23.7504         23.2504
  22762183.9964   -6501080.44048  -3429188.53547                  22762193.3754
        28.7504         25.7504
  24041405.7464   -5664764.41246  -4303180.36646                  24041420.7034
        18.5004         17.7504
  22193093.1914     528758.69548    420512.14347                  22193101.6094
        30.2504         28.2504
  24165615.3094   19631229.33146   1037952.84946                  24165624.4064
        18.7504         15.5004
  21836671.5984   -1172683.72948   -905029.45047                  21836680.7544
        32.5004         30.0004
 00  5  4 20 20  0.0040000  0  6G 5G 6G17G10G24G30
  22767670.0664   13268790.48547  10341030.85146                  22767682.0234
        23.7504         23.2504
  22760532.8634   -6509756.77648  -3435949.27647                  22760542.1254
        28.7504         25.7504
  24039218.8094   -5676256.19446  -4312134.92246                  24039233.6374
        18.5004         17.7504
  22199766.6374     563829.42348    447839.99147                  22199774.9494
        30.2504         28.5004
  24176719.2384   19689580.78246   1083421.49946                  24176728.1604
        18.5004         15.7504
  21842151.9654   -1143884.85148   -882588.78847                  21842161.2274
        32.0004         30.0004
 00  5  4 20 20 15.0040000  0  6G 5G 6G17G10G24G30
  22779239.6994   13329590.01347  10388407.01446                  22779251.9614
        23.7504         23.0004
  22758888.5664   -6518398.03348  -3442682.68447                  22758897.8874
        28.5004         26.0004
  24037043.0354   -5687689.81546  -4321044.15146                  24037057.8874
        18.2504         18.0004
  22206468.9734     599049.17748    475283.96347                  22206477.2384
        30.0004         28.2504
  24187824.0434   19747937.04646   1128893.88246                  24187833.4224
        18.2504         15.5004
  21847660.6994   -1114936.08448   -860031.32947                  21847669.9494
        32.0004         29.7504
 00  5  4 20 20 30.0040000  0  6G 5G 6G17G10G24G30
  22790826.6914   13390478.72047  10435852.66846                  22790838.6844
        23.7504         23.0004
  22757250.0514   -6527007.45048  -3449391.28247                  22757259.4774
        28.5004         26.0004
  24034877.9264   -5699068.77646  -4329910.78746                  24034892.9304
        18.7504         17.2504
  22213198.6294     634414.25648    502841.17347                  22213206.9414
        30.2504         28.2504
  24198929.0194   19806294.59046   1174367.28346                  24198937.8834
        18.2504         15.2504
  21853197.4344   -1085840.91648   -837359.79047                  21853206.5314
        32.0004         29.7504
 00  5  4 20 20 45.0040000  0  6G 5G 6G17G10G24G30
  22802432.5044   13451467.60547  10483376.38046                  22802444.5664
        23.7504         22.7504
  22755620.1054   -6535573.59848  -3456066.16747                  22755629.6604
        28.5004         25.7504
  24032724.9104   -5710381.80946  -4338726.05346                  24032739.6444
        18.5004         17.5004
  22219958.0594     669935.80348    530520.30947                  22219966.3014
        30.2504         28.5004
  24210036.8714   19864664.49146   1219850.30846                  24210045.8634
        18.7504         15.0004
  21858764.0744   -1056588.10148   -814565.41347                  21858773.1134
        32.2504         29.7504
 00  5  4 20 21  0.0040000  0  6G 5G 6G17G10G24G30
  22814056.6374   13512551.89347  10530974.43346                  22814068.5944
        23.7504         23.0004
  22753997.3324   -6544100.76448  -3462710.67247                  22754006.7934
        28.2504         26.0004
  24030583.6914   -5721633.32246  -4347493.38846                  24030598.5084
        18.5004         17.2504
  22226746.6524     705609.19848    558317.77047                  22226755.0824
        29.7504         28.0004
  24221145.4184   19923042.30646   1265339.50146                  24221154.1054
        18.5004         15.5004
  21864359.7774   -1027182.06948   -791651.64047                  21864368.9344
        32.2504         29.7504
 00  5  4 20 21 15.0040000  0  6G 5G 6G17G10G24G30
  22825698.0824   13573728.94747  10578644.77446                  22825710.3554
        23.5004         23.0004
  22752381.6764   -6552591.01948  -3469326.41947                  22752391.3484
        28.5004         25.7504
  24028453.7304   -5732825.54946  -4356214.52546                  24028468.4534
        18.5004         17.5004
  22233563.4024     741432.15648    586231.77047                  22233571.8674
        30.5004         28.2504
  24232255.5514   19981425.68546   1310833.02646                  24232264.4844
        18.2504         15.0004
  21869984.4024    -997625.20048   -768620.33747                  21869993.6174
        32.0004         29.7504
 00  5  4 20 21 30.0040000  0  6G 5G 6G17G10G24G30
  22837357.8244   13634999.77647  10626388.17846                  22837369.9924
        24.2504         22.7504
  22750773.3014   -6561042.89048  -3475912.25547                  22750782.9494
        28.5004         26.2504
  24026335.6054   -5743957.23846  -4364888.48746                  24026350.6334
        18.7504         17.2504
  22240408.9024     777405.77048    614263.16847                  22240417.2504
        30.2504         28.2504
  24243366.7384   20039815.64246   1356331.68146                  24243375.3204
        18.5004         15.5004
  21875637.7304    -967916.28748   -745470.55647                  21875647.0274
        32.2504         29.7504
 00  5  4 20 21 45.0040000  0  6G 5G 6G17G10G24G30
  22849035.6444   13696366.77347  10674206.52246                  22849047.9064
        23.7504         22.7504
  22749172.7774   -6569453.52148  -3482465.95547                  22749182.4024
        28.2504         26.0004
  24024228.8634   -5755025.69246  -4373513.17346                  24024243.8324
        18.2504         17.2504
  22247283.6844     813532.50348    642413.87347                  22247292.0784
        30.5004         28.2504
  24254479.8244   20098214.80846   1401837.50446                  24254488.8284
        18.7504         15.0004
  21881320.5194    -938052.75848   -722200.29747                  21881329.7934
        32.2504         29.7504
 00  5  4 20 22  0.0040000  0  6G 5G 6G17G10G24G30
  22860731.1214   13757827.08647  10722097.58146                  22860743.4534
        24.0004         22.7504
  22747579.5744   -6577825.35748  -3488989.43047                  22747589.0944
        28.2504         26.0004
  24022134.0664   -5766033.52846  -4382090.63846                  24022149.1644
        18.5004         17.5004
  22254187.0594     849809.54048    670681.70247                  22254195.4414
        30.2504         28.5004
  24265593.9654   20156620.36846   1447348.31446                  24265603.3674
        18.7504         15.0004
  21887032.3244    -908037.32348   -698811.66547                  21887041.6444
        32.2504         29.7504
 00  5  4 20 22 15.0040000  0  6G 5G 6G17G10G24G30
  22872443.8244   13819377.53347  10770058.87646                  22872456.0984
        23.7504         22.5004
  22745993.4414   -6586161.03548  -3495484.71847                  22746002.9844
        28.2504         26.2504
  24020050.2934   -5776983.54446  -4390623.03746                  24020065.3674
        18.2504         17.7504
  22261118.1054     886233.98748    699064.39747                  22261126.4884
        30.2504         28.5004
  24276709.2774   20215029.41046   1492861.83746                  24276718.3874
        18.7504         15.2504
  21892772.4414    -877872.94248   -675306.97447                  21892781.7274
        32.2504         29.7504
 00  5  4 20 22 30.0040000  0  6G 5G 6G17G10G24G30
  22884173.8634   13881018.01247  10818090.32246                  22884186.1024
        23.7504         22.7504
  22744413.8404   -6594460.18848  -3501951.55547                  22744423.3594
        28.2504         26.0004
  24017977.7464   -5787875.53846  -4399110.22746                  24017992.5274
        18.2504         17.7504
  22268077.5744     922805.69048    727561.83347                  22268085.8984
        30.2504         28.5004
  24287824.4414   20273442.05446   1538378.18446                  24287833.5864
        18.2504         14.7504
  21898540.9574    -847559.25848   -651685.94547                  21898550.2074
        32.2504         29.7504
 00  5  4 20 22 45.0040000  0  6G 5G 6G17G10G24G30
  22895921.3554   13942751.93047  10866194.58046                  22895933.4184
        23.7504         22.5004
  22742842.2154   -6602718.94948  -3508386.91047                  22742851.6644
        28.7504         26.2504
  24015916.8164   -5798705.91046  -4407549.39946                  24015931.6214
        18.2504         17.2504
  22275065.9964     959528.24148    756176.81547                  22275074.1804
        30.5004         28.5004
  24298941.4264   20331861.66546   1583899.94046                  24298950.2894
        18.2504         15.2504
  21904338.3634    -817092.84948   -627945.90847                  21904347.7424
        32.2504         29.7504
 00  5  4 20 23  0.0040000  0  6G 5G 6G17G10G24G30
  22907687.2234   14004580.27447  10914372.41546                  22907699.5554
        23.7504         22.5004
  22741278.6294   -6610935.86548  -3514789.66147                  22741287.8554
        28.7504         26.2504
  24013867.4574   -5809473.24846  -4415939.46546                  24013882.2034
        18.2504         17.7504
  22282082.4654     996402.82148    784910.26647                  22282090.7194
        30.5004         28.5004
  24310059.9734   20390289.59146   1629428.18946                  24310068.4614
        18.5004         15.0004
  21910165.4884    -786472.56648   -604085.96747                  21910174.8204
        32.2504         29.7504
 00  5  4 20 23 15.0040000  0  6G 5G 6G17G10G24G30
  22919469.7384   14066498.17947  10962620.03446                  22919482.4344
        23.5004         22.5004
  22739722.3874   -6619115.28348  -3521163.19647                  22739731.4964
        28.7504         26.2504
  24011829.8714   -5820182.13746  -4424283.98246                  24011844.9454
        18.2504         18.0004
  22289127.6604    1033424.63448    813758.43747                  22289136.1724
        30.5004         28.5004
  24321179.1524   20448721.03946   1674959.15846                  24321187.8634
        18.7504         15.0004
  21916020.6994    -755702.87448   -580109.60847                  21916030.1024
        32.2504         29.7504
 00  5  4 20 23 30.0040000  0  6G 5G 6G17G10G24G30
  22931269.8244   14128507.26147  11010938.70346                  22931282.2034
        23.5004         22.7504
  22738173.2234   -6627255.13648  -3527505.89747                  22738182.5554
        29.0004         26.2504
  24009803.4494   -5830830.67246  -4432581.46946                  24009818.5234
        17.7504         18.0004
  22296201.0984    1070595.35248    842722.63747                  22296209.6564
        30.5004         28.2504
  24332299.2544   20507157.93446   1720494.39646                  24332308.4804
        18.5004         15.0004
  21921904.7074    -724782.01748   -556015.45447                  21921914.0514
        32.2504         29.7504
 00  5  4 20 23 45.0040000  0  6G 5G 6G17G10G24G30
  22943087.3874   14190609.27547  11059329.78546                  22943099.6484
        23.5004         22.2504
  22736632.1994   -6635353.13048  -3533815.97947                  22736641.4614
        28.7504         26.0004
  24007788.9804   -5841416.77246  -4440830.30546                  24007803.9374
        18.2504         17.7504
  22303303.1214    1107916.89248    871804.36647                  22303311.5044
        30.5004         28.5004
  24343420.7464   20565602.20246   1766035.37646                  24343429.4574
        17.5004         14.7504
  21927818.0194    -693707.93748   -531801.90647                  21927827.2584
        32.2504         29.5004
 00  5  4 20 24  0.0040000  0  6G 5G 6G17G10G24G30
  22954923.2774   14252806.31447  11107794.91546                  22954935.8324
        23.5004         22.2504
  22735099.6054   -6643406.64948  -3540091.41347                  22735108.8554
        28.7504         26.2504
  24005786.8404   -5851937.99746  -4449028.58546                  24005801.6804
        18.2504         18.0004
  22310434.2934    1145391.65348    901005.48547                  22310442.8164
        30.2504         28.5004
  24354544.3014   20624056.03546   1811583.79246                  24354553.5164
        18.0004         14.7504
  21933760.7234    -662478.52048   -507467.31747                  21933770.0664
        32.2504         29.7504
 00  5  4 20 24 15.0040000  0  6G 5G 6G17G10G24G30
  22966776.4024   14315094.47447  11156331.04346                  22966788.7464
        23.5004         22.2504
  22733574.8244   -6651419.10748  -3546334.84347                  22733583.9694
        28.5004         26.2504
  24003796.6214   -5862397.91046  -4457179.09746                  24003811.4734
        18.7504         18.0004
  22317593.9494    1183015.86548    930323.05947                  22317602.4374
        30.2504         28.5004
  24365668.8794   20682515.78446   1857136.82646                  24365677.7424
        17.7504         14.7504
  21939732.5744    -631097.10348   -483014.28747                  21939741.8944
        32.2504         29.5004
 00  5  4 20 24 30.0040000  0  6G 5G 6G17G10G24G30
  22978646.8164   14377474.23047  11204938.55046                  22978659.2304
        23.0004         22.0004
  22732058.1914   -6659389.65048  -3552545.62047                  22732067.5474
        28.5004         26.5004
  24001817.5664   -5872795.84946  -4465281.32546                  24001832.1604
        18.5004         18.0004
  22324782.0514    1220789.95348    959757.41847                  22324790.3984
        30.5004         28.5004
  24376794.4574   20740981.97746   1902694.89746                  24376803.0274
        18.0004         14.2504
  21945733.0664    -599563.30148   -458442.51747                  21945742.3524
        32.2504         29.5004
 00  5  4 20 24 45.0040000  0  6G 5G 6G17G10G24G30
  22990535.6684   14439950.16347  11253620.99046                  22990548.1174
        23.0004         22.2504
  22730550.2384   -6667313.19148  -3558719.76547                  22730559.6174
        28.5004         26.2504
  23999851.3944   -5883126.97446  -4473331.48246                  23999866.0944
        18.5004         18.0004
  22331999.6134    1258718.61148    989312.22347                  22332008.0314
        30.2504         28.2504
  24387922.1994   20799459.40846   1948261.70246                  24387930.3944
        17.7504         14.7504
  21951763.7774    -567872.29048   -433748.24347                  21951773.0624
        32.5004         29.5004
 00  5  4 20 25  0.0040000  0  6G 5G 6G17G10G24G30
  23002442.8244   14502521.91747  11302378.10646                  23002455.2034
        23.2504         22.0004
  22729051.3404   -6675189.62648  -3564857.20847                  22729060.8944
        28.5004         26.5004
  23997898.0594   -5893391.34046  -4481329.62646                  23997912.7934
        18.7504         18.0004
  22339246.6844    1296801.53548   1018987.23347                  22339254.9844
        30.7504         28.2504
  24399052.6844   20857947.99946   1993837.20746                  24399061.3124
        17.7504         14.5004
  21957824.4494    -536024.27848   -408931.63547                  21957833.4884
        32.2504         29.5004
 00  5  4 20 25 15.0040000  0  6G 5G 6G17G10G24G30
  23014366.9024   14565183.25047  11351205.01746                  23014379.5044
        23.0004         22.0004
  22727560.4264   -6683024.60148  -3570962.34847                  22727569.7694
        28.7504         26.5004
  23995956.7154   -5903594.83046  -4489280.32946                  23995971.0984
        18.7504         18.0004
  22346521.6994    1335032.52048   1048777.62047                  22346530.2114
        30.2504         28.5004
  24410183.7304   20916441.62146   2039416.64846                  24410192.3244
        17.0004         14.0004
  21963913.6214    -504025.02948   -383997.17947                  21963922.7194
        32.5004         29.5004
 00  5  4 20 25 30.0040000  0  6G 5G 6G17G10G24G30
  23026308.2694   14627935.66347  11400102.89746                  23026320.5314
        23.0004         22.2504
  22726077.7694   -6690816.19648  -3577033.67747                  22726087.2304
        28.7504         26.5004
  23994026.9024   -5913735.58746  -4497182.14946                  23994041.5904
        18.7504         18.0004
  22353825.3324    1373413.33048   1078684.75047                  22353833.8444
        30.0004         28.2504
  24421315.5824   20974942.08346   2085001.41646                  24421324.5514
        17.2504         14.2504
  21970032.0664    -471872.94148   -358943.62747                  21970041.2464
        32.0004         29.5004
 00  5  4 20 25 45.0040000  0  6G 5G 6G17G10G24G30
  23038266.1214   14690773.18047  11449067.09646                  23038278.5944
        23.0004         22.2504
  22724602.0514   -6698569.86348  -3583075.46347                  22724611.5824
        28.5004         26.5004
  23992107.8484   -5923819.18846  -4505039.43946                  23992122.2194
        18.7504         18.2504
  22361156.3944    1411938.13248   1108704.08047                  22361164.8834
        30.5004         28.2504
  24432448.0274   21033443.45146   2130586.88146                  24432457.1134
        16.2504         13.7504
  21976178.3164    -439573.86548   -333775.53947                  21976187.4734
        32.2504         29.5004
 00  5  4 20 26  0.0040000  0  6G 5G 6G17G10G24G30
  23050240.5984   14753699.56247  11498100.54046                  23050253.3404
        23.0004         22.2504
  22723134.7544   -6706281.39648  -3589084.41447                  22723144.5084
        28.5004         26.5004
  23990200.5744   -5933841.70346  -4512849.12346                  23990215.0164
        18.7504         18.5004
  22368515.4654    1450610.72948   1138838.58047                  22368523.7894
        30.5004         28.5004
  24443581.4964   21091949.85846   2176176.26446                  24443591.0624
        16.7504         14.0004
  21982353.3944    -407123.86848   -308489.85047                  21982362.5274
        32.2504         29.5004
 00  5  4 20 26 15.0040000  0  6G 5G 6G17G10G24G30
  23062232.5664   14816717.28447  11547205.15846                  23062245.1444
        22.7504         21.7504
  22721675.8094   -6713947.77848  -3595058.18247                  22721685.2694
        28.5004         26.7504
  23988305.4804   -5943800.36346  -4520609.05046                  23988319.8874
        18.7504         18.2504
  22375903.3244    1489433.59948   1169090.17247                  22375911.6954
        30.7504         28.2504
  24454716.2384   21150463.67246   2221771.43046                  24454724.5044
        17.0004         14.2504
  21988557.6444    -374520.12548   -283084.36147                  21988566.9184
        32.2504         29.5004
 00  5  4 20 26 30.0040000  0  6G 5G 6G17G10G24G30
  23074241.7074   14879825.09147  11596379.97146                  23074254.3794
        22.7504         22.2504
  22720225.4734   -6721569.69248  -3600997.30247                  22720234.9454
        28.7504         26.7504
  23986422.1764   -5953696.01446  -4528319.88446                  23986436.8754
        18.7504         18.2504
  22383319.3484    1528405.81548   1199458.14147                  22383327.6254
        30.5004         28.2504
  24465852.3244   21208984.08646   2267371.73746                  24465861.5744
        17.0004         14.0004
  21994790.9494    -341763.65648   -257559.86447                  21994800.1414
        32.2504         29.2504
 00  5  4 20 26 45.0040000  0  6G 5G 6G17G10G24G30
  23086267.4574   14943021.23747  11645623.61746                  23086280.0594
        22.7504         22.2504
  22718783.2384   -6729148.32148  -3606902.68947                  22718792.5824
        29.0004         27.0004
  23984550.8944   -5963530.09346  -4535982.73746                  23984565.6874
        19.0004         18.0004
  22390763.7694    1567525.80148   1229941.25747                  22390772.1874
        30.7504         28.2504
  24476989.1764   21267509.61546   2312976.03646                  24476997.1724
        16.7504         13.7504
  22001053.0664    -308855.96548   -231917.53747                  22001062.3404
        32.2504         29.2504
 00  5  4 20 27  0.0040000  0  6G 5G 6G17G10G24G30
  23098310.9344   15006309.30647  11694938.89546                  23098323.7934
        22.7504         22.2504
  22717350.0594   -6736679.68048  -3612771.24647                  22717359.3444
        29.2504         27.0004
  23982691.8794   -5973298.79946  -4543594.64546                  23982706.7304
        18.7504         18.2504
  22398236.6294    1606797.16848   1260542.32647                  22398245.0594
        30.5004         28.2504
  24488128.2774   21326043.87146   2358587.14546                  24488137.6094
        17.2504         14.0004
  22007344.5904    -275793.47648   -206154.58147                  22007353.9804
        32.2504         29.2504
 00  5  4 20 27 15.0040000  0  6G 5G 6G17G10G24G30
  23110370.8014   15069685.06547  11744322.49246                  23110383.7304
        22.5004         21.7504
  22715925.2854   -6744167.49248  -3618605.87147                  22715934.5474
        29.7504         27.0004
  23980844.7234   -5983006.02846  -4551158.66246                  23980859.7734
        18.7504         18.5004
  22405737.8324    1646215.80048   1291258.15147                  22405746.2274
        30.5004         28.5004
  24499267.6294   21384582.86646   2404201.92646                  24499277.0194
        16.7504         13.7504
  22013665.0274    -242580.07448   -180274.03747                  22013674.4534
        32.0004         29.7504
 00  5  4 20 27 30.0040000  0  6G 5G 6G17G10G24G30
  23122448.4734   15133151.91447  11793777.08146                  23122461.5084
        22.2504         22.0004
  22714509.2694   -6751607.77648  -3624403.45647                  22714518.1334
        29.7504         27.0004
  23979010.0744   -5992647.94046  -4558671.77846                  23979024.6094
        18.7504         18.2504
  22413267.6604    1685785.18748   1322091.44547                  22413276.0084
        30.5004         28.2504
  24510409.0274   21443130.37146   2449823.32946                  24510418.2194
        16.7504         13.5004
  22020014.7154    -209212.10448   -154273.04647                  22020023.9304
        32.2504         29.5004
 00  5  4 20 27 45.0040000  0  6G 5G 6G17G10G24G30
  23134542.6444   15196705.96647  11843299.61846                  23134555.5044
        22.7504         22.2504
  22713101.9184   -6759004.05448  -3630166.75147                  22713111.0044
        30.2504         27.2504
  23977186.7624   -6002228.27646  -4566136.90246                  23977201.5554
        18.5004         18.5004
  22420825.4884    1725501.51548   1353039.24147                  22420833.9654
        30.5004         28.2504
  24521551.0044   21501682.48846   2495448.35946                  24521560.1844
        16.5004         13.7504
  22026393.0594    -175693.37748   -128154.58247                  22026402.4144
        32.0004         29.5004
 00  5  4 20 28  0.0040000  0  6G 5G 6G17G10G24G30
  23146653.1524   15260347.21647  11892890.09346                  23146666.0474
        22.7504         21.7504
  22711702.9344   -6766355.70448  -3635895.27847                  22711711.9494
        30.2504         27.2504
  23975375.4654   -6011746.68746  -4573553.78846                  23975390.2114
        19.2504         18.5004
  22428411.2234    1765365.04048   1384101.73247                  22428419.5124
        30.7504         28.2504
  24532694.0664   21560239.45246   2541077.13746                  24532703.0704
        16.5004         13.7504
  22032800.3634    -142023.63248   -101918.44947                  22032809.6954
        32.5004         29.5004
 00  5  4 20 28 15.0040000  0  6G 5G 6G17G10G24G30
  23158780.0904   15324073.79147  11942547.06146                  23158793.1844
        22.2504         21.7504
  22710312.1994   -6773664.06048  -3641590.06747                  22710321.2154
        30.5004         27.2504
  23973575.4024   -6021204.67146  -4580923.57746                  23973590.1374
        19.5004         18.7504
  22436024.7154    1805373.75948   1415277.36947                  22436033.0044
        30.5004         28.2504
  24543837.7154   21618799.68046   2586708.47646                  24543847.0474
        16.7504         13.5004
  22039235.9414    -108204.50848    -75565.91047                  22039245.1094
        32.0004         29.5004
 00  5  4 20 28 30.0040000  0  6G 5G 6G17G10G24G30
  23170923.5594   15387889.38547  11992273.39246                  23170936.4184
        22.5004         21.7504
  22708930.5274   -6780924.99448  -3647247.90547                  22708939.4614
        30.2504         27.2504
  23971787.7694   -6030598.15746  -4588243.10846                  23971802.4574
        19.2504         18.5004
  22443666.4344    1845531.66648   1446569.24847                  22443674.8164
        30.2504         28.2504
  24554982.8794   21677366.96446   2632345.31146                  24554992.5624
        16.2504         13.5004
  22045700.5744     -74232.08148    -49093.92247                  22045709.8364
        32.2504         29.2504
 00  5  4 20 28 45.0040000  0  6G 5G 6G17G10G24G30
  23183083.9414   15451792.29447  12042067.76646                  23183097.1054
        22.2504         21.7504
  22707557.5354   -6788139.72448  -3652869.73747                  22707566.6334
        30.5004         27.2504
  23970012.5044   -6039928.65046  -4595513.55746                  23970026.7934
        19.7504         18.7504
  22451336.3014    1885837.16748   1477976.13847                  22451344.6724
        30.0004         28.2504
  24566128.8484   21735939.78146   2677986.44246                  24566138.3914
        16.2504         13.5004
  22052194.2774     -40107.94748    -22503.71647                  22052203.5514
        32.0004         29.5004
 00  5  4 20 29  0.0040000  0  6G 5G 6G17G10G24G30
  23195260.9264   15515782.04747  12091929.80646                  23195273.7624
        22.2504         21.5004
  22706193.3554   -6795308.16648  -3658455.50547                  22706202.3944
        30.0004         27.5004
  23968248.6914   -6049196.26346  -4602735.00946                  23968262.7814
        19.5004         18.7504
  22459034.2384    1926289.90748   1509497.75847                  22459042.6214
        30.0004         28.0004
  24577275.7694   21794517.95046   2723631.74346                  24577284.7154
        16.7504         13.7504
  22058716.9494      -5832.31648      4204.54047                  22058726.2464
        31.5004         29.5004
 00  5  4 20 29 15.0040000  0  6G 5G 6G17G10G24G30
  23207453.9884   15579854.89247  12141856.59446                  23207466.9414
        22.2504         21.7504
  22704837.2464   -6802433.56048  -3664007.72947                  22704846.2504
        29.7504         27.0004
  23966496.2694   -6058404.57446  -4609910.25146                  23966510.4064
        19.5004         18.7504
  22466759.2774    1966886.14548   1541131.19347                  22466767.7424
        30.0004         28.2504
  24588423.2074   21853097.90946   2769278.45846                  24588431.9534
        16.5004         13.7504
  22065267.5594      28591.30748     31028.11447                  22065276.9144
        32.2504         29.5004
 00  5  4 20 29 30.0040000  0  6G 5G 6G17G10G24G30
  23219663.7234   15644018.74547  12191854.30146                  23219676.8164
        22.2504         21.7504
  22703491.0824   -6809507.52348  -3669519.88047                  22703500.2384
        29.7504         27.0004
  23964756.7074   -6067545.35246  -4617032.85846                  23964770.7034
        19.5004         19.0004
  22474513.3554    2007633.79548   1572882.61347                  22474521.7034
        30.0004         28.2504
  24599572.2464   21911687.76246   2814932.88246                  24599581.4494
        15.5004         13.7504
  22071847.6844      63170.93848     57973.25247                  22071857.0044
        32.0004         29.5004
 00  5  4 20 29 45.0040000  0  6G 5G 6G17G10G24G30
  23231890.0594   15708267.35847  12241918.05146                  23231903.4104
        22.2504         21.7504
  22702153.7934   -6816535.73448  -3674996.37547                  22702163.0314
        29.5004         27.0004
  23963029.3014   -6076624.49646  -4624107.44846                  23963043.3204
        19.7504         18.5004
  22482295.1524    2048527.09148   1604747.52747                  22482303.6174
        29.7504         28.0004
  24610722.4344   21970281.44846   2860590.27546                  24610732.4104
        15.7504         13.2504
  22078456.6054      97900.63548     85035.32247                  22078465.8554
        31.5004         29.5004
 00  5  4 20 30  0.0040000  0  6G 5G 6G17G10G24G30
  23244133.2854   15772606.01947  12292051.97146                  23244146.3324
        22.2504         21.5004
  22700825.9414   -6823512.47448  -3680432.76847                  22700835.2384
        29.5004         27.2504
  23961314.3944   -6085636.37646  -4631129.62246                  23961328.3554
        19.5004         19.0004
  22490105.4654    2089571.08148   1636729.86147                  22490113.9414
        29.7504         28.0004
  24621874.3714   22028884.54646   2906255.01146                  24621884.1604
        16.2504         13.2504
  22085095.0194     132785.69648    112218.45447                  22085104.3874
        32.2504         29.5004
 00  5  4 20 30 15.0040000  0  6G 5G 6G17G10G24G30
  23256392.4264   15837027.51047  12342250.42746                  23256405.6844
        22.0004         21.0004
  22699506.9884   -6830444.33948  -3685834.19647                  22699516.4144
        29.5004         27.2504
  23959610.8714   -6094587.83746  -4638104.72046                  23959625.1134
        19.7504         18.7504
  22497943.2544    2130758.81048   1668824.19847                  22497951.6024
        30.0004         28.0004
  24633026.4574   22087490.02346   2951921.61846                  24633035.6024
        16.0004         13.7504
  22091761.6374     167819.20248    139517.25747                  22091771.0984
        32.2504         29.2504
 00  5  4 20 30 30.0040000  0  6G 5G 6G17G10G24G30
  23268668.4574   15901537.88047  12392518.14446                  23268681.7154
        22.0004         21.2504
  22698197.5984   -6837324.73648  -3691195.51447                  22698206.9414
        29.2504         27.0004
  23957919.9344   -6103472.42446  -4645027.70046                  23957934.2584
        19.5004         18.7504
  22505809.7694    2172096.38948   1701035.30147                  22505818.2694
        30.0004         28.2504
  24644180.4264   22146104.15546   2997594.92246                  24644189.6764
        15.7504         13.5004
  22098457.8094     203007.45648    166936.64647                  22098467.0944
        32.2504         29.7504
 00  5  4 20 30 45.0040000  0  6G 5G 6G17G10G24G30
  23280960.3404   15966132.82747  12442851.76346                  23280973.5164
        22.0004         21.2504
  22696897.4264   -6844157.59748  -3696519.79547                  22696906.7584
        29.2504         27.2504
  23956241.1764   -6112294.21746  -4651901.75546                  23956255.8984
        19.2504         18.7504
  22513703.5434    2213579.60148   1733359.88547                  22513711.8914
        30.2504         28.2504
  24655335.3164   22204722.85646   3043271.82946                  24655344.3324
        15.7504         13.5004
  22105182.7694     238346.20748    194473.30147                  22105192.1134
        32.0004         29.5004
 00  5  4 20 31  0.0040000  0  6G 5G 6G17G10G24G30
  23293269.0354   16030813.95147  12493252.53746                  23293282.2934
        21.7504         21.0004
  22695606.5274   -6850940.65848  -3701805.26947                  22695615.7304
        29.5004         27.2504
  23954574.7854   -6121051.27046  -4658725.36246                  23954589.6134
        19.2504         18.7504
  22521625.8014    2255210.26048   1765799.36347                  22521634.0664
        30.5004         28.2504
  24666491.6524   22263347.91646   3088953.67446                  24666501.1374
        16.0004         13.5004
  22111936.3714     273837.38448    222128.73047                  22111945.6444
        32.0004         29.5004
 00  5  4 20 31 15.0040000  0  6G 5G 6G17G10G24G30
  23305593.3244   16095579.17547  12543718.83646                  23305606.5944
        21.7504         20.7504
  22694324.8164   -6857675.58048  -3707053.23147                  22694334.0784
        29.5004         27.2504
  23952920.4264   -6129745.45246  -4665499.97746                  23952934.9734
        19.5004         19.0004
  22529575.4344    2296986.20348   1798352.04947                  22529583.5704
        30.5004         28.0004
  24677648.0824   22321977.53846   3134639.08846                  24677656.8284
        15.7504         13.2504
  22118718.8634     309479.10948    249901.46847                  22118728.2194
        31.7504         29.5004
 00  5  4 20 31 30.0040000  0  6G 5G 6G17G10G24G30
  23317934.2934   16160429.19747  12594251.21846                  23317947.2934
        21.7504         21.0004
  22693052.6444   -6864361.16348  -3712262.75147                  22693061.7894
        29.7504         27.5004
  23951278.1764   -6138375.74646  -4672224.80646                  23951292.4884
        19.7504         18.7504
  22537552.9574    2338908.27848   1831018.60647                  22537561.1524
        30.5004         28.0004
  24688806.1134   22380612.41246   3180328.57946                  24688815.0234
        15.2504         13.2504
  22125529.9734     345272.24248    277792.18947                  22125539.3164
        32.0004         29.2504
 00  5  4 20 31 45.0040000  0  6G 5G 6G17G10G24G30
  23330290.2464   16225361.08047  12644847.38146                  23330303.4574
        21.7504         21.0004
  22691789.4184   -6870999.80148  -3717435.68547                  22691798.5514
        30.0004         27.5004
  23949647.4494   -6146944.87146  -4678901.97946                  23949661.6564
        19.7504         19.0004
  22545557.7384    2380973.78048   1863796.92247                  22545565.8984
        30.2504         27.7504
  24699964.3634   22439250.02246   3226020.20546                  24699974.1174
        15.0004         13.2504
  22132369.3874     381213.94648    305798.67847                  22132378.8124
        32.2504         29.2504
 00  5  4 20 32  0.0040000  0  6G 5G 6G17G10G24G30
  23342662.7544   16290378.42747  12695510.14746                  23342676.1054
        21.5004         20.5004
  22690535.9804   -6877587.37448  -3722568.82547                  22690545.0314
        30.5004         27.5004
  23948028.9184   -6155448.89647  -4685528.41546                  23948043.1254
        20.0004         19.2504
  22553590.3164    2423186.16048   1896689.69047                  22553598.3714
        30.5004         27.7504
  24711124.2624   22497894.06746   3271716.84546                  24711133.4884
        16.0004         13.5004
  22139237.8554     417307.94648    333923.83947                  22139247.3054
        31.7504         29.2504
 00  5  4 20 32 15.0040000  0  6G 5G 6G17G10G24G30
  23355050.5664   16355477.00447  12746236.20746                  23355063.7424
        21.5004         20.7504
  22689291.2854   -6884127.48948  -3727664.99147                  22689300.1954
        30.7504         27.2504
  23946422.4264   -6163891.62647  -4692107.09246                  23946436.3754
        20.2504         19.2504
  22561650.4734    2465541.38848   1929693.76347                  22561658.6914
        30.2504         27.5004
  24722284.3404   22556540.56946   3317415.39746                  24722293.3204
        16.0004         13.0004
  22146134.6134     453550.22448    362164.53947                  22146144.2384
        32.0004         29.2504
 00  5  4 20 32 30.0040000  0  6G 5G 6G17G10G24G30
  23367453.8714   16420655.98147  12797024.90946                  23367467.0234
        22.0004         20.2504
  22688055.6604   -6890620.46048  -3732724.42047                  22688064.6054
        30.5004         27.2504
  23944827.2234   -6172273.52447  -4698638.36346                  23944841.0314
        20.5004         19.2504
  22569737.3164    2508038.80448   1962808.63747                  22569745.6174
        30.2504         27.7504
  24733444.6604   22615189.12346   3363115.55646                  24733454.4734
        15.7504         13.0004
  22153059.4964     489940.28448    390520.39747                  22153068.9224
        31.5004         29.2504
 00  5  4 20 32 45.0040000  0  6G 5G 6G17G10G24G30
  23379873.4884   16485920.45947  12847880.24046                  23379886.8874
        21.2504         20.5004
  22686830.0044   -6897060.68848  -3737742.74647                  22686838.9144
        30.5004         27.5004
  23943245.0274   -6180589.18647  -4705118.02646                  23943259.1054
        20.2504         19.2504
  22577852.4414    2550683.65648   1996038.39047                  22577860.7194
        30.0004         27.7504
  24744606.2934   22673844.87946   3408821.31846                  24744616.0004
        15.5004         13.0004
  22160013.4804     526483.45848    418995.56347                  22160023.1414
        32.0004         29.2504
 00  5  4 20 33  0.0040000  0  6G 5G 6G17G10G24G30
  23392308.6994   16551268.27847  12898800.51346                  23392322.2274
        21.2504         20.5004
  22685614.1914   -6903449.95448  -3742721.36747                  22685623.1484
        30.2504         27.5004
  23941674.5044   -6188840.55947  -4711547.58546                  23941688.5354
        20.7504         19.5004
  22585994.9884    2593473.78248   2029381.34547                  22586003.2304
        30.0004         27.5004
  24755769.1134   22732505.81146   3454531.11646                  24755778.4924
        15.2504         12.7504
  22166996.1684     563177.58748    447588.35847                  22167005.7694
        31.7504         29.2504
 00  5  4 20 33 15.0040000  0  6G 5G 6G17G10G24G30
  23404759.9494   16616700.02247  12949786.17746                  23404773.2544
        21.2504         20.0004
  22684408.4184   -6909787.13848  -3747659.40147                  22684417.2694
        30.2504         27.2504
  23940116.7774   -6197026.71847  -4717926.33346                  23940130.8204
        20.7504         19.5004
  22594165.4344    2636409.85748   2062838.02747                  22594173.6524
        29.7504         27.2504
  24766933.2934   22791172.73546   3500245.59246                  24766943.0004
        15.0004         13.0004
  22174007.5594     600023.38748    476299.33147                  22174017.4064
        31.5004         29.2504
 00  5  4 20 33 30.0040000  0  6G 5G 6G17G10G24G30
  23417227.8164   16682217.84547  13000838.91546                  23417240.9804
        21.0004         20.0004
  22683212.5984   -6916069.50548  -3752554.72347                  22683221.4614
        30.0004         27.2504
  23938571.6604   -6205145.29347  -4724252.42146                  23938585.1294
        20.7504         19.2504
  22602364.0194    2679494.06948   2096410.13647                  22602372.3444
        29.7504         27.5004
  24778098.5194   22849848.22146   3545966.73346                  24778107.5474
        15.7504         12.7504
  22181048.6294     637023.28548    505130.38647                  22181058.3364
        31.7504         29.2504
 00  5  4 20 33 45.0040000  0  6G 5G 6G17G10G24G30
  23429712.3324   16747823.73747  13051960.28446                  23429725.6374
        21.2504         20.2504
  22682028.0744   -6922294.45948  -3757405.30347                  22682036.9964
        29.7504         27.2504
  23937040.0904   -6213193.79947  -4730523.89846                  23937053.6644
        21.0004         20.0004
  22610591.4494    2722728.54648   2130099.33647                  22610599.7384
        30.0004         27.5004
  24789266.2464   22908534.33146   3591696.16446                  24789274.7584
        15.0004         12.5004
  22188119.1054     674179.55148    534083.28147                  22188128.6134
        31.5004         29.2504
 00  5  4 20 34  0.0040000  0  6G 5G 6G17G10G24G30
  23442212.5594   16813512.64747  13103146.33846                  23442225.7464
        21.0004         20.2504
  22680853.6994   -6928466.59148  -3762214.73147                  22680862.6334
        29.5004         27.2504
  23935520.8944   -6221176.99947  -4736744.50446                  23935534.6804
        21.2504         19.5004
  22618846.1914    2766108.31648   2163901.75347                  22618854.5624
        30.0004         27.5004
  24800435.4414   22967226.43746   3637430.25746                  24800444.5624
        15.2504         13.2504
  22195218.5434     711487.27748    563154.20347                  22195228.0044
        31.7504         29.2504
